[[{"header":{"parameterUnit":"m.s-1","parameterCategory":1,"la1":30.6,"la2":29.2853,"lo1":-89.7004,"lo2":-87.6739,"dx":0.0162,"dy":0.0183,"nx":112,"ny":82,"refTime":"2022-12-07T18:00:00:Z","depth":0,"parameterNumber":2,"parameterNumberName":"U-component_of_WINDS"},"data":[0.0,0.0,0.0,0.0,0.0,0.0,0.0,0.0,0.0,0.0,0.0,0.0,0.0,0.0,0.0,0.0,0.0,0.0,0.0,0.0,0.0,0.0,0.0,0.0,0.0,0.0,0.0,0.0,0.0,0.0,0.0,0.0,0.0,0.0,0.0,0.0,0.0,0.0,0.0,0.0,0.0,0.0,0.0,0.0,0.0,0.0,0.0,0.0,0.0,0.0,0.0,0.0,0.0,0.0,0.0,0.0,0.0,0.0,0.0,0.0,0.0,0.0,0.0,0.0,0.0,0.0,0.0,0.0,0.0,0.0,0.0,0.0,0.0,0.0,0.0,0.0,0.0,0.0,0.0,0.0,0.0,0.0,0.0,0.0,0.0,0.0,0.0,0.0,0.0,0.0,-1.7961,-1.9725,-2.2192,-2.3816,-2.4094,-2.3816,-2.1594,-1.6792,0.0,0.0,0.0,0.0,0.0,0.0,0.0,0.0,0.0,0.0,0.0,0.0,0.0,0.0,0.0,0.0,0.0,0.0,0.0,0.0,0.0,0.0,0.0,0.0,0.0,0.0,0.0,0.0,0.0,0.0,0.0,0.0,0.0,0.0,0.0,0.0,0.0,0.0,0.0,0.0,0.0,0.0,0.0,0.0,0.0,0.0,0.0,0.0,0.0,0.0,0.0,0.0,0.0,0.0,0.0,0.0,0.0,0.0,0.0,0.0,0.0,0.0,0.0,0.0,0.0,0.0,0.0,0.0,0.0,0.0,0.0,0.0,0.0,0.0,0.0,0.0,0.0,0.0,0.0,0.0,0.0,0.0,0.0,0.0,0.0,0.0,0.0,0.0,0.0,0.0,0.0,0.0,0.0,0.0,0.0,0.0,0.0,0.0,0.0,0.0,0.0,0.0,0.0,0.0,-1.6836,-2.169,-2.311,-2.3714,-2.3774,-2.3459,-2.1334,-1.6776,0.0,0.0,0.0,0.0,0.0,0.0,0.0,0.0,0.0,0.0,0.0,0.0,0.0,0.0,0.0,0.0,0.0,0.0,0.0,0.0,0.0,0.0,0.0,0.0,0.0,0.0,0.0,0.0,0.0,0.0,0.0,0.0,0.0,0.0,0.0,0.0,0.0,0.0,0.0,0.0,0.0,0.0,0.0,0.0,0.0,0.0,0.0,0.0,0.0,0.0,0.0,0.0,0.0,0.0,0.0,0.0,0.0,0.0,0.0,0.0,0.0,0.0,0.0,0.0,0.0,0.0,0.0,0.0,0.0,0.0,0.0,0.0,0.0,0.0,0.0,0.0,0.0,0.0,0.0,0.0,0.0,0.0,0.0,0.0,0.0,0.0,0.0,0.0,0.0,0.0,0.0,0.0,0.0,0.0,0.0,0.0,0.0,0.0,0.0,0.0,0.0,0.0,0.0,-1.6035,-1.837,-2.2271,-2.2972,-2.3212,-2.3414,-2.3117,-2.103,-1.6551,-1.5627,0.0,0.0,0.0,0.0,0.0,0.0,0.0,0.0,0.0,0.0,0.0,0.0,0.0,0.0,0.0,0.0,0.0,0.0,0.0,0.0,0.0,0.0,0.0,0.0,0.0,0.0,0.0,0.0,0.0,0.0,0.0,0.0,0.0,0.0,0.0,0.0,0.0,0.0,0.0,0.0,0.0,0.0,0.0,0.0,0.0,0.0,0.0,0.0,0.0,0.0,0.0,0.0,0.0,0.0,0.0,0.0,0.0,0.0,0.0,0.0,0.0,0.0,0.0,0.0,0.0,0.0,0.0,0.0,0.0,0.0,0.0,0.0,0.0,0.0,0.0,0.0,0.0,0.0,0.0,0.0,0.0,0.0,0.0,0.0,0.0,0.0,0.0,0.0,0.0,0.0,0.0,0.0,0.0,0.0,0.0,0.0,0.0,0.0,0.0,0.0,0.0,0.0,-1.9046,-2.0433,-2.2384,-2.2643,-2.2797,-2.3069,-2.2848,-2.0802,-1.6378,-1.4932,0.0,0.0,0.0,0.0,0.0,0.0,0.0,0.0,0.0,0.0,0.0,0.0,0.0,0.0,0.0,0.0,0.0,0.0,0.0,0.0,0.0,0.0,0.0,0.0,0.0,0.0,0.0,0.0,0.0,0.0,0.0,0.0,0.0,0.0,0.0,0.0,0.0,0.0,0.0,0.0,0.0,0.0,0.0,0.0,0.0,0.0,0.0,0.0,0.0,0.0,0.0,0.0,0.0,0.0,0.0,0.0,0.0,0.0,0.0,0.0,0.0,0.0,0.0,0.0,0.0,0.0,0.0,0.0,0.0,0.0,0.0,0.0,0.0,0.0,0.0,0.0,0.0,0.0,0.0,0.0,0.0,0.0,0.0,0.0,0.0,0.0,0.0,0.0,0.0,0.0,0.0,0.0,0.0,0.0,0.0,0.0,0.0,0.0,0.0,0.0,0.0,0.0,-1.9486,-2.2124,-2.2304,-2.2563,-2.2721,-2.2746,-2.2721,-2.0802,-1.6378,-1.4452,0.0,0.0,0.0,0.0,0.0,0.0,0.0,0.0,0.0,0.0,0.0,0.0,0.0,0.0,0.0,0.0,0.0,0.0,0.0,0.0,0.0,0.0,0.0,0.0,0.0,0.0,0.0,0.0,0.0,0.0,0.0,0.0,0.0,0.0,0.0,0.0,0.0,0.0,0.0,0.0,0.0,0.0,0.0,0.0,0.0,0.0,0.0,0.0,0.0,0.0,0.0,0.0,0.0,0.0,0.0,0.0,0.0,0.0,0.0,0.0,0.0,0.0,0.0,0.0,0.0,0.0,0.0,0.0,0.0,0.0,0.0,0.0,0.0,0.0,0.0,0.0,0.0,0.0,0.0,0.0,0.0,0.0,0.0,0.0,0.0,0.0,0.0,0.0,0.0,0.0,0.0,0.0,0.0,0.0,0.0,0.0,0.0,0.0,0.0,0.0,0.0,0.0,-1.8285,-2.072,-2.2158,-2.2388,-2.2436,-2.2436,-2.2436,-2.0533,-1.6081,0.0,0.0,0.0,0.0,0.0,0.0,0.0,0.0,0.0,0.0,0.0,0.0,0.0,0.0,0.0,0.0,0.0,0.0,0.0,0.0,0.0,0.0,0.0,0.0,0.0,0.0,0.0,0.0,0.0,0.0,0.0,0.0,0.0,0.0,0.0,0.0,0.0,0.0,0.0,0.0,0.0,0.0,0.0,0.0,0.0,0.0,0.0,0.0,0.0,0.0,0.0,0.0,0.0,0.0,0.0,0.0,0.0,0.0,0.0,0.0,0.0,0.0,0.0,0.0,0.0,0.0,0.0,0.0,0.0,0.0,0.0,0.0,0.0,0.0,0.0,0.0,0.0,0.0,0.0,0.0,0.0,0.0,0.0,0.0,0.0,0.0,0.0,0.0,0.0,0.0,0.0,0.0,0.0,0.0,0.0,0.0,0.0,0.0,0.0,0.0,0.0,0.0,-1.5206,-1.8166,-2.0585,-2.2141,-2.231,-2.231,-2.231,-2.231,-2.0382,-1.5883,0.0,0.0,0.0,0.0,0.0,0.0,0.0,0.0,0.0,0.0,0.0,0.0,0.0,0.0,0.0,0.0,0.0,0.0,0.0,0.0,0.0,0.0,0.0,0.0,0.0,0.0,0.0,0.0,0.0,0.0,0.0,0.0,0.0,0.0,0.0,0.0,0.0,0.0,0.0,0.0,0.0,0.0,0.0,0.0,0.0,0.0,0.0,0.0,0.0,0.0,0.0,0.0,0.0,0.0,0.0,0.0,0.0,0.0,0.0,0.0,0.0,0.0,0.0,0.0,0.0,0.0,0.0,0.0,0.0,0.0,0.0,0.0,0.0,0.0,0.0,0.0,0.0,0.0,0.0,0.0,0.0,0.0,0.0,0.0,0.0,0.0,0.0,0.0,0.0,0.0,0.0,0.0,0.0,0.0,0.0,0.0,0.0,0.0,0.0,0.0,0.0,0.0,-1.5409,-1.9519,-2.231,-2.231,-2.231,-2.231,-2.231,-2.231,-2.0382,0.0,0.0,0.0,0.0,0.0,0.0,0.0,0.0,0.0,0.0,0.0,0.0,0.0,0.0,0.0,0.0,0.0,0.0,0.0,0.0,0.0,0.0,0.0,0.0,0.0,0.0,0.0,0.0,0.0,0.0,0.0,0.0,0.0,0.0,0.0,0.0,0.0,0.0,0.0,0.0,0.0,0.0,0.0,0.0,0.0,0.0,0.0,0.0,0.0,0.0,0.0,0.0,0.0,0.0,0.0,0.0,0.0,0.0,0.0,0.0,0.0,0.0,0.0,0.0,0.0,0.0,0.0,0.0,0.0,0.0,0.0,0.0,0.0,0.0,0.0,0.0,0.0,0.0,0.0,0.0,0.0,0.0,0.0,0.0,0.0,0.0,0.0,0.0,0.0,0.0,0.0,0.0,0.0,0.0,0.0,0.0,0.0,0.0,0.0,0.0,0.0,0.0,0.0,-1.5409,-1.9519,-2.231,-2.231,-2.231,-2.231,-2.231,-2.231,-2.0382,-1.5883,0.0,0.0,0.0,0.0,0.0,0.0,0.0,0.0,0.0,0.0,0.0,0.0,0.0,0.0,0.0,0.0,0.0,0.0,0.0,0.0,0.0,0.0,0.0,0.0,0.0,0.0,0.0,0.0,0.0,0.0,0.0,0.0,0.0,0.0,0.0,0.0,0.0,0.0,0.0,0.0,0.0,0.0,0.0,0.0,0.0,0.0,0.0,0.0,0.0,0.0,0.0,0.0,0.0,0.0,0.0,0.0,0.0,0.0,0.0,0.0,0.0,0.0,0.0,0.0,0.0,0.0,0.0,0.0,0.0,0.0,0.0,0.0,0.0,0.0,0.0,0.0,0.0,0.0,0.0,0.0,0.0,0.0,0.0,0.0,0.0,0.0,0.0,0.0,0.0,0.0,0.0,0.0,0.0,0.0,0.0,0.0,0.0,0.0,0.0,0.0,0.0,0.0,-1.5409,-1.9519,-2.231,-2.231,-2.231,-2.231,-2.231,-2.231,-2.0771,-1.7134,0.0,0.0,0.0,0.0,0.0,0.0,0.0,0.0,0.0,0.0,0.0,0.0,0.0,0.0,0.0,0.0,0.0,0.0,0.0,0.0,0.0,0.0,0.0,0.0,0.0,0.0,0.0,0.0,0.0,0.0,0.0,0.0,0.0,0.0,0.0,0.0,0.0,0.0,0.0,0.0,0.0,0.0,0.0,0.0,0.0,0.0,0.0,0.0,0.0,0.0,0.0,0.0,0.0,0.0,0.0,0.0,0.0,0.0,0.0,0.0,0.0,0.0,0.0,0.0,0.0,0.0,0.0,0.0,0.0,0.0,0.0,0.0,0.0,0.0,0.0,0.0,0.0,0.0,0.0,0.0,0.0,0.0,0.0,0.0,0.0,0.0,0.0,0.0,0.0,0.0,0.0,0.0,0.0,0.0,0.0,0.0,0.0,0.0,0.0,0.0,0.0,0.0,-1.537,-1.9495,-2.2282,-2.218,-2.2209,-2.2237,-2.2237,-2.2237,-2.1275,-1.9046,0.0,0.0,0.0,0.0,0.0,0.0,0.0,0.0,0.0,0.0,0.0,0.0,0.0,0.0,0.0,0.0,0.0,0.0,0.0,0.0,0.0,0.0,0.0,0.0,0.0,0.0,0.0,0.0,0.0,0.0,0.0,0.0,0.0,0.0,0.0,0.0,0.0,0.0,0.0,0.0,0.0,0.0,0.0,0.0,0.0,0.0,0.0,0.0,0.0,0.0,0.0,0.0,0.0,0.0,0.0,0.0,0.0,0.0,0.0,0.0,-1.5917,-1.3067,0.0,0.0,0.0,0.0,0.0,0.0,0.0,0.0,0.0,0.0,0.0,0.0,0.0,0.0,0.0,0.0,0.0,0.0,0.0,0.0,0.0,0.0,0.0,0.0,0.0,0.0,0.0,0.0,0.0,0.0,0.0,0.0,0.0,0.0,0.0,0.0,0.0,0.0,0.0,0.0,-1.4973,-1.9345,-2.2049,-2.1354,-2.1568,-2.1764,-2.1764,-2.1764,-2.0933,-1.9005,-1.7319,0.0,0.0,0.0,0.0,0.0,0.0,0.0,0.0,0.0,0.0,0.0,0.0,0.0,0.0,0.0,0.0,0.0,0.0,0.0,0.0,0.0,0.0,0.0,0.0,0.0,0.0,0.0,0.0,0.0,0.0,0.0,0.0,0.0,0.0,0.0,0.0,0.0,0.0,0.0,0.0,0.0,0.0,0.0,0.0,0.0,0.0,0.0,0.0,0.0,0.0,0.0,0.0,0.0,0.0,0.0,0.0,0.0,0.0,0.0,-1.7799,-1.6181,0.0,0.0,0.0,0.0,0.0,0.0,0.0,0.0,0.0,0.0,0.0,0.0,0.0,0.0,0.0,0.0,0.0,0.0,0.0,0.0,0.0,0.0,0.0,0.0,0.0,0.0,0.0,0.0,0.0,0.0,0.0,0.0,0.0,0.0,0.0,0.0,0.0,0.0,0.0,0.0,-1.4793,-1.889,-2.1584,-2.1306,-2.1306,-2.1399,-2.1582,-2.1582,-2.1105,-1.997,-1.8208,0.0,0.0,0.0,0.0,0.0,0.0,0.0,0.0,0.0,0.0,0.0,0.0,0.0,0.0,0.0,0.0,0.0,0.0,0.0,0.0,0.0,0.0,0.0,0.0,0.0,0.0,0.0,0.0,0.0,0.0,0.0,0.0,0.0,0.0,0.0,0.0,0.0,0.0,0.0,0.0,0.0,0.0,0.0,0.0,0.0,0.0,0.0,0.0,0.0,0.0,0.0,0.0,0.0,-1.8833,-1.9023,-1.9023,-1.9023,-2.0177,-2.2034,-1.9871,-1.9892,-2.1052,-1.6695,0.0,0.0,0.0,0.0,0.0,0.0,0.0,0.0,0.0,0.0,0.0,0.0,0.0,0.0,0.0,0.0,0.0,0.0,0.0,0.0,0.0,0.0,-1.6109,-1.6055,-1.7518,-1.7922,-1.4397,0.0,0.0,0.0,0.0,0.0,0.0,0.0,0.0,0.0,0.0,0.0,-1.515,-1.8676,-2.1055,-2.1228,-2.1039,-2.1023,-2.1368,-2.146,-2.1337,-2.1023,-1.903,-1.749,0.0,0.0,0.0,0.0,0.0,0.0,0.0,0.0,0.0,0.0,0.0,0.0,0.0,0.0,0.0,0.0,0.0,0.0,0.0,0.0,0.0,0.0,0.0,0.0,0.0,0.0,0.0,0.0,0.0,0.0,0.0,0.0,-1.7424,-1.7569,0.0,0.0,0.0,0.0,0.0,0.0,0.0,0.0,0.0,0.0,0.0,0.0,0.0,-1.7667,-1.7904,-1.998,-2.1012,-2.1031,-2.3254,-2.4303,-2.4303,-2.4303,-2.4476,-2.4784,-2.4438,0.0,-2.134,-2.0465,0.0,0.0,0.0,0.0,0.0,0.0,0.0,0.0,0.0,0.0,0.0,0.0,0.0,0.0,0.0,0.0,0.0,0.0,0.0,0.0,0.0,0.0,-2.1225,-2.0813,-2.0957,-2.0921,-2.0029,-1.6297,-1.3059,-1.2753,-1.2164,-1.1085,0.0,0.0,0.0,0.0,0.0,0.0,-1.694,-1.9443,-2.0731,-2.0015,-2.0227,-2.0416,-2.0483,-2.0846,-2.1071,-2.0991,-2.0686,-1.9524,-1.7387,-1.6126,0.0,0.0,0.0,0.0,0.0,0.0,0.0,0.0,0.0,0.0,0.0,0.0,0.0,0.0,0.0,0.0,0.0,0.0,0.0,0.0,0.0,0.0,0.0,0.0,0.0,0.0,0.0,0.0,0.0,-1.6682,-1.7708,-1.9185,-1.7455,-1.5605,0.0,0.0,0.0,0.0,0.0,0.0,0.0,0.0,0.0,-2.0801,-2.0801,-2.1219,-2.2161,-2.3141,-2.3639,-2.3658,-2.4764,-2.5303,-2.5303,-2.5303,-2.5303,-2.5303,-2.5303,-2.4639,-2.3458,-2.1904,-2.0232,-1.8513,0.0,0.0,0.0,0.0,-1.6948,-1.678,-1.9209,-1.9682,-1.9056,-1.8038,0.0,0.0,0.0,0.0,0.0,0.0,0.0,-1.6133,-1.8074,-1.9529,-2.0686,-2.142,-2.1582,-2.1491,-2.1086,-1.9206,-1.7207,-1.5936,-1.4948,-1.3388,-1.0364,-1.0435,0.0,0.0,0.0,-1.5959,-1.7765,-1.9755,-2.0926,-2.0781,-2.0715,-2.0781,-2.1007,-2.1023,-2.0894,-2.0616,-2.0616,-2.0026,-1.8735,-1.7166,-1.472,0.0,0.0,0.0,0.0,0.0,0.0,0.0,0.0,0.0,0.0,0.0,0.0,0.0,0.0,0.0,0.0,0.0,0.0,0.0,0.0,0.0,0.0,0.0,0.0,0.0,0.0,0.0,0.0,-1.8348,-1.9227,-2.0967,-1.9483,-1.7576,0.0,0.0,0.0,0.0,0.0,0.0,-2.0254,-2.0488,-2.1582,-2.3691,-2.3698,-2.4252,-2.5493,-2.5406,-2.533,-2.5303,-2.5322,-2.5322,-2.5303,-2.5303,-2.5303,-2.5303,-2.5303,-2.5303,-2.5149,-2.3189,-2.2162,-2.163,-1.9687,-1.8697,-1.8504,-1.9573,-1.9479,-1.9183,-2.1916,-2.2374,-2.1618,-2.082,-2.0115,-1.9161,-1.6775,0.0,0.0,0.0,0.0,-1.7648,-1.9532,-1.9983,-2.0238,-2.1482,-2.1794,-2.1705,-2.1385,-2.1176,-2.0503,-1.8647,-1.7697,-1.607,-1.2546,-1.2715,0.0,-1.2858,-1.5062,-1.7343,-1.8958,-2.0243,-2.1118,-2.1399,-2.1086,-2.0943,-2.1228,-2.0975,-2.0632,-2.0193,-2.0246,-2.0124,-1.9726,-1.8268,-1.6749,-1.5224,0.0,0.0,0.0,0.0,0.0,0.0,0.0,0.0,0.0,0.0,0.0,0.0,0.0,0.0,0.0,0.0,0.0,0.0,0.0,0.0,0.0,0.0,0.0,0.0,0.0,0.0,0.0,0.0,0.0,-2.304,-2.2867,0.0,0.0,0.0,0.0,-1.9073,-2.068,-2.207,-2.2969,-2.373,-2.457,-2.5547,-2.5496,-2.5483,-2.5493,-2.5484,-2.5421,-2.5303,-2.5363,-2.5354,-2.5303,-2.5303,-2.5303,-2.5303,-2.5303,-2.5303,-2.5284,-2.5168,-2.4178,-2.2716,-2.2581,-2.1581,-2.0369,-2.2004,-2.2562,-2.2728,-2.4176,-2.4639,-2.4527,-2.4099,-2.2354,-2.0411,-2.0246,-1.8632,0.0,0.0,-1.964,-1.9903,-2.1982,-2.2329,-2.2175,-2.2248,-2.2254,-2.2254,-2.2237,-2.168,-2.1005,-2.0316,-2.0131,-1.9367,-1.7044,0.0,-1.7029,-1.7808,-1.7701,-1.8483,-2.1095,-2.1179,-2.1007,-2.1039,-2.0616,-2.0348,-2.0366,-2.0348,-2.0158,-1.9747,-2.0089,-2.0124,-1.9726,-1.9585,-1.8343,-1.5815,-1.5197,0.0,0.0,0.0,0.0,0.0,0.0,0.0,0.0,0.0,0.0,0.0,0.0,0.0,0.0,0.0,0.0,0.0,0.0,0.0,0.0,0.0,0.0,0.0,0.0,0.0,0.0,0.0,0.0,-2.3081,-2.3062,0.0,-2.0177,-2.1302,-2.2042,-2.173,-2.3356,-2.4473,-2.4785,-2.5078,-2.5371,-2.5684,-2.5634,-2.5595,-2.5561,-2.5488,-2.5401,-2.5352,-2.5329,-2.5312,-2.5303,-2.5303,-2.5312,-2.5363,-2.5371,-2.5391,-2.5428,-2.5428,-2.5027,-2.4409,-2.4409,-2.4043,-2.3592,-2.4197,-2.4331,-2.4274,-2.4661,-2.4716,-2.4559,-2.4284,-2.3602,-2.2887,-2.2887,-2.2281,-2.1679,-2.2013,-2.2143,-2.2317,-2.2638,-2.2634,-2.2563,-2.2563,-2.2426,-2.231,-2.231,-2.209,-2.1685,-2.0911,-2.0368,-1.9342,-1.7182,-1.7887,-1.8588,-1.8168,-1.9077,-2.0326,-2.1874,-2.1915,-2.1857,-2.1857,-2.1399,-2.1134,-2.1134,-2.0634,-2.0246,-2.0089,-1.9965,-1.9839,-1.9726,-1.969,-1.9084,-1.7826,-1.7624,-1.556,0.0,0.0,0.0,0.0,0.0,0.0,0.0,0.0,0.0,0.0,0.0,0.0,0.0,0.0,0.0,0.0,0.0,0.0,0.0,0.0,0.0,0.0,0.0,0.0,0.0,-2.223,-2.3388,-2.3032,-2.3528,-2.3188,-2.1413,-2.2848,-2.3883,-2.3917,-2.5008,-2.5682,-2.5703,-2.5977,-2.6133,-2.6133,-2.6383,-2.649,-2.6481,-2.642,-2.6368,-2.6301,-2.596,-2.5788,-2.5772,-2.5447,-2.5312,-2.5371,-2.5391,-2.5408,-2.5434,-2.5473,-2.5434,-2.533,-2.533,-2.5322,-2.5303,-2.5303,-2.5214,-2.5077,-2.4917,-2.4756,-2.4575,-2.4462,-2.4357,-2.4303,-2.4303,-2.4247,-2.4094,-2.3671,-2.3628,-2.3588,-2.3141,-2.2873,-2.2695,-2.2695,-2.25,-2.231,-2.231,-2.231,-2.2077,-2.1354,-2.0702,-1.9752,-1.801,-1.8944,-1.9636,-1.8754,-2.0086,-2.1395,-2.1872,-2.2158,-2.231,-2.231,-2.1899,-2.1582,-2.1582,-2.0194,-1.9684,-2.0469,-1.9528,-1.9212,-1.9879,-1.9258,-1.8691,-1.8171,-1.782,-1.5505,-1.1176,0.0,0.0,0.0,0.0,0.0,0.0,0.0,0.0,0.0,0.0,0.0,0.0,0.0,0.0,0.0,0.0,0.0,0.0,0.0,0.0,0.0,0.0,0.0,-2.2878,-2.3774,-2.4021,-2.3184,-2.4452,-2.4764,-2.3122,-2.4455,-2.5428,-2.5489,-2.56,-2.5672,-2.5742,-2.6562,-2.7031,-2.7031,-2.7851,-2.8279,-2.8203,-2.8279,-2.8232,-2.8082,-2.7255,-2.681,-2.6713,-2.5792,-2.538,-2.539,-2.5453,-2.5456,-2.5399,-2.5492,-2.551,-2.5444,-2.5418,-2.5354,-2.5293,-2.5303,-2.5303,-2.5264,-2.5077,-2.4917,-2.4804,-2.4804,-2.467,-2.4495,-2.4495,-2.4357,-2.419,-2.419,-2.3976,-2.3714,-2.3692,-2.3212,-2.2721,-2.2721,-2.25,-2.231,-2.231,-2.231,-2.2163,-2.1688,-2.1275,-2.0731,-1.9889,-2.0054,-2.0231,-1.9987,-2.0898,0.0,-2.1285,-2.1854,-2.2293,-2.2276,-2.1866,-2.1565,-2.1565,-1.9042,-1.8462,-2.0831,-1.8775,-1.8314,-2.0203,-1.8485,-1.7239,-1.677,-1.5712,-1.4173,-1.2128,0.0,0.0,0.0,0.0,0.0,0.0,0.0,0.0,0.0,0.0,0.0,0.0,0.0,0.0,0.0,0.0,0.0,0.0,0.0,0.0,0.0,-2.1481,-2.2654,-2.2955,-2.4252,-2.506,-2.4768,-2.5129,-2.5201,-2.4696,-2.51,-2.5421,-2.5484,-2.6146,-2.6571,-2.664,-2.7461,-2.7949,-2.7949,-2.8184,-2.8281,-2.828,-2.8235,-2.8205,-2.8168,-2.7881,-2.7736,-2.7721,-2.7445,-2.7365,-2.7405,-2.7422,-2.7418,-2.7357,-2.6766,-2.6474,-2.6359,-2.5679,-2.5383,-2.5379,-2.5322,-2.5214,-2.5057,-2.5022,-2.4917,-2.4804,-2.4804,-2.467,-2.4495,-2.4495,-2.4357,-2.4151,-2.3917,-2.3955,-2.3996,-2.3756,-2.3392,-2.3069,-2.3069,-2.2686,-2.231,-2.231,-2.231,-2.2163,-2.1688,-2.1521,-2.1275,-2.0731,-2.0731,-2.0895,-2.1108,-2.1406,-2.1698,-2.195,-2.2175,-2.2107,-2.1549,-2.1083,-2.0792,-2.0792,-1.9497,-1.9214,-2.042,-1.9584,-1.9299,-1.9844,-1.9345,-1.8649,-1.7735,-1.551,-1.3854,0.0,0.0,0.0,0.0,0.0,0.0,0.0,0.0,0.0,0.0,0.0,0.0,0.0,0.0,0.0,0.0,0.0,0.0,0.0,0.0,0.0,0.0,-2.3083,-2.3929,-2.3966,-2.4833,-2.5434,-2.5371,-2.5363,-2.5329,-2.5293,-2.5658,-2.5936,-2.5997,-2.684,-2.7406,-2.7493,-2.8334,-2.8826,-2.8848,-2.9199,-2.9394,-2.9394,-2.9352,-2.9329,-2.9329,-2.8892,-2.8696,-2.8677,-2.8286,-2.8115,-2.8161,-2.8196,-2.8173,-2.8119,-2.7661,-2.7457,-2.7253,0.0,0.0,0.0,0.0,-2.5255,-2.5141,-2.5141,-2.5072,-2.5019,-2.5019,-2.4828,-2.4623,-2.4623,-2.4428,-2.417,-2.3958,-2.4054,-2.4151,-2.3976,-2.3566,-2.3189,-2.3189,-2.2738,-2.231,-2.231,-2.231,-2.2209,-2.1957,-2.1899,0.0,-2.1584,-2.1385,-2.124,-2.1141,-2.1566,-2.1886,-2.1843,-2.2124,-2.2141,-2.1701,-2.1424,-2.1249,-2.1249,-1.967,0.0,0.0,0.0,-1.8733,-1.8733,-1.835,0.0,0.0,0.0,-1.4419,-1.4927,-1.3039,0.0,0.0,-1.2794,-1.1779,0.0,0.0,0.0,0.0,0.0,0.0,0.0,0.0,0.0,0.0,0.0,0.0,0.0,0.0,0.0,0.0,-2.4341,-2.5437,-2.5437,-2.5569,-2.5614,-2.5476,-2.5534,-2.5591,-2.5591,-2.6294,-2.6766,-2.6842,-2.7655,-2.8191,-2.8317,-2.9143,0.0,0.0,0.0,-3.0879,-3.0898,-3.0898,-3.0898,-3.0898,-3.0051,-2.9652,-2.9632,-2.8801,-2.8431,-2.8411,-2.8488,-2.846,-2.8407,-2.8429,-2.8335,-2.8023,-2.6318,-2.5644,-2.5629,-2.5446,-2.5346,-2.5303,-2.5303,0.0,0.0,-2.5303,-2.5072,-2.4814,-2.4814,-2.4543,-2.4228,-2.4228,-2.4209,-2.419,-2.419,-2.3714,-2.3253,-2.3212,-2.2773,-2.2349,-2.231,-2.231,-2.231,-2.231,-2.231,-2.231,-2.231,-2.1957,-2.1474,-2.0813,-2.1613,-2.2073,-2.1397,-2.1904,-2.2276,-2.2192,-2.2192,0.0,-2.2119,-1.9707,-1.9151,-2.133,-1.9083,-1.7663,-1.7663,-1.6745,-1.6255,-1.6255,-1.5194,-1.5491,-1.7188,-1.6667,-1.638,-1.628,-1.1274,-1.0321,0.0,0.0,0.0,0.0,0.0,0.0,0.0,0.0,0.0,0.0,0.0,0.0,0.0,0.0,0.0,-2.3449,-2.5146,-2.6351,-2.6351,-2.6968,-2.7151,-2.6428,-2.6967,-2.739,-2.739,-2.7544,-2.7672,-2.7744,-2.8523,-2.9004,-2.9074,-2.9902,-3.0423,-3.0489,-3.0645,-3.0792,-3.0898,-3.0898,-3.0898,-3.0898,-3.0722,0.0,-3.0624,-3.0447,-3.0368,-3.0368,-3.037,-3.0305,-3.0141,-2.9513,-2.8852,-2.8081,-2.6985,-2.6518,-2.6371,-2.5588,-2.5313,-2.5303,-2.5303,-2.5303,-2.5303,-2.5303,-2.5141,-2.4962,-2.4962,-2.4723,0.0,-2.4426,-2.4339,-2.419,-2.419,-2.3896,-2.3544,-2.3259,-2.2898,-2.2563,-2.2349,-2.231,-2.231,-2.231,-2.231,-2.231,-2.231,-2.2209,-2.213,-2.1978,-2.2153,-2.226,-2.2124,-2.2226,-2.2073,-2.1465,-2.1397,-2.1255,-2.087,-2.0043,-1.9828,-2.052,-1.9737,-1.928,-1.928,-1.8258,-1.7696,-1.7696,-1.6663,-1.6279,-1.6637,-1.6039,-1.5764,-1.5752,-1.4671,-1.4684,0.0,0.0,0.0,0.0,0.0,0.0,0.0,0.0,0.0,0.0,0.0,-2.0904,-2.1755,0.0,-2.3893,-2.4331,-2.5653,-2.6601,-2.6601,-2.7698,-2.8179,-2.7351,-2.7621,-2.789,-2.789,-2.8255,-2.8519,-2.856,-2.9342,-2.9834,-2.9904,-3.0307,-3.0581,-3.0657,-3.0684,-3.0723,-3.0793,-3.0878,-3.0898,-3.0898,-3.0898,-3.0898,-3.0898,-3.0898,-3.0898,-3.0898,-3.0898,-3.0858,-3.0774,-3.0365,-2.9937,-2.9466,-2.8522,-2.7844,-2.7343,-2.6861,-2.6387,-2.5947,-2.5947,-2.5649,-2.5303,-2.5303,-2.5163,-2.501,-2.501,-2.478,-2.4495,-2.4495,-2.4375,-2.419,-2.419,-2.3937,-2.3628,-2.3277,-2.2947,-2.2643,-2.2527,-2.25,-2.25,-2.25,-2.25,-2.2463,-2.2321,-2.231,-2.231,-2.231,-2.231,-2.231,-2.231,-2.231,-2.2175,-2.1786,-2.1752,-2.1653,-2.1406,-2.0833,-2.04,-2.0299,-1.9909,-1.969,-1.969,-1.865,-1.8106,-1.8106,-1.7034,-1.6522,-1.6522,-1.6194,-1.6051,-1.6051,-1.5732,-1.5764,0.0,0.0,0.0,0.0,0.0,0.0,0.0,-1.7928,-1.8298,-1.9882,-2.1177,-2.2209,-2.2868,-2.4057,-2.4962,-2.4962,-2.588,-2.6659,-2.6832,-2.814,-2.8909,-2.8448,-2.839,-2.839,-2.839,-2.8967,-2.9321,-2.9267,-2.9939,-3.0352,-3.0404,-3.0404,-3.046,-3.0575,-3.0624,-3.0677,-3.0696,-3.0814,-3.0879,-3.0898,-3.0898,-3.0898,-3.0898,-3.0898,-3.0898,-3.0898,-3.0898,-3.0898,-3.0898,-3.0898,-3.0898,-3.082,-3.0071,-2.9279,-2.8559,-2.8218,-2.7588,-2.6881,-2.6698,-2.6178,-2.5551,-2.537,-2.5206,-2.5091,-2.5057,-2.4818,-2.4561,-2.4561,-2.4393,-2.419,-2.419,-2.3996,-2.3714,-2.3369,-2.3093,-2.2873,-2.2822,-2.2797,-2.2772,-2.2721,-2.2746,-2.2686,-2.2349,-2.2349,-2.236,-2.231,-2.231,-2.231,-2.231,-2.231,-2.231,-2.231,-2.231,-2.2254,-2.2163,-2.1446,-2.0797,-2.0348,-2.0,-1.9782,-1.969,-1.865,-1.8106,-1.8106,-1.7034,-1.6522,-1.6522,-1.6522,-1.6522,-1.6479,-1.5864,-1.5676,-1.9529,-1.8599,-1.7845,-1.8488,-1.8172,-1.8409,0.0,-2.0881,-2.0558,-2.2052,-2.2939,-2.3482,-2.3572,-2.4278,-2.4814,-2.4814,-2.581,-2.6871,-2.764,-2.8525,-2.9352,-3.0044,-3.0121,-3.0121,-3.0121,-3.0198,-3.0157,-2.9909,-3.0004,-3.0042,-3.007,-3.007,-3.0208,-3.0496,-3.0513,-3.0581,-3.0693,-3.0718,-3.0772,-3.0898,-3.0898,-3.0898,-3.0898,-3.0898,-3.0898,-3.0898,-3.0898,-3.0898,-3.0898,-3.0898,-3.0898,-3.0898,-3.0781,-3.0618,-3.0216,-2.868,-2.8028,-2.7818,-2.7054,-2.6704,-2.6498,-2.566,-2.5364,-2.5352,-2.5284,-2.5024,-2.4775,-2.4775,-2.4495,-2.419,-2.419,-2.417,-2.4074,-2.3714,-2.3628,-2.3522,-2.3212,-2.3141,-2.3069,-2.2772,-2.2947,-2.2965,-2.2405,-2.25,-2.2573,-2.2349,-2.231,-2.231,-2.231,-2.231,-2.231,-2.231,-2.231,-2.2135,-2.1718,-2.1244,-2.0797,-2.0348,-2.0246,-2.0054,-1.9711,-1.865,-1.8106,-1.8106,-1.7034,-1.6522,-1.6522,-1.6522,-1.6522,-1.6479,-1.5864,-1.5908,-2.1174,-2.0906,-2.0399,-2.0264,-2.0331,-2.0653,-2.1465,-2.1589,-2.1712,-2.2327,-2.2815,-2.3165,-2.3369,-2.3909,-2.4601,-2.5363,-2.6447,-2.7512,-2.8456,-2.9313,-2.9987,-3.0359,-3.0398,-3.0398,-3.0398,-3.0398,-3.0355,-3.0241,-3.0222,-3.0163,-3.0013,-3.015,-3.0228,-3.0208,-3.0404,-3.0529,-3.0587,-3.0614,-3.0696,-3.0772,-3.0772,-3.0817,-3.0898,-3.0898,-3.0898,-3.0898,-3.0898,-3.0898,-3.0898,-3.0898,-3.0898,-3.0898,-3.0898,-3.0566,-3.0012,-2.9712,-2.9288,-2.8729,-2.7868,-2.7225,-2.6656,-2.5719,-2.5406,-2.5403,-2.5322,-2.5118,-2.4904,-2.4814,-2.4591,-2.4339,-2.4228,-2.419,-2.4132,-2.3774,-2.3692,-2.3671,-2.3522,-2.35,-2.3437,-2.3323,-2.3392,-2.3346,-2.2908,-2.2738,-2.2643,-2.2563,-2.2415,-2.231,-2.231,-2.231,-2.231,-2.231,-2.231,-2.2209,-2.2032,-2.1598,-2.1181,-2.0715,-2.0449,-2.0124,-1.9726,-1.8968,-1.8419,-1.8106,-1.7353,-1.6795,-1.6522,-1.6522,-1.6522,-1.6479,-1.5864,-1.5732,-2.1697,-2.2057,-2.2124,-2.1363,-2.1752,-2.2175,-2.1617,-2.1921,-2.231,-2.231,-2.2581,-2.2923,-2.3165,-2.3889,-2.4782,-2.5759,-2.6786,-2.7859,-2.8867,-2.955,-3.0074,-3.0359,-3.0398,-3.0398,-3.0398,-3.0398,-3.0367,-3.0299,-3.0299,-3.0209,-3.0013,-3.0122,-3.0169,-3.0103,-3.0267,-3.0414,-3.0498,-3.0559,-3.0611,-3.0677,-3.069,-3.0747,-3.0857,-3.0879,-3.0898,-3.0898,-3.0898,-3.0898,-3.0898,-3.0898,-3.0898,-3.0898,-3.0898,-3.0371,-2.9668,-3.0206,-2.9991,-2.934,-2.8459,-2.7741,-2.7012,-2.5815,-2.5428,-2.542,-2.534,-2.513,-2.4911,-2.4828,-2.4607,-2.4393,-2.4247,-2.419,-2.4151,-2.3896,-2.3837,-2.3837,-2.3837,-2.3837,-2.3816,-2.3714,-2.3774,-2.3692,-2.3259,-2.3069,-2.2923,-2.2721,-2.2537,-2.2388,-2.231,-2.231,-2.231,-2.231,-2.231,-2.231,-2.231,-2.1869,-2.143,-2.1039,-2.055,-2.0124,-1.9726,-1.9043,-1.8496,-1.8106,-1.7422,-1.6879,-1.6522,-1.6522,-1.6522,-1.6466,-1.5688,-1.5365,-2.092,-2.1406,-2.2124,-2.1363,-2.1752,-2.231,-2.2276,-2.2293,-2.231,-2.231,-2.2773,-2.3189,-2.3189,-2.4545,-2.5651,-2.5706,-2.6551,-2.7592,-2.8651,-2.8831,-2.9224,-3.0271,-3.0398,-3.0398,-3.0398,-3.0398,-3.0299,-3.0028,-3.0013,-3.0013,-2.9999,-2.9813,-2.9931,-3.0367,-3.015,-3.0171,-3.0498,-3.0507,-3.0537,-3.0606,-3.0673,-3.0696,-3.0718,-3.0837,-3.0898,-3.0898,-3.0898,-3.0898,-3.0898,-3.0898,-3.0898,-3.0898,-3.0898,-3.0371,-2.9609,-2.9629,-2.9629,-2.9473,-2.8594,-2.8281,-2.7947,-2.6092,-2.5508,-2.5463,-2.5348,-2.508,-2.4804,-2.4804,-2.4512,-2.4209,-2.419,-2.419,-2.4208,-2.419,-2.419,-2.419,-2.419,-2.419,-2.4094,-2.3756,-2.3958,-2.3976,-2.3305,-2.3459,-2.3437,-2.2797,-2.2695,-2.2599,-2.2321,-2.231,-2.231,-2.231,-2.231,-2.231,-2.231,-2.1869,-2.143,-2.1039,-2.055,-2.0124,-1.9726,-1.8688,-1.8145,-1.8106,-1.7076,-1.6522,-1.6522,-1.6522,-1.6522,-1.6466,-1.5287,-1.4744,-2.1765,-2.2261,-2.2695,-2.3232,-2.3207,-2.3038,-2.3038,-2.2649,-2.231,-2.231,-2.247,-2.2894,-2.383,-2.4467,-2.5394,-2.7027,-2.7569,-2.8163,-2.9252,-2.9399,-2.9573,-3.0084,-3.0136,-3.0209,-3.0379,-3.0398,-3.0299,-3.0013,-2.9999,-2.9939,-2.9813,-2.9748,-2.9829,-3.0136,-3.0061,-3.0144,-3.0419,-3.0419,-3.0472,-3.0537,-3.0606,-3.0624,-3.0643,-3.0681,-3.0708,-3.0708,-3.0708,-3.0708,-3.0693,-3.074,-3.0769,-3.0771,-3.0878,-3.0019,-2.8809,-2.9394,-2.8867,-2.7832,-2.7539,-2.7401,-2.7153,-2.5909,-2.5463,-2.5415,-2.5321,-2.5222,-2.5091,-2.4874,-2.47,-2.4545,-2.4266,-2.419,-2.419,-2.419,-2.419,-2.419,-2.419,-2.419,-2.417,-2.4036,-2.4113,-2.4132,-2.3896,-2.3774,-2.3544,-2.3093,-2.2695,-2.2398,-2.231,-2.231,-2.231,-2.231,-2.231,-2.231,-2.231,-2.2152,-2.1781,-2.1039,-2.0862,-2.0431,-1.9726,-1.9006,-1.8458,-1.8106,-1.7394,-1.6879,-1.6522,-1.6095,-1.5908,-1.5864,-1.5062,-1.4468,-2.1858,-2.2508,-2.3014,-2.3962,-2.3656,-2.315,-2.3363,-2.2835,-2.231,-2.231,-2.2388,-2.2762,-2.3788,-2.4533,-2.5654,-2.7666,-2.847,-2.9109,-2.9908,-3.0021,-3.0,-2.9915,-2.9893,-2.9973,-3.0128,-3.0142,-3.0109,-3.0013,-2.9999,-2.9908,-2.9713,-2.9625,-2.9678,-2.9893,-2.9893,-3.0018,-3.0254,-3.0355,-3.0419,-3.0498,-3.0533,-3.0575,-3.0606,-3.0606,-3.0606,-3.0606,-3.0606,-3.0606,-3.0606,-3.0652,-3.065,-3.0673,-3.079,-2.9782,-2.8336,-2.8925,-2.8027,-2.6582,-2.6894,-2.6971,-2.6782,-2.5812,-2.5463,-2.5415,-2.5321,-2.5253,-2.5141,-2.493,-2.4828,-2.4746,-2.4478,-2.4409,-2.4393,-2.4321,-2.4303,-2.4284,-2.4209,-2.419,-2.419,-2.419,-2.419,-2.419,-2.419,-2.3917,-2.3588,-2.3236,-2.2755,-2.2436,-2.2436,-2.2377,-2.231,-2.231,-2.231,-2.231,-2.231,-2.202,-2.1584,-2.1039,-2.0698,-2.0193,-1.9442,-1.8893,-1.838,-1.7827,-1.7312,-1.674,-1.6194,-1.5776,-1.5499,-1.5276,-1.4652,-1.419,-2.1368,-2.22,-2.3183,-2.3719,-2.326,-2.2828,-2.3338,-2.2868,-2.231,-2.231,-2.2466,-2.2745,-2.3141,-2.4718,-2.6312,-2.75,-2.903,-3.0134,-3.0463,-3.0506,-3.0312,-2.9755,-2.9678,-2.9696,-2.9696,-2.9696,-2.9763,-2.9954,-2.9969,-2.9893,-2.9696,-2.9494,-2.9474,-2.9696,-2.9696,-2.978,-2.9984,-3.0254,-3.0409,-3.0461,-3.0461,-3.0502,-3.0594,-3.0587,-3.0587,-3.0594,-3.0594,-3.0594,-3.0594,-3.0594,-3.06,-3.0606,-3.0673,-2.9676,-2.8218,-2.8279,-2.7187,-2.582,-2.6641,-2.6934,-2.6776,-2.5823,-2.5493,-2.5488,-2.5337,-2.5184,-2.5015,-2.5003,-2.4911,-2.4799,-2.4804,-2.4804,-2.476,-2.4559,-2.4512,-2.4461,-2.4266,-2.4228,-2.4209,-2.4209,-2.4209,-2.419,-2.419,-2.3937,-2.3628,-2.33,-2.2972,-2.2721,-2.2695,-2.2463,-2.231,-2.231,-2.231,-2.231,-2.231,-2.1524,-2.1023,-2.0991,-2.0174,-1.9442,-1.893,-1.838,-1.7827,-1.7312,-1.6752,-1.6194,-1.5588,-1.5543,-1.5231,-1.4652,-1.4061,-1.3732,-2.2318,-2.3291,-2.4216,-2.558,-2.4975,-2.4048,-2.4205,-2.3224,-2.231,-2.231,-2.1919,-2.191,-2.2988,-2.3435,-2.4258,-2.6152,-2.7356,-2.8258,-2.887,-2.9208,-2.9425,-2.9472,-2.9493,-2.9551,-2.9678,-2.9696,-2.9661,-2.9551,-2.9551,-2.9532,-2.9493,-2.9246,-2.9291,-2.9696,-2.9551,-2.957,-2.9763,-3.0003,-3.0098,-3.0132,-3.0132,-3.0239,-3.0432,-3.0244,-3.0256,-3.0462,-3.0462,-3.0462,-3.0442,-3.0507,-3.0521,-3.0529,-3.0606,-2.9624,-2.8193,-2.8223,-2.7143,-2.5723,-2.5957,-2.5994,-2.5902,-2.5654,-2.5547,-2.5484,-2.5465,-2.5402,-2.5335,-2.513,-2.505,-2.4992,-2.4836,-2.4804,-2.479,-2.4731,-2.4731,-2.4716,-2.4654,-2.4528,-2.4409,-2.4409,-2.4303,-2.419,-2.419,-2.4132,-2.4036,-2.3976,-2.3671,-2.3183,-2.249,-2.2349,-2.231,-2.231,-2.231,-2.231,-2.231,-2.1764,-2.1306,-2.1023,-2.0128,-1.9398,-1.893,-1.7987,-1.7422,-1.7312,-1.633,-1.5764,-1.5588,-1.4675,-1.4179,-1.4003,-1.342,-1.3152,-2.2016,-2.2848,-2.3686,-2.5061,-2.4528,-2.3639,-2.3566,-2.2632,-2.1718,-2.1353,-2.0974,-2.0849,-2.1441,-2.2335,-2.353,-2.5082,-2.6711,-2.7998,-2.8631,-2.9039,-2.9205,-2.8984,-2.9119,-2.927,-2.9377,-2.9397,-2.9355,-2.9225,-2.933,-2.9351,-2.9225,-2.9089,-2.9115,-2.9377,-2.9394,-2.9494,-2.9696,-2.9813,-2.9877,-2.9877,-2.9877,-3.0003,-3.0209,-3.0075,-3.015,-3.0398,-3.0398,-3.0398,-3.039,-3.0441,-3.0221,-2.9893,-2.9967,-2.8981,-2.7542,-2.7573,-2.6741,-2.5629,-2.5657,-2.5624,-2.5604,-2.5609,-2.5567,-2.5543,-2.5517,-2.5493,-2.5468,-2.529,-2.5241,-2.5196,-2.5053,-2.5031,-2.4987,-2.4904,-2.4891,-2.4864,-2.4818,-2.4716,-2.4607,-2.4528,-2.441,-2.4303,-2.4209,-2.419,-2.4151,-2.3996,-2.3816,-2.3455,-2.2773,-2.2571,-2.2426,-2.231,-2.231,-2.231,-2.231,-2.1705,-2.1244,-2.0991,-2.0143,-1.9325,-1.8574,-1.7987,-1.7422,-1.6951,-1.6071,-1.5454,-1.5186,-1.4283,-1.3637,-1.342,-1.3065,-1.2881,-2.1265,-2.1921,-2.2635,-2.3587,-2.3258,-2.2611,-2.2348,-2.1651,-2.0805,-2.0002,-1.9765,-1.9617,-1.9299,-2.1223,-2.3112,-2.3956,-2.6279,-2.813,-2.8652,-2.9142,-2.9178,-2.8492,-2.8749,-2.8994,-2.8994,-2.8994,-2.8994,-2.8994,-2.9222,-2.9246,-2.9017,-2.8994,-2.8994,-2.8994,-2.9243,-2.9415,-2.9607,-2.9643,-2.9661,-2.9661,-2.9661,-2.9782,-2.9969,-2.9806,-2.9889,-3.0138,-3.0054,-3.0028,-3.0028,-3.0052,-2.9621,-2.8951,-2.9004,-2.8062,-2.6703,-2.6779,-2.6247,-2.5517,-2.5564,-2.5598,-2.559,-2.56,-2.5607,-2.5603,-2.5547,-2.5535,-2.5517,-2.5428,-2.542,-2.5391,-2.5322,-2.5303,-2.5264,-2.5088,-2.5034,-2.5018,-2.4883,-2.4861,-2.4756,-2.4526,-2.4495,-2.4445,-2.4228,-2.419,-2.4094,-2.3816,-2.3774,-2.3649,-2.3323,-2.2972,-2.2678,-2.2388,-2.2332,-2.2349,-2.231,-2.1554,-2.1055,-2.0991,-2.0158,-1.9244,-1.8263,-1.8066,-1.7544,-1.6637,-1.5879,-1.5217,-1.4698,-1.4032,-1.3406,-1.2881,-1.2881,-1.2881,-2.1724,-2.2439,-2.3208,-2.4128,-2.3826,-2.3102,-2.2451,-2.1228,-2.001,-1.9249,-1.8623,-1.824,-1.8391,-1.959,-2.0899,-2.1846,-2.4069,-2.5904,-2.6603,-2.7806,-2.8564,-2.8412,-2.8749,-2.8994,-2.8994,-2.8994,-2.8994,-2.8994,-2.9044,-2.9044,-2.9017,-2.8994,-2.8994,-2.8994,-2.9062,-2.9089,-2.9115,-2.9332,-2.9454,-2.9454,-2.9454,-2.9551,-2.971,-2.8819,-2.8572,-2.8802,-2.8297,-2.8096,-2.8109,-2.8269,-2.8236,-2.8112,-2.8114,-2.7547,-2.6695,-2.6718,-2.6191,-2.5493,-2.5503,-2.5554,-2.5607,-2.5664,-2.5683,-2.5683,-2.5662,-2.5661,-2.5636,-2.5526,-2.5473,-2.5459,-2.533,-2.5303,-2.5284,-2.5264,-2.5253,-2.5243,-2.5222,-2.5077,-2.4872,-2.4559,-2.4495,-2.4445,-2.4228,-2.419,-2.417,-2.4113,-2.4113,-2.3996,-2.3671,-2.3323,-2.2996,-2.266,-2.2634,-2.2537,-2.2338,-2.1811,-2.1337,-2.1023,-2.0128,-1.9346,-1.8765,-1.7907,-1.7353,-1.7146,-1.5696,-1.4879,-1.4698,-1.3664,-1.3052,-1.2881,-1.2881,-1.2881,-2.1321,-2.1907,-2.2507,-2.3177,-2.3088,-2.253,-2.1353,-2.0221,-1.9113,-1.8003,-1.7168,-1.6686,-1.6829,-1.8087,-1.9476,-2.0533,-2.285,-2.4804,-2.5767,-2.7011,-2.7833,-2.7833,-2.8183,-2.843,-2.843,-2.843,-2.8507,-2.8658,-2.8682,-2.8827,-2.9181,-2.9203,-2.9156,-2.9017,-2.8994,-2.8994,-2.8994,-2.9134,-2.8978,-2.8574,-2.8574,-2.8459,-2.822,-2.7718,-2.7621,-2.7856,-2.7671,-2.7599,-2.7631,-2.7816,-2.7621,-2.7217,-2.7217,-2.6718,-2.5974,-2.5974,-2.5738,-2.5406,-2.5434,-2.5479,-2.5558,-2.5631,-2.5662,-2.5703,-2.5703,-2.5703,-2.5683,-2.557,-2.5535,-2.5488,-2.5376,-2.5321,-2.5303,-2.5303,-2.5303,-2.5303,-2.5303,-2.5224,-2.5077,-2.4804,-2.4712,-2.4591,-2.4393,-2.4266,-2.419,-2.419,-2.419,-2.4151,-2.3976,-2.3671,-2.3259,-2.2746,-2.259,-2.2453,-2.231,-2.1869,-2.143,-2.1039,-2.0112,-1.9259,-1.8535,-1.7449,-1.6887,-1.6866,-1.5257,-1.4402,-1.4373,-1.3461,-1.2858,-1.2549,-1.2396,-1.2344,-2.0862,-2.1244,-2.1598,-2.2163,-2.231,-2.1843,-2.0137,-1.9198,-1.82,-1.658,-1.5764,-1.5409,-1.5561,-1.6887,-1.8414,-1.9781,-2.1875,-2.3755,-2.4946,-2.6107,-2.6901,-2.7043,-2.742,-2.772,-2.788,-2.7897,-2.7992,-2.8272,-2.8188,-2.8452,-2.927,-2.931,-2.9203,-2.9017,-2.8994,-2.8994,-2.8994,-2.8994,-2.8613,-2.7787,-2.7787,-2.7456,-2.6842,-2.6656,-2.6691,-2.6879,-2.691,-2.6939,-2.6953,-2.7146,-2.6845,-2.6252,-2.6252,-2.5859,-2.5303,-2.5303,-2.5303,-2.5303,-2.5354,-2.5415,-2.5498,-2.5543,-2.5611,-2.5703,-2.5703,-2.5703,-2.5683,-2.5629,-2.5561,-2.5517,-2.5441,-2.5383,-2.5348,-2.5348,-2.5348,-2.5348,-2.5348,-2.5348,-2.5293,-2.5053,-2.493,-2.4809,-2.4607,-2.4426,-2.4321,-2.4266,-2.4247,-2.4247,-2.4227,-2.3917,-2.3428,-2.272,-2.2504,-2.236,-2.231,-2.1869,-2.143,-2.1039,-2.0091,-1.9125,-1.8145,-1.7027,-1.6402,-1.6312,-1.47,-1.3877,-1.391,-1.3108,-1.2552,-1.219,-1.1851,-1.1733,-2.0764,-2.1039,-2.126,-2.2077,-2.231,-2.1735,-1.9502,-1.8437,-1.7304,-1.5136,-1.4646,-1.4817,-1.5477,-1.6279,-1.7534,-1.9647,-2.0814,-2.1959,-2.3393,-2.4574,-2.5559,-2.6224,-2.6658,-2.7164,-2.7826,-2.7897,-2.7926,-2.7954,-2.7492,-2.7767,-2.8984,-2.904,-2.904,-2.8994,-2.8994,-2.8994,-2.8994,-2.8994,-2.8613,-2.7787,-2.7787,-2.7386,-2.6599,-2.5864,-2.5535,-2.5557,-2.5018,-2.4783,-2.48,-2.5001,-2.5107,-2.5149,-2.5149,-2.5198,-2.5303,-2.5303,-2.5303,-2.5303,-2.5322,-2.5354,-2.5408,-2.5415,-2.5551,-2.5703,-2.5703,-2.5703,-2.5683,-2.5629,-2.5598,-2.5587,-2.5517,-2.5498,-2.5473,-2.5473,-2.5473,-2.5473,-2.5473,-2.5473,-2.5408,-2.5139,-2.5081,-2.5007,-2.4814,-2.476,-2.4685,-2.4495,-2.4478,-2.441,-2.4228,-2.3917,-2.3401,-2.2596,-2.2617,-2.2546,-2.2321,-2.1869,-2.143,-2.1039,-2.0001,-1.9019,-1.8151,-1.695,-1.6155,-1.5779,-1.4199,-1.333,-1.3286,-1.2283,-1.195,-1.218,-1.1565,-1.1432,-2.0829,-2.1181,-2.1507,-2.2135,-2.2106,-2.1433,-1.966,-1.8327,-1.6951,-1.5213,-1.4335,-1.4191,-1.5375,-1.5477,-1.639,-1.9495,-1.9908,-2.05,-2.2462,-2.3505,-2.4184,-2.4491,-2.5433,-2.6178,-2.6488,-2.6919,-2.7272,-2.75,-2.7571,-2.7611,-2.7677,-2.7575,-2.7515,-2.7548,-2.7567,-2.7567,-2.7567,-2.7567,-2.7145,-2.6376,-2.6376,-2.5915,-2.5144,-2.4814,-2.4667,-2.4668,-2.454,-2.4495,-2.4528,-2.4716,-2.4877,-2.501,-2.501,-2.5046,-2.5122,-2.5264,-2.5224,-2.5141,-2.5264,-2.5329,-2.5406,-2.5406,-2.5488,-2.5595,-2.5633,-2.5662,-2.5683,-2.5662,-2.5633,-2.5598,-2.5564,-2.5539,-2.5493,-2.5493,-2.5493,-2.5493,-2.5493,-2.5493,-2.5473,-2.5357,-2.5208,-2.5071,-2.4992,-2.4885,-2.4775,-2.4685,-2.4594,-2.431,-2.3725,-2.3268,-2.262,-2.1646,-2.1832,-2.1814,-2.1199,-2.0659,-2.0152,-1.9757,-1.859,-1.7617,-1.7051,-1.5699,-1.5058,-1.5222,-1.3643,-1.2843,-1.2833,-1.1744,-1.1106,-1.0904,-1.0177,-0.9896,-2.0959,-2.1368,-2.1718,-2.218,-2.1957,-2.1147,-1.9415,-1.8062,-1.6699,-1.4969,-1.3964,-1.3853,-1.5325,-1.5003,-1.5626,-1.9106,-1.9063,-1.9367,-2.1651,-2.2412,-2.2902,-2.3342,-2.4323,-2.5135,-2.5558,-2.6268,-2.6825,-2.7083,-2.7187,-2.7029,-2.6616,-2.6247,-2.6186,-2.6428,-2.6362,-2.6362,-2.6447,-2.6447,-2.6045,-2.5262,-2.5362,-2.498,-2.419,-2.419,-2.419,-2.4209,-2.4339,-2.441,-2.4409,-2.4559,-2.4708,-2.4858,-2.4858,-2.4885,-2.4968,-2.5096,-2.5061,-2.4981,-2.5141,-2.5236,-2.529,-2.5343,-2.5427,-2.5468,-2.5535,-2.5595,-2.5636,-2.5636,-2.5604,-2.5566,-2.5566,-2.5558,-2.5537,-2.5537,-2.5548,-2.5558,-2.5558,-2.5558,-2.5554,-2.552,-2.5363,-2.52,-2.5185,-2.5042,-2.4923,-2.4869,-2.4534,-2.4042,-2.339,-2.2757,-2.193,-2.0805,-2.0939,-2.086,-2.0323,-1.9677,-1.9191,-1.8908,-1.7481,-1.6479,-1.6069,-1.4743,-1.4082,-1.4175,-1.295,-1.2238,-1.2125,-1.1005,-1.0343,-1.0065,-0.9156,-0.8555,-2.1203,-2.1582,-2.1718,-2.218,-2.1957,-2.0928,-1.8411,-1.7496,-1.6482,-1.3934,-1.3413,-1.3853,-1.5325,-1.5003,-1.5477,-1.842,-1.8302,-1.8606,-2.0899,-2.1221,-2.1779,-2.3224,-2.341,-2.4002,-2.5473,-2.6268,-2.6691,-2.6691,-2.6015,-2.5768,-2.6105,-2.5421,-2.5331,-2.608,-2.5779,-2.5779,-2.6103,-2.6121,-2.5682,-2.4924,-2.5241,-2.498,-2.419,-2.419,-2.419,-2.419,-2.419,-2.419,-2.419,-2.4227,-2.4321,-2.4512,-2.4512,-2.4623,-2.4804,-2.4804,-2.4804,-2.4814,-2.4949,-2.4991,-2.5034,-2.5253,-2.5357,-2.5394,-2.5394,-2.5453,-2.5493,-2.5493,-2.5493,-2.5493,-2.5493,-2.5554,-2.5603,-2.5603,-2.5659,-2.5703,-2.5703,-2.5703,-2.5683,-2.5607,-2.5547,-2.5468,-2.5408,-2.5337,-2.5224,-2.5022,-2.4331,-2.3676,-2.3347,-2.2526,-2.1551,-2.0336,-1.9969,-1.9864,-1.9992,-1.9345,-1.8908,-1.8908,-1.7151,-1.5909,-1.5499,-1.4472,-1.3467,-1.2556,-1.2029,-1.1553,-1.1019,-1.0021,-0.9726,-1.0056,-0.8874,-0.7685,-1.9882,-2.0463,-2.0841,-2.075,-2.0246,-1.9358,-1.7814,-1.6734,-1.5606,-1.4114,-1.3577,-1.3701,-1.4682,-1.4242,-1.4868,-1.8335,-1.7845,-1.8014,-2.0814,-2.1204,-2.1373,-2.182,-2.2784,-2.3985,-2.5473,-2.5812,-2.6167,-2.6657,-2.6471,-2.6199,-2.5785,-2.553,-2.5483,-2.5681,-2.5587,-2.5321,-2.4871,-2.4871,-2.4486,-2.3743,-2.3835,-2.3755,-2.3522,-2.3735,-2.3876,-2.3876,-2.4094,-2.419,-2.419,-2.419,-2.4321,-2.4495,-2.4495,-2.4545,-2.4607,-2.4746,-2.4716,-2.4623,-2.4799,-2.485,-2.4883,-2.4936,-2.4968,-2.4998,-2.4998,-2.5139,-2.5266,-2.5136,-2.51,-2.5116,-2.5259,-2.5317,-2.5365,-2.5492,-2.5573,-2.5634,-2.5634,-2.5662,-2.5683,-2.5662,-2.5607,-2.5551,-2.5473,-2.4962,-2.4516,-2.4389,-2.3528,-2.2631,-2.1896,-2.1452,-2.0652,-1.9254,-1.9033,-1.8828,-1.8449,-1.7585,-1.6955,-1.6642,-1.5372,-1.4531,-1.4399,-1.3773,-1.3138,-1.2508,-1.2029,-1.1345,-1.0456,-0.946,-0.843,-0.7397,-0.6619,-0.6061,-1.888,-1.9747,-2.0277,-2.0052,-1.9535,-1.8724,-1.7375,-1.6359,-1.5356,-1.4038,-1.3562,-1.3633,-1.4359,-1.4124,-1.4648,-1.7236,-1.7014,-1.7412,-1.9976,-2.0473,-2.0834,-2.1532,-2.2665,-2.3688,-2.4439,-2.4776,-2.5063,-2.5345,-2.5547,-2.543,-2.4977,-2.5122,-2.5166,-2.5136,-2.484,-2.4382,-2.3691,-2.3691,-2.347,-2.3021,-2.3141,-2.3189,-2.3212,-2.3414,-2.3522,-2.3522,-2.3876,-2.4016,0.0,-2.4151,-2.4266,-2.4393,-2.4393,-2.4393,-2.4393,-2.4388,-2.4318,-2.4211,-2.4279,-2.4312,-2.4346,-2.4545,-2.461,-2.4561,-2.4362,-2.4666,-2.5023,-2.4889,-2.4866,-2.49,-2.5082,-2.5144,-2.5201,-2.5408,-2.5503,-2.5561,-2.5561,-2.5598,-2.5611,-2.5611,-2.5586,-2.5436,-2.5063,-2.4559,-2.4075,-2.3697,-2.2729,-2.1817,-2.119,-2.0559,-1.9787,-1.8696,-1.8413,-1.7954,-1.7205,-1.6559,-1.605,-1.5699,-1.457,-1.3822,-1.363,-1.316,-1.2615,-1.1945,-1.1653,-1.1084,-1.0234,-0.8964,-0.7626,-0.6179,-0.5567,-0.5221,0.0,-1.9116,-1.9723,-1.9697,-1.9358,-1.8588,-1.6913,-1.6226,0.0,-1.3749,-1.3396,-1.365,-1.4445,-1.4477,-1.4714,-1.568,-1.6087,-1.6928,-1.8795,-1.9419,-2.0367,-2.2181,-2.2936,-2.3177,-2.2843,-2.3439,-2.367,-2.3262,-2.3652,-2.3902,-2.3902,-2.4288,-2.4489,-2.4438,-2.3748,-2.3164,-2.2686,-2.2686,-2.2669,-2.2643,-2.2972,-2.3135,-2.3135,-2.3159,-2.3165,-2.3189,-2.3544,-2.3692,-2.3692,-2.4016,-2.4151,-2.4113,-2.4151,-2.417,-2.4132,-2.3816,-2.3692,-2.3674,-2.3527,-2.3473,-2.3557,-2.4062,-2.4221,-2.4134,-2.364,-2.4081,-2.4741,-2.4727,-2.4746,-2.4785,-2.4924,-2.5004,-2.5111,-2.5305,-2.5409,-2.5454,-2.5479,-2.5479,-2.5484,-2.5489,-2.5503,-2.5234,-2.4434,-2.4186,-2.3844,-2.3017,-2.1929,-2.1154,-2.1039,-1.9973,-1.9059,-1.8642,-1.8076,-1.7332,-1.6293,-1.6154,-1.6004,-1.5684,-1.4536,-1.3596,-1.3073,-1.2719,-1.2018,-1.1019,-1.0895,-1.0601,-1.0069,-0.8456,-0.7113,-0.6099,-0.5486,-0.4927,-1.4756,0.0,-1.7082,-1.672,-1.6053,-1.5415,0.0,-1.4578,-1.4043,-1.3513,-1.3396,-1.3803,-1.5105,-1.4247,-1.4407,-1.7603,-1.7555,-1.7935,-2.0322,-2.1242,-2.2006,-2.3021,-2.2801,-2.2975,-2.3964,-2.34,-2.3193,-2.3703,-2.3836,-2.3902,-2.3902,-2.4288,-2.4222,-2.3663,-2.3477,-2.3169,-2.2709,-2.2709,-2.2425,-2.1861,-2.2309,-2.2508,-2.2508,-2.2712,-2.2822,-2.2848,-2.3437,-2.3544,-2.3346,-2.3671,-2.3671,-2.3459,-2.3714,-2.3816,-2.3816,-2.3714,-2.3692,-2.3671,-2.3379,-2.327,-2.3293,-2.341,-2.3454,-2.3432,-2.3315,-2.3692,-2.4155,-2.3985,-2.4136,-2.4393,-2.4556,-2.4632,-2.4685,-2.4885,-2.4962,-2.5014,-2.5155,-2.5236,-2.5324,-2.5464,-2.5496,-2.5434,-2.5233,-2.4139,-2.3196,-2.2945,-2.1463,-2.0317,-2.0138,-1.975,-1.9268,-1.866,-1.8241,-1.7566,-1.6455,-1.5699,-1.5,-1.4376,-1.3734,-1.3138,-1.2649,-1.2567,-1.2018,-1.1019,-0.9845,-0.8763,-0.7769,-0.6816,-0.5901,-0.5029,-0.4332,-0.33,-1.3004,-1.4738,-1.6457,-1.6219,-1.5805,-1.5376,-1.5109,-1.4319,-1.3577,-1.3288,-1.3208,-1.356,-1.466,-1.451,-1.4944,-1.7288,-1.7754,-1.8625,-2.0813,-2.2156,-2.2884,-2.2778,-2.2417,-2.2351,-2.2859,-2.2118,-2.1922,-2.2662,-2.2637,-2.2704,-2.2996,-2.3326,-2.3308,-2.2919,-2.2694,-2.2542,-2.2512,-2.2297,-2.2098,-2.1928,-2.1974,-2.2106,-2.231,-2.2436,-2.2527,-2.2537,-2.3038,-2.3141,-2.2996,-2.3346,-2.3369,-2.3212,-2.3392,-2.3459,-2.3437,-2.33,-2.3236,-2.3206,-2.2883,-2.2883,-2.2947,-2.2832,-2.2865,-2.2947,-2.2807,-2.3076,-2.3414,-2.3464,-2.3816,-2.4209,-2.4247,-2.4264,-2.4352,-2.4712,-2.4672,-2.4647,-2.491,-2.4996,-2.5051,-2.5159,-2.5183,-2.5089,-2.4803,-2.4046,-2.3202,-2.2464,-2.1402,-2.0499,-1.9993,-1.9632,-1.9234,-1.8753,-1.8226,-1.7532,-1.6626,-1.5928,-1.5118,-1.4046,-1.3276,-1.2685,-1.221,-1.1945,-1.1201,-0.9915,-0.9067,-0.8113,-0.6992,-0.6239,-0.4918,-0.3093,-0.231,-0.1467,-1.239,-1.4507,-1.658,-1.6365,-1.6394,-1.6295,-1.5543,-1.4467,-1.3496,-1.3034,-1.3006,-1.3366,-1.4337,-1.5134,-1.5917,-1.6828,-1.7996,-1.935,-2.0892,-2.2394,-2.3047,-2.2128,-2.1917,-2.1661,-2.1199,-2.0646,-2.0547,-2.1084,-2.098,-2.1149,-2.1821,-2.2082,-2.218,-2.218,-2.1794,-2.1764,-2.2106,-2.1764,-2.1764,-2.2106,-2.1823,-2.1899,-2.2209,-2.2282,-2.231,-2.2293,-2.2573,-2.2669,-2.266,-2.2996,-2.3093,-2.3063,-2.3093,-2.3117,-2.3093,-2.2797,-2.2695,-2.266,-2.2371,-2.2409,-2.2529,-2.236,-2.2409,-2.2485,-2.226,-2.2392,-2.2652,-2.2813,-2.3437,-2.4018,-2.3908,-2.3871,-2.3988,-2.4452,-2.4346,-2.4222,-2.4598,-2.4678,-2.4678,-2.4708,-2.475,-2.4617,-2.4068,-2.398,-2.3508,-2.2042,-2.1607,-2.1101,-2.021,-1.9632,-1.9173,-1.885,-1.8198,-1.7445,-1.6594,-1.6215,-1.5476,-1.4252,-1.3293,-1.2472,-1.1811,-1.1132,-1.005,-0.8504,-0.8488,-0.7818,-0.6361,-0.5556,-0.3734,-0.1011,0.0044,0.0664,-1.3244,-1.4735,-1.564,-1.4395,-1.459,-1.4903,-1.4101,-1.3593,-1.3161,-1.2735,-1.3111,-1.4212,-1.6469,-1.6282,-1.679,-1.9916,-2.0634,-2.0954,-2.1437,-2.1749,-2.1967,-2.2067,-2.1535,-2.1375,-2.1873,-2.0946,-2.0345,-2.0469,-2.0429,-2.063,-2.1118,-2.1495,-2.1718,-2.1718,-2.1658,-2.146,-2.1197,-2.1477,-2.1477,-2.1197,-2.1869,-2.2032,-2.1718,-2.2106,-2.231,-2.2293,-2.2573,-2.2573,-2.2388,-2.2678,-2.2625,-2.247,-2.2704,-2.2772,-2.2772,-2.2721,-2.2695,-2.266,-2.2371,-2.2089,-2.182,-2.2192,-2.2044,-2.1744,-2.1718,-2.1931,-2.2068,-2.1502,-2.231,-2.3346,-2.331,-2.331,-2.3356,-2.3446,-2.3406,-2.3498,-2.4007,-2.4118,-2.4173,-2.4342,-2.4622,-2.4695,-2.4382,-2.4096,-2.3574,-2.262,-2.1893,-2.1152,-2.0215,-1.9923,-1.9567,-1.8941,-1.8467,-1.7514,-1.582,-1.5388,-1.4941,-1.4383,-1.4205,-1.3398,-1.1872,-1.0475,-0.9164,-0.7952,-0.8074,-0.6586,-0.3377,-0.2685,-0.1588,-0.0133,0.2049,0.3737,-1.2007,-1.3421,-1.4652,-1.4341,-1.5303,-1.6263,-1.5912,-1.5182,-1.4587,-1.4505,-1.474,-1.5424,-1.6955,-1.7523,-1.8559,-2.1005,-2.1553,-2.1642,-2.1454,-2.1788,-2.1856,-2.1404,-2.1034,-2.0907,-2.1122,-2.0447,-2.0207,-2.0806,-2.0516,-2.0537,-2.1117,-2.1215,-2.1275,-2.1275,-2.1275,-2.1181,-2.0991,-2.1181,-2.1181,-2.0991,-2.1401,-2.1615,-2.1628,-2.1823,-2.2061,-2.231,-2.2181,-2.2051,-2.1928,-2.1816,-2.1715,-2.1615,-2.1728,-2.1782,-2.1828,-2.2046,-2.2275,-2.2419,-2.2044,-2.1794,-2.1598,-2.1615,-2.1446,-2.1275,-2.1275,-2.1366,-2.1442,-2.1086,-2.1716,-2.2505,-2.2591,-2.2443,-2.2426,-2.3052,-2.2745,-2.2514,-2.337,-2.3396,-2.3338,-2.3656,-2.3833,-2.3989,-2.4148,-2.4099,-2.3669,-2.2639,-2.226,-2.1609,-2.0272,-2.0044,-1.9788,-1.9235,-1.8842,-1.8177,-1.7042,-1.6664,-1.56,-1.3511,-1.35,-1.2905,-1.142,-1.0176,-0.8999,-0.7995,-0.6408,-0.3883,-0.0307,0.0608,0.1998,0.3814,0.5336,0.6428,-1.1604,-1.2643,-1.3795,-1.4782,-1.6144,-1.7311,-1.7428,-1.6488,-1.566,-1.5978,-1.6131,-1.6464,-1.7254,-1.8712,-2.0156,-2.128,-2.1665,-2.1674,-2.1159,-2.1538,-2.1563,-2.0603,-2.0483,-2.0406,-2.017,-1.9874,-2.005,-2.086,-2.045,-2.0408,-2.1023,-2.0915,-2.0829,-2.0829,-2.0829,-2.0797,-2.0698,-2.0797,-2.0829,-2.0829,-2.0959,-2.1118,-2.129,-2.1399,-2.1675,-2.1991,-2.1598,-2.146,-2.143,-2.1118,-2.0991,-2.0991,-2.0991,-2.0991,-2.1023,-2.1337,-2.1675,-2.1945,-2.1568,-2.1399,-2.1259,-2.1055,-2.0846,-2.0682,-2.0682,-2.0682,-2.0649,-2.0534,-2.0942,-2.1457,-2.1749,-2.1619,-2.1602,-2.247,-2.2018,-2.1645,-2.26,-2.2539,-2.2461,-2.2863,-2.3003,-2.3182,-2.3629,-2.3694,-2.3328,-2.2265,-2.2134,-2.1655,-2.0186,-2.0076,-1.9947,-1.9462,-1.9139,-1.8568,-1.7652,-1.7379,-1.5948,-1.2853,-1.274,-1.2365,-1.1341,-1.0244,-0.874,-0.6761,-0.3399,-0.0168,0.2807,0.4503,0.6126,0.7658,0.8294,0.8776,-1.4004,-1.3705,-1.334,-1.5244,-1.5829,-1.6069,-1.6637,-1.5771,-1.5064,-1.5707,-1.6278,-1.6985,-1.8114,-1.9735,-2.0911,-2.1023,-2.1071,-2.0893,-2.046,-2.0423,-2.0281,-1.9837,-1.975,-1.9771,-1.9762,-1.9711,-1.9741,-1.9822,-1.9777,-1.9925,-2.0357,-2.0379,-2.0348,-2.0348,-2.0348,-2.0158,-1.9782,-2.0158,-2.0348,-2.0348,-2.0797,-2.0797,-2.0416,-2.0846,-2.1055,-2.1086,-2.1071,-2.1023,-2.1023,-2.0991,-2.0991,-2.0991,-2.0991,-2.0991,-2.0991,-2.1023,-2.1055,-2.1103,-2.1055,-2.0748,-2.0449,-2.0862,-2.04,-1.9677,-1.9677,-1.9677,-1.9621,-1.9163,-1.9434,-2.0054,-2.0878,-2.1055,-2.1055,-2.1134,-2.1118,-2.1149,-2.1543,-2.1586,-2.1703,-2.2107,-2.2426,-2.2685,-2.2762,-2.2638,-2.2221,-2.1332,-2.1049,-2.0644,-1.9831,-2.0002,-2.0016,-1.9528,-1.9257,-1.8162,-1.5895,-1.5697,-1.4939,-1.3277,-1.277,-1.2399,-1.2112,-1.0854,-0.7802,-0.2811,0.1593,0.4614,0.6173,0.9469,1.0551,0.9513,0.9878,1.0632,-1.155,-1.2276,-1.319,-1.4794,-1.577,-1.6517,-1.7174,-1.7595,-1.8029,-1.8702,-1.8702,-1.8763,-1.9458,-1.9937,-2.0277,-2.0516,-2.0364,-2.0139,-1.9945,-1.9945,-1.9752,-1.9244,-1.9479,-1.9566,-1.9244,-1.9479,-1.969,-1.969,-1.969,-1.9782,-1.9909,-1.9945,-1.9945,-1.9945,-1.9945,-1.9839,-1.969,-1.9839,-1.9945,-1.9929,-2.0364,-2.0483,-2.0314,-2.0483,-2.0715,-2.0991,-2.0682,-2.055,-2.055,-2.0296,-2.0174,-2.0174,-2.0174,-2.033,-2.055,-2.055,-2.0764,-2.0926,-2.0317,-2.0008,-1.9798,-1.9339,-1.8948,-1.866,-1.866,-1.866,-1.8622,-1.8444,-1.8535,-1.8977,-2.023,-2.0364,-2.0345,-2.0862,-2.0599,-2.0364,-2.1038,-2.075,-2.0522,-2.1272,-2.1269,-2.1294,-2.1848,-2.1547,-2.0997,-2.0322,-2.0094,-1.9774,-1.9165,-1.9582,-1.9908,-1.976,-1.9552,-1.7233,-1.1851,-1.0987,-0.9529,-0.6781,-0.7444,-0.9416,-1.2704,-0.4654,0.0624,0.2262,0.5796,0.9011,1.1838,1.2556,1.2634,1.2118,1.2778,1.3641,-1.1132,-1.2104,-1.3445,-1.4794,-1.589,-1.6891,-1.7548,-1.8418,-1.9316,-2.0198,-2.0019,-1.9782,-2.0054,-1.9874,-1.9782,-2.007,-1.9874,-1.9639,-1.9479,-1.9442,-1.9244,-1.8688,-1.8968,-1.9043,-1.8688,-1.8968,-1.9281,-1.9442,-1.9442,-1.953,-1.969,-1.969,-1.969,-1.969,-1.969,-1.969,-1.969,-1.969,-1.969,-1.969,-1.9965,-2.0124,-2.0124,-2.0124,-2.0296,-2.0565,-2.0261,-2.0124,-2.0089,-1.9609,-1.9442,-1.9442,-1.9244,-1.9558,-2.0054,-1.9728,-1.9939,-2.0215,-1.9426,-1.9133,-1.9022,-1.8327,-1.7987,-1.7867,-1.7867,-1.7867,-1.7814,-1.7599,-1.78,-1.8221,-1.8846,-1.9119,-1.9339,-1.9924,-1.9636,-1.9376,-1.9958,-1.9591,-1.9339,-2.015,-2.0016,-2.0039,-2.0942,-2.0337,-1.967,-1.9472,-1.9058,-1.8554,-1.7918,-1.865,-1.885,-1.797,-1.6727,-1.3671,-0.7996,-0.6038,-0.3531,0.0166,-0.0568,-0.2619,-0.5951,0.0772,0.5953,0.883,1.1105,1.3386,1.563,1.5228,1.5045,1.5074,1.5744,1.6419,-1.378,-1.3795,-1.4124,-1.5469,-1.6263,-1.6906,-1.7563,-1.7712,-1.8085,-1.9435,-1.969,-1.969,-1.969,-1.969,-1.969,-1.969,-1.969,-1.953,-1.8968,-1.8893,-1.8688,-1.8185,-1.8106,-1.8106,-1.8106,-1.8106,-1.8341,-1.8855,-1.8893,-1.9132,-1.969,-1.969,-1.969,-1.969,-1.969,-1.969,-1.969,-1.969,-1.969,-1.969,-1.969,-1.969,-1.969,-1.969,-1.969,-1.969,-1.969,-1.969,-1.9639,-1.9132,-1.8893,-1.8855,-1.8302,-1.8727,-1.9566,-1.8496,-1.8458,-1.8817,-1.8302,-1.8106,-1.8066,-1.8066,-1.7706,-1.7271,-1.7271,-1.7271,-1.7133,-1.6562,-1.7177,-1.7786,-1.6603,-1.7152,-1.8052,-1.8106,-1.8106,-1.8106,-1.8106,-1.8106,-1.8235,-1.8679,-1.8792,-1.906,-2.002,-1.9027,-1.8267,-1.8776,-1.7906,-1.6864,-1.6055,-1.7037,-1.6692,-1.3739,-1.0208,-0.7066,-0.4608,-0.1231,0.2524,0.6679,0.7455,0.8245,0.9323,0.4395,0.653,1.6914,1.7768,1.768,1.6849,1.7759,1.8226,1.8215,1.8542,1.8724,-1.1296,-1.2403,-1.4019,-1.4872,-1.6967,-1.8867,-1.9061,-1.948,-1.9819,-1.9836,-1.953,-1.9123,-1.8644,-1.8893,-1.9132,-1.9132,-1.9442,-1.9639,-1.9479,-1.9132,-1.8688,-1.8185,-1.8106,-1.7947,-1.7585,-1.7867,-1.8341,-1.8855,-1.8893,-1.9132,-1.969,-1.969,-1.969,-1.969,-1.969,-1.953,-1.9132,-1.9132,-1.8968,-1.8574,-1.8574,-1.8968,-1.969,-1.969,-1.9479,-1.9132,-1.9132,-1.893,-1.8574,-1.8419,-1.8341,-1.8341,-1.8185,-1.8302,-1.8535,-1.8224,-1.8224,-1.8263,-1.7706,-1.7244,-1.6844,-1.6464,-1.5959,-1.5487,-1.5487,-1.5487,-1.5443,-1.5264,-1.5431,-1.5528,-1.4677,-1.5105,-1.6022,-1.7192,-1.7152,-1.7057,-1.792,-1.7477,-1.7164,-1.8104,-1.7985,-1.7848,-1.8121,-1.7397,-1.6613,-1.6047,-1.5167,-1.4141,-1.2908,-1.2203,-1.1057,-0.9126,-0.6575,-0.2755,0.2836,0.4247,0.6422,1.0097,1.1948,1.3139,1.3635,1.3177,1.4687,1.8508,1.8917,1.8963,1.8696,1.8928,1.9035,1.9046,1.9335,1.9522,-1.2375,-1.3702,-1.5339,-1.621,-1.7733,-1.9118,-1.9649,-1.9885,-1.9897,-1.9575,-1.9061,-1.8574,-1.8161,-1.838,-1.865,-1.8855,-1.9169,-1.9332,-1.9095,-1.8779,-1.8302,-1.7544,-1.7689,-1.7618,-1.706,-1.7494,-1.8045,-1.8549,-1.8574,-1.8893,-1.9639,-1.969,-1.969,-1.969,-1.969,-1.9442,-1.8893,-1.8893,-1.8612,-1.8106,-1.8106,-1.8458,-1.9043,-1.9043,-1.8893,-1.8574,-1.8574,-1.8302,-1.7787,-1.7787,-1.7787,-1.7733,-1.7272,-1.7382,-1.7666,-1.6998,-1.704,-1.73,-1.6562,-1.6188,-1.6003,-1.541,-1.5017,-1.4652,-1.44,-1.4297,-1.4204,-1.3658,-1.3695,-1.3684,-1.2782,-1.3032,-1.3918,-1.5457,-1.5731,-1.5929,-1.6915,-1.6549,-1.6348,-1.7286,-1.7008,-1.6635,-1.6689,-1.5951,-1.506,-1.4243,-1.2095,-1.0191,-0.9108,-0.7198,-0.5316,-0.3649,-0.0863,0.2783,0.7501,0.9179,1.0648,1.2268,1.343,1.4427,1.5274,1.6393,1.7671,1.9162,1.9234,1.9311,1.9387,1.9448,1.9483,1.9483,1.9743,1.9921,-1.5241,-1.6235,-1.7218,-1.8361,-1.8301,-1.8235,-1.9434,-1.9247,-1.8793,-1.8851,-1.8383,-1.7947,-1.7947,-1.7987,-1.8185,-1.8688,-1.8817,-1.865,-1.8185,-1.8066,-1.7693,-1.6744,-1.7106,-1.7174,-1.6647,-1.7074,-1.7552,-1.7988,-1.8066,-1.8535,-1.9566,-1.969,-1.969,-1.9639,-1.9639,-1.9369,-1.8765,-1.8727,-1.8496,-1.7947,-1.7947,-1.7933,-1.7894,-1.8013,-1.8066,-1.8027,-1.7987,-1.7666,-1.7229,-1.7229,-1.7229,-1.7105,-1.6015,-1.6194,-1.6834,-1.5297,-1.5353,-1.6089,-1.505,-1.5005,-1.5264,-1.4789,-1.4503,-1.4261,-1.3705,-1.346,-1.3165,-1.1948,-1.2067,-1.2252,-1.104,-1.114,-1.1899,-1.307,-1.3903,-1.4641,-1.5264,-1.5443,-1.5588,-1.6194,-1.5908,-1.5516,-1.5483,-1.457,-1.3516,-1.2695,-0.8666,-0.542,-0.4593,-0.2008,0.0497,0.2498,0.6047,0.8815,1.0079,1.3127,1.4427,1.3257,1.2826,1.3336,1.4929,1.5538,1.6857,1.9029,1.8972,1.9022,1.921,1.9469,1.9585,1.9585,1.9823,1.9918,-1.2289,-1.3799,-1.5798,-1.6531,-1.738,-1.8138,-1.8402,-1.8043,-1.7801,-1.8301,-1.7587,-1.6837,-1.6837,-1.7188,-1.7504,-1.7626,-1.7987,-1.8224,-1.8145,-1.7747,-1.7567,-1.78,-1.7556,-1.7338,-1.7212,-1.7313,-1.7434,-1.7475,-1.7867,-1.838,-1.9043,-1.9479,-1.953,-1.9095,-1.908,-1.8612,-1.7666,-1.7626,-1.7394,-1.6837,-1.6837,-1.66,-1.6176,-1.7518,-1.7867,-1.7463,-1.7034,-1.6795,-1.668,-1.668,-1.668,-1.6582,-1.5864,-1.5752,-1.5828,-1.5005,-1.488,-1.505,-1.4789,-1.4111,-1.348,-1.3852,-1.2918,-1.1688,-1.2092,-1.1846,-1.134,-1.1048,-1.1099,-1.104,-1.021,-1.0509,-1.0948,-1.0695,-1.1539,-1.2715,-1.3835,-1.4147,-1.4365,-1.4971,-1.4971,-1.453,-1.3328,-1.3108,-1.188,-0.8165,-0.4879,-0.1734,0.1233,0.391,0.6356,0.8562,1.0748,1.2173,1.2471,1.3166,1.3496,1.321,1.3446,1.4011,1.4959,1.5238,1.618,1.7992,1.8753,1.9162,1.9198,1.9355,1.9444,1.9444,1.9291,1.922,-1.2816,-1.4023,-1.5309,-1.642,-1.7404,-1.8027,-1.7787,-1.7504,-1.7321,-1.7411,-1.6956,-1.6522,-1.6522,-1.671,-1.6993,-1.7271,-1.7544,-1.7706,-1.7706,-1.7463,-1.7306,-1.7377,-1.7378,-1.7275,-1.6999,-1.7212,-1.739,-1.7323,-1.7544,-1.7947,-1.8496,-1.8779,-1.8817,-1.8535,-1.8535,-1.8145,-1.7312,-1.7312,-1.7034,-1.6522,-1.6194,-1.5732,-1.5186,-1.6065,-1.6464,-1.6446,-1.5908,-1.5788,-1.6051,-1.5744,-1.5656,-1.5567,-1.496,-1.4721,-1.4687,-1.4061,-1.4014,-1.419,-1.3548,-1.311,-1.2773,-1.2434,-1.1648,-1.0762,-1.0434,-1.0069,-0.9725,-0.9422,-0.9325,-0.9332,-0.9302,-0.9562,-0.9762,-0.9413,-1.0364,-1.1697,-1.2994,-1.3301,-1.3606,-1.4514,-1.4226,-1.3346,-1.196,-0.9818,-0.7053,-0.3523,0.0,0.3389,0.66,0.8756,1.0508,1.1789,1.2698,1.3198,1.3198,1.3198,1.3198,1.3198,1.3648,1.4168,1.4741,1.5357,1.6271,1.7482,1.8305,1.8663,1.8517,1.8734,1.8819,1.8819,1.8819,1.887,-1.351,-1.448,-1.5171,-1.6764,-1.7504,-1.7706,-1.7271,-1.7146,-1.7034,-1.6595,-1.6522,-1.6522,-1.6522,-1.6522,-1.6637,-1.7076,-1.7146,-1.7146,-1.7146,-1.7146,-1.7031,-1.6703,-1.7087,-1.7187,-1.671,-1.7099,-1.7346,-1.7157,-1.7229,-1.7504,-1.7947,-1.8066,-1.8066,-1.7947,-1.7947,-1.7653,-1.7008,-1.7008,-1.6727,-1.6194,-1.5588,-1.505,-1.4514,-1.4433,-1.4789,-1.541,-1.4926,-1.4971,-1.541,-1.4926,-1.4698,-1.4652,-1.405,-1.3815,-1.3721,-1.2997,-1.3025,-1.3283,-1.2052,-1.1895,-1.2083,-1.099,-1.045,-1.0041,-0.8881,-0.8416,-0.8218,-0.7658,-0.7503,-0.767,-0.8427,-0.8593,-0.8646,-0.8752,-0.9666,-1.0813,-1.2033,-1.2376,-1.2764,-1.3831,-1.2934,-1.1592,-1.025,-0.5917,-0.1765,0.0702,0.4708,0.8379,1.0944,1.2352,1.3248,1.3638,1.3396,1.3232,1.3288,1.3267,1.3198,1.3198,1.3702,1.4149,1.4501,1.5664,1.658,1.7183,1.7871,1.8061,1.7794,1.8061,1.8166,1.8107,1.8333,1.8622,-1.0059,-1.2135,-1.4576,-1.6191,-1.668,-1.668,-1.6637,-1.6595,-1.6595,-1.6522,-1.6522,-1.6522,-1.6522,-1.6522,-1.6522,-1.6595,-1.6595,-1.6595,-1.6595,-1.6595,-1.6784,-1.7212,-1.7338,-1.735,-1.7275,-1.7338,-1.7181,-1.6645,-1.7034,-1.7353,-1.7394,-1.7867,-1.7907,-1.7435,-1.7435,-1.6912,-1.584,-1.584,-1.5543,-1.4926,-1.4318,-1.4003,-1.3909,-1.3382,-1.3742,-1.4835,-1.4744,-1.4744,-1.4789,-1.4744,-1.4698,-1.4652,-1.405,-1.3815,-1.3627,-1.2414,-1.2021,-1.1963,-1.1216,-1.061,-1.0151,-0.9908,-0.9037,-0.8078,-0.7829,-0.7362,-0.6853,-0.675,-0.675,-0.6912,-0.767,-0.783,-0.7996,-0.8646,-0.8956,-0.9256,-1.0064,-1.0661,-1.1107,-1.1308,-1.0029,-0.83,-0.6478,-0.2822,0.0704,0.3315,0.7338,1.081,1.2879,1.3569,1.4217,1.5106,1.4001,1.3357,1.3769,1.3425,1.3198,1.3198,1.3967,1.4438,1.4501,1.5948,1.6773,1.6866,1.7743,1.8044,1.771,1.8044,1.8048,1.7776,1.7849,1.8057,-1.0621,-1.2551,-1.4488,-1.6107,-1.6522,-1.6522,-1.6522,-1.6522,-1.6522,-1.6522,-1.6522,-1.6522,-1.6522,-1.6522,-1.6522,-1.6522,-1.6522,-1.6522,-1.6522,-1.6522,-1.6609,-1.6861,-1.6898,-1.6898,-1.6898,-1.6898,-1.6798,-1.6534,-1.671,-1.6837,-1.6837,-1.7076,-1.7118,-1.6879,-1.6502,-1.6102,-1.5588,-1.5276,-1.4778,-1.419,-1.392,-1.3637,-1.3276,-1.2589,-1.3006,-1.419,-1.3836,-1.3684,-1.3585,-1.3205,-1.286,-1.2464,-1.2239,-1.2101,-1.2052,-1.1458,-1.1266,-1.1057,-0.9974,-0.9415,-0.9058,-0.8252,-0.7581,-0.7015,-0.6558,-0.6239,-0.5982,-0.5982,-0.6258,-0.6696,-0.702,-0.7723,-0.8321,-0.8209,-0.848,-0.8857,-0.9159,-0.9762,-1.01,-0.9725,-0.7713,-0.5536,-0.388,0.0158,0.4055,0.6734,1.0108,1.3014,1.4934,1.5067,1.5116,1.5554,1.4727,1.4259,1.4451,1.4259,1.4011,1.3709,1.4288,1.4599,1.4515,1.5549,1.6251,1.6501,1.7486,1.791,1.776,1.791,1.791,1.776,1.7794,1.7949,-1.0828,-1.2298,-1.3493,-1.5404,-1.5994,-1.617,-1.6459,-1.6522,-1.6522,-1.6522,-1.6522,-1.6522,-1.6522,-1.6522,-1.6522,-1.6522,-1.6522,-1.6522,-1.6522,-1.6522,-1.6522,-1.6522,-1.6522,-1.6522,-1.6522,-1.6522,-1.6522,-1.6522,-1.6522,-1.6522,-1.6522,-1.6337,-1.6337,-1.6522,-1.5776,-1.5365,-1.5365,-1.4606,-1.4014,-1.3552,-1.3552,-1.3228,-1.2608,-1.203,-1.2248,-1.3034,-1.254,-1.2335,-1.2229,-1.1756,-1.1266,-1.0762,-1.0602,-1.0543,-1.0493,-1.0128,-0.9967,-0.9813,-0.8574,-0.8159,-0.7947,-0.6735,-0.6312,-0.6204,-0.5492,-0.5273,-0.5273,-0.5433,-0.5873,-0.6421,-0.6804,-0.7563,-0.8209,-0.8049,-0.8103,-0.8321,-0.848,-0.889,-0.8901,-0.7576,-0.5424,-0.3084,-0.0918,0.3199,0.7081,0.9801,1.2461,1.4733,1.6281,1.6032,1.5734,1.5843,1.527,1.4942,1.5057,1.4942,1.4739,1.4324,1.4807,1.4998,1.4718,1.5565,1.6144,1.6421,1.7264,1.7635,1.7542,1.7635,1.7681,1.7681,1.7766,1.7992,-0.8798,-0.9679,-1.0772,-1.3531,-1.4614,-1.5229,-1.6283,-1.6522,-1.6522,-1.6522,-1.6522,-1.6522,-1.6522,-1.6522,-1.6522,-1.6522,-1.6522,-1.6522,-1.6522,-1.6522,-1.6522,-1.6522,-1.6522,-1.6522,-1.6522,-1.6522,-1.6522,-1.6522,-1.6522,-1.6522,-1.6522,-1.5952,-1.5908,-1.6466,-1.5377,-1.4744,-1.4744,-1.3563,-1.2968,-1.2978,-1.2978,-1.255,-1.1864,-1.1814,-1.1516,-1.0965,-1.0914,-1.0914,-1.0914,-1.0864,-1.0813,-1.0712,-1.0054,-0.9783,-0.9578,-0.8279,-0.7759,-0.7659,-0.695,-0.6691,-0.6583,-0.5814,-0.5542,-0.5433,-0.4732,-0.457,-0.4677,-0.5324,-0.5538,-0.5869,-0.7289,-0.7182,-0.7074,-0.8427,-0.7723,-0.6912,-0.7616,-0.7777,-0.6983,-0.4107,-0.2887,-0.0972,0.3243,0.6349,0.9175,1.2034,1.4165,1.572,1.6423,1.6032,1.5843,1.6218,1.5453,1.5057,1.5447,1.512,1.4903,1.4865,1.5715,1.5909,1.527,1.6531,1.7077,1.6779,1.715,1.7175,1.6841,1.7175,1.7344,1.7344,1.7658,1.8082,-0.8559,-0.9251,-0.9893,-1.1983,-1.3456,-1.4488,-1.4878,-1.5756,-1.6522,-1.6522,-1.6522,-1.6522,-1.6522,-1.6522,-1.6522,-1.6522,-1.6522,-1.6522,-1.6522,-1.6522,-1.6522,-1.6522,-1.6522,-1.6522,-1.6522,-1.6522,-1.6522,-1.6522,-1.6522,-1.6324,-1.5952,-1.572,-1.5499,-1.5332,-1.456,-1.392,-1.3573,-1.3113,-1.2666,-1.2187,-1.2187,-1.1832,-1.1166,-1.0712,-1.0364,-1.0115,-0.9221,-0.9332,-1.0108,-0.9622,-0.9207,-0.8751,-0.8,-0.7729,-0.7623,-0.7154,-0.6945,-0.6838,-0.614,-0.5873,-0.5764,-0.5058,-0.4838,-0.4787,-0.457,-0.4519,-0.457,-0.4787,-0.5164,-0.5542,-0.5601,-0.6095,-0.6632,-0.6656,-0.6622,-0.6131,-0.4497,-0.4548,-0.4433,-0.2889,-0.0108,0.2746,0.5271,0.8369,1.1146,1.3037,1.4608,1.582,1.6423,1.6346,1.6262,1.6417,1.6128,1.5973,1.6125,1.6002,1.5781,1.5429,1.5736,1.5911,1.5937,1.6411,1.6905,1.7364,1.7067,1.6964,1.7126,1.7455,1.7502,1.732,1.7658,1.7905,-0.7603,-0.8131,-0.8738,-1.0784,-1.187,-1.2801,-1.4299,-1.5205,-1.5844,-1.6409,-1.6522,-1.6522,-1.6522,-1.6522,-1.6522,-1.6522,-1.6522,-1.6522,-1.6522,-1.6522,-1.6522,-1.6522,-1.6337,-1.6194,-1.6194,-1.6008,-1.5888,-1.5888,-1.5888,-1.5744,-1.532,-1.5096,-1.4732,-1.4107,-1.392,-1.3505,-1.2929,-1.2881,-1.255,-1.1814,-1.1823,-1.1325,-1.0466,-1.0012,-0.9666,-0.9406,-0.8196,-0.8249,-0.9026,-0.8271,-0.7753,-0.7235,-0.6244,-0.5864,-0.581,-0.5316,-0.5316,-0.5433,-0.4937,-0.4941,-0.5109,-0.4625,-0.4519,-0.4519,-0.4519,-0.4519,-0.4574,-0.4787,-0.5164,-0.5433,-0.5277,-0.571,-0.5905,-0.4689,-0.4743,-0.4453,-0.1974,-0.2244,-0.24,-0.0706,0.2587,0.565,0.7592,1.0384,1.2819,1.416,1.5252,1.6051,1.6466,1.6522,1.6522,1.6522,1.6522,1.6522,1.6522,1.6522,1.6358,1.5994,1.6314,1.652,1.6555,1.6923,1.7413,1.8099,1.7516,1.7472,1.8046,1.7913,1.7828,1.7828,1.8074,1.8031,0.0,0.0,0.0,-0.9892,-0.9805,-1.0208,-1.4488,-1.4714,-1.4437,-1.6095,-1.6434,-1.6446,-1.6509,-1.6522,-1.6522,-1.6522,-1.6522,-1.6522,-1.6522,-1.6522,-1.6522,-1.6522,-1.5964,-1.5588,-1.5588,-1.505,-1.4698,-1.4698,-1.4698,-1.4709,-1.4652,-1.4097,-1.3505,-1.2929,-1.3467,-1.3505,-1.2929,-1.2881,-1.251,-1.1765,-1.1742,-1.104,-0.9762,-0.971,-0.9354,-0.8699,-0.7937,-0.7616,-0.7557,-0.6858,-0.6534,-0.6367,-0.4922,-0.4316,-0.4152,-0.2726,-0.2676,-0.3345,-0.3287,-0.379,-0.4463,-0.446,-0.446,-0.446,-0.4519,-0.4519,-0.4625,-0.5269,-0.5433,-0.5597,-0.6308,-0.5959,-0.4848,-0.2668,-0.2158,-0.17,-0.0219,-0.098,-0.0921,0.2678,0.514,0.7488,1.0248,1.2387,1.4125,1.5342,1.6095,1.6466,1.6479,1.6479,1.6522,1.6522,1.6522,1.6522,1.6522,1.6522,1.6522,1.6522,1.7504,1.7791,1.7136,1.8129,1.8753,1.893,1.8467,1.8645,1.9497,1.8454,1.8254,1.887,1.887,1.8447,-0.5976,0.0,0.0,0.0,0.0,0.0,-0.9821,-1.0572,-1.172,-1.3989,-1.43,-1.4588,-1.6178,-1.6522,-1.6522,-1.6522,-1.6522,-1.6522,-1.6522,-1.6522,-1.6522,-1.6522,-1.5964,-1.5588,-1.5588,-1.505,-1.4698,-1.4698,-1.4698,-1.4514,-1.405,-1.3467,-1.3065,-1.2929,-1.3055,-1.3065,-1.2881,-1.2344,-1.1774,-1.1065,-1.0026,-0.911,-0.8243,-0.7706,-0.7391,-0.7182,-0.6416,-0.5806,-0.5299,-0.5085,-0.5031,-0.4867,-0.3385,-0.2837,-0.2781,-0.2341,-0.2343,-0.2508,-0.2508,-0.2676,-0.2899,-0.3456,-0.3677,-0.379,-0.4349,-0.4519,-0.4519,-0.4732,-0.434,-0.3837,-0.35,-0.3277,-0.2664,-0.1001,-0.0607,0.011,0.2638,0.3268,0.383,0.5337,0.7373,0.9409,1.1206,1.3127,1.44,1.4318,1.5555,1.6337,1.5908,1.6238,1.6522,1.6522,1.6522,1.6522,1.6522,1.6522,1.6522,1.6522,1.7146,1.7585,1.7818,1.8469,1.9036,1.9451,1.8879,1.898,1.9782,1.9244,1.8692,1.8186,1.8134,1.7983,-0.5776,-0.5876,-0.5992,-0.654,0.0,0.0,-0.9157,-0.9659,-1.0666,-1.3845,-1.4323,-1.4651,-1.6241,-1.6522,-1.6522,-1.6522,-1.6522,-1.6522,-1.6522,-1.6522,-1.6423,-1.6139,-1.5599,-1.5141,-1.4858,-1.4283,-1.3931,-1.3931,-1.3931,-1.3789,-1.342,-1.2793,-1.2452,-1.2452,-1.2147,-1.1999,-1.1999,-1.1575,-1.1065,-1.0364,-0.9259,-0.833,-0.767,-0.6912,-0.6416,-0.6126,-0.5366,-0.4648,-0.3871,-0.3269,-0.3217,-0.3385,-0.2173,-0.173,-0.173,-0.1396,-0.1452,-0.173,-0.173,-0.1952,-0.2341,-0.3065,-0.3345,-0.3511,-0.4294,-0.4519,-0.4463,-0.4125,-0.3456,-0.2619,-0.156,-0.128,-0.0834,0.0942,0.1598,0.2468,0.4787,0.6128,0.695,0.7349,0.8903,1.062,1.1994,1.3406,1.4283,1.419,1.5276,1.6008,1.5632,1.6151,1.6522,1.6522,1.6522,1.6522,1.6522,1.6522,1.6522,1.6522,1.6993,1.7544,1.8066,1.8612,1.9229,1.9929,1.9391,1.9436,2.0067,1.9618,1.9164,1.8735,1.8532,1.8287,-0.5451,-0.5451,-0.582,-0.7229,-0.6266,0.0,-1.0106,-0.9987,-1.0076,-1.3844,-1.4589,-1.479,-1.5608,-1.579,-1.5815,-1.5752,-1.5961,-1.6211,-1.6454,-1.6423,-1.6194,-1.5676,-1.5005,-1.4376,-1.3862,-1.3238,-1.2881,-1.2881,-1.2881,-1.2871,-1.2774,-1.2187,-1.1765,-1.1715,-1.1116,-1.0813,-1.0813,-1.072,-1.0364,-0.9651,-0.8842,-0.8112,-0.745,-0.6583,-0.5855,-0.5233,-0.4474,-0.3762,-0.2934,-0.1615,-0.1507,-0.2009,-0.1284,-0.095,-0.0895,-0.0224,-0.0392,-0.095,-0.095,-0.1396,-0.2063,-0.2841,-0.3065,-0.3176,-0.4012,-0.4236,-0.407,-0.3345,-0.2563,-0.1615,-0.0223,0.0222,0.0887,0.2929,0.4033,0.5023,0.6431,0.7776,0.8738,0.8888,0.9982,1.1308,1.258,1.3369,1.3956,1.4433,1.5141,1.5588,1.5499,1.6095,1.6522,1.6522,1.6522,1.6522,1.6522,1.6522,1.6522,1.6522,1.6993,1.7544,1.8066,1.8612,1.9325,2.0212,1.9945,1.9909,2.0212,1.9663,1.9593,1.9924,1.9513,1.8949,-0.5746,-0.5764,-0.5974,-0.5713,-0.5834,0.0,-0.5625,-0.5383,-0.5852,-0.8002,-0.8228,-0.8646,-1.0587,-1.1394,-1.1591,-1.1097,-1.2575,-1.4401,-1.6236,-1.6095,-1.572,-1.5632,-1.4641,-1.3909,-1.3815,-1.3238,-1.2881,-1.2881,-1.2881,-1.2657,-1.203,-1.1864,-1.1566,-1.1015,-1.0864,-1.0813,-1.0813,-1.0261,-0.9644,-0.8894,-0.7641,-0.6627,-0.5864,-0.4553,-0.3892,-0.3779,-0.2947,-0.2227,-0.1505,-0.1228,-0.1174,-0.1229,-0.0504,-0.0224,-0.0224,-0.0056,-0.0112,-0.0224,-0.0224,-0.0336,-0.056,-0.1284,-0.1507,-0.1675,-0.2397,-0.2676,-0.2508,-0.173,-0.1003,-0.0223,0.067,0.1778,0.2932,0.3926,0.5179,0.6436,0.7272,0.8143,0.9093,1.0195,1.1057,1.1873,1.2754,1.3409,1.3684,1.3296,1.4595,1.541,1.4926,1.5832,1.6522,1.6522,1.6522,1.6522,1.6522,1.6522,1.6522,1.6522,1.6993,1.7544,1.8066,1.8612,1.9192,1.9818,2.0054,2.0054,1.9818,1.9562,1.9682,2.0213,1.9269,1.8763,0.0,0.0,0.0,-0.5678,0.0,0.0,0.0,-0.5412,-0.5619,-0.7853,-0.7829,-0.7922,-0.9578,-1.0185,-1.0298,-1.0015,-1.1635,-1.3061,-1.3301,-1.4405,-1.505,-1.4721,-1.4179,-1.3684,-1.3372,-1.3055,-1.2881,-1.2881,-1.2881,-1.2559,-1.1814,-1.1466,-1.1015,-1.0312,-0.9961,-0.9651,-0.9273,-0.8922,-0.8389,-0.7635,-0.6176,-0.5311,-0.4925,-0.3448,-0.2565,-0.2232,-0.1842,-0.1452,-0.1062,-0.0727,-0.0783,-0.1006,-0.028,0.0,0.0,0.0,0.0,0.0,0.0,0.0,-0.0112,-0.0838,-0.1118,-0.1229,-0.1953,-0.1671,-0.1002,-0.0669,0.0223,0.128,0.2007,0.2998,0.4146,0.5253,0.6597,0.7829,0.86,0.954,1.0517,1.1166,1.1882,1.2452,1.2822,1.3152,1.3238,1.2978,1.4201,1.505,1.4744,1.5744,1.6522,1.6522,1.6522,1.6522,1.6522,1.6522,1.6522,1.6522,1.6752,1.7146,1.7666,1.8224,1.8893,1.969,1.9909,1.9909,1.969,1.9591,1.9695,2.0,1.9436,1.9075,0.0,0.0,0.0,0.0,0.0,-0.5715,0.0,0.0,0.0,-0.8333,-0.8177,-0.7962,-0.8844,-0.9018,-0.9008,-0.8914,-1.0432,-1.108,-0.9473,-1.1698,-1.3325,-1.2976,-1.3355,-1.3307,-1.2567,-1.2432,-1.252,-1.2852,-1.2568,-1.2168,-1.1648,-1.1116,-1.0415,-0.9614,-0.8949,-0.8321,-0.7723,-0.7563,-0.7069,-0.614,-0.4976,-0.4262,-0.3932,-0.2615,-0.1675,-0.1118,-0.095,-0.095,-0.1062,-0.028,-0.0448,-0.1006,-0.028,0.0,0.0,0.0,0.0,0.0,0.0,0.0,-0.0112,-0.0671,-0.0783,-0.0782,-0.1395,-0.0613,0.0445,0.0445,0.1502,0.2783,0.334,0.4268,0.5358,0.6676,0.8006,0.911,0.985,1.0864,1.1665,1.1765,1.2295,1.2715,1.2881,1.2881,1.2881,1.2881,1.3931,1.4698,1.4698,1.5744,1.6522,1.6522,1.6522,1.6522,1.6522,1.6522,1.6522,1.6522,1.6522,1.6752,1.7271,1.7907,1.8688,1.969,1.969,1.969,1.969,1.9603,1.9603,1.969,1.9603,1.9332,0.0,0.0,0.0,0.0,-0.6622,-0.695,0.0,0.0,-0.5059,-0.4664,0.0,-0.4462,-0.4594,0.0,0.0,-0.425,-0.6042,-0.7108,-0.6014,-0.7731,-0.9299,-0.9756,-1.1684,-1.2506,-1.125,-1.0791,-1.1221,-1.2764,-1.1445,-1.0708,-1.0898,-1.0864,-1.0218,-0.8956,-0.8209,-0.7777,-0.7723,-0.7074,-0.6027,-0.4645,-0.4481,-0.3712,-0.2395,-0.1619,-0.1174,-0.1062,-0.0392,-0.0504,-0.1062,-0.028,-0.0448,-0.1006,-0.028,0.0,0.0,0.0,0.0,0.0,0.0,0.0,0.0,-0.0112,0.0336,0.0838,0.0726,0.1283,0.195,0.195,0.2998,0.4152,0.4262,0.5792,0.7545,0.8265,0.9065,0.9858,1.0517,1.0813,1.1065,1.1665,1.1873,1.2129,1.2774,1.2881,1.2881,1.2881,1.3931,1.4698,1.4698,1.5744,1.6522,1.6522,1.6522,1.6522,1.6522,1.6522,1.6522,1.6522,1.6522,1.6752,1.7271,1.8263,1.9095,1.969,1.969,1.969,1.969,1.9207,1.9244,1.969,1.9207,1.8968,0.0,0.0,0.0,-0.6127,-0.6377,-0.6508,-0.4883,-0.4453,-0.4375,-0.4258,0.0,0.0,0.0,0.0,0.0,0.0,-0.4933,-0.5503,-0.4145,-0.6223,-0.7988,-0.8338,-0.9283,-1.0059,-1.0508,-1.0381,-1.1006,-1.2754,-1.0918,-1.0036,-1.0739,-1.0415,-0.9599,-0.8209,-0.7883,-0.7058,-0.5792,-0.5471,-0.4594,-0.3111,-0.2666,-0.2171,-0.1563,-0.0783,-0.0448,-0.0448,-0.0112,-0.0392,-0.1062,-0.028,-0.0448,-0.1006,-0.028,0.0,0.0,0.0,0.0,0.0,0.0,0.028,0.0727,0.1118,0.1507,0.173,0.173,0.2232,0.2952,0.3332,0.421,0.5148,0.5588,0.6681,0.7771,0.8078,0.9273,1.0466,1.0762,1.1434,1.2098,1.2403,1.2452,1.2559,1.2832,1.2881,1.2881,1.2881,1.361,1.4283,1.4652,1.5466,1.6095,1.6466,1.6522,1.6522,1.6522,1.6522,1.6522,1.6522,1.6522,1.6752,1.7271,1.8027,1.8688,1.9244,1.953,1.969,1.969,1.9169,1.9006,1.9207,1.8688,1.8263,-0.7373,-0.75,-0.7647,-0.6016,-0.5896,-0.5854,-0.4567,-0.4332,-0.4381,-0.4432,-0.4524,0.0,0.0,0.0,0.0,0.0,0.0,-0.4429,0.0,-0.4761,0.0,0.0,0.0,-0.7919,-0.9443,-0.9116,-0.9674,-1.1765,-0.9812,-0.9122,-1.0471,-0.985,-0.8967,-0.7723,-0.7283,-0.6239,-0.4426,-0.421,-0.3332,-0.1898,-0.1341,-0.1006,-0.0783,-0.0224,0.0,0.0,0.0,-0.0392,-0.1006,-0.0112,-0.028,-0.1006,-0.0056,0.0168,0.0,0.0224,0.028,0.0336,0.056,0.095,0.1507,0.2009,0.2343,0.2508,0.2508,0.3174,0.4003,0.4542,0.5366,0.6249,0.6745,0.7456,0.8043,0.8249,0.9585,1.0864,1.1015,1.2049,1.2881,1.2881,1.2881,1.2881,1.2881,1.2881,1.2978,1.3104,1.3647,1.4283,1.488,1.5454,1.5996,1.6466,1.6522,1.6522,1.6522,1.6522,1.6522,1.6522,1.6522,1.6795,1.7504,1.7907,1.8419,1.9132,1.9369,1.9479,1.9479,1.8779,1.8458,1.8458,1.8066,1.7666,-0.892,-0.8633,-0.835,-0.5769,-0.5375,-0.5293,-0.4021,-0.4669,-0.5312,-0.4473,0.0,0.0,0.0,0.0,0.0,0.0,0.0,0.0,0.0,0.0,0.0,0.0,0.0,0.0,0.0,-0.6136,-0.629,-0.9208,-0.7654,-0.7552,-0.9723,-0.911,-0.8429,-0.7723,-0.6303,-0.5202,-0.4426,-0.3669,-0.2619,-0.1118,-0.1118,-0.0727,-0.0056,0.0,0.0,0.0,0.0,-0.0392,-0.1006,0.0447,0.0223,-0.095,0.0503,0.0615,0.0112,0.0783,0.1062,0.1174,0.1898,0.212,0.2174,0.2174,0.2732,0.3345,0.3345,0.4333,0.5429,0.5433,0.6519,0.7616,0.767,0.8209,0.8903,0.9562,1.0261,1.0965,1.1616,1.2344,1.2881,1.2881,1.2881,1.2881,1.2881,1.2881,1.3113,1.3684,1.4283,1.488,1.5499,1.6095,1.6466,1.6522,1.6522,1.6522,1.6522,1.6522,1.6522,1.6522,1.6522,1.6951,1.8027,1.8106,1.8612,1.9639,1.9169,1.893,1.893,1.7867,1.7353,1.7353,1.7353,1.7312,-0.9291,-0.9518,-0.9342,-0.6261,-0.5864,-0.5633,-0.3462,-0.3826,-0.4469,-0.3998,-0.4947,0.0,0.0,0.0,0.0,0.0,0.0,0.0,0.0,0.0,0.0,0.0,0.0,0.0,0.0,0.0,-0.704,-0.902,-0.7819,-0.7777,-0.9717,-0.8659,-0.7706,-0.702,-0.5529,-0.421,-0.2945,-0.2228,-0.1341,-0.0392,-0.0392,-0.0224,0.0,0.0,0.0,0.0,0.0,-0.0168,-0.0336,0.0168,0.0392,0.0391,0.0894,0.1229,0.1452,0.1174,0.1118,0.1284,0.2565,0.2954,0.301,0.3566,0.3901,0.4236,0.4666,0.5101,0.5701,0.6686,0.7343,0.783,0.8321,0.8593,0.8857,0.9061,0.9658,1.0312,1.1015,1.1674,1.2344,1.2822,1.2881,1.2881,1.2881,1.3238,1.3552,1.3768,1.4329,1.4926,1.5543,1.5776,1.6051,1.6479,1.6522,1.6522,1.6522,1.6522,1.6522,1.6522,1.6522,1.668,1.7034,1.7394,1.7747,1.8106,1.8302,1.838,1.838,1.7666,1.7312,1.7312,1.6951,1.6752,-0.9762,-0.9759,-0.9333,-0.6585,-0.6145,-0.58,-0.3667,-0.4019,-0.4665,-0.4196,-0.4896,-0.565,0.0,0.0,0.0,0.0,0.0,0.0,0.0,0.0,0.0,0.0,0.0,0.0,0.0,0.0,0.0,0.0,0.0,0.0,0.0,-0.754,-0.6573,-0.586,-0.4652,-0.3332,-0.184,-0.1059,-0.0335,0.0392,0.0392,0.0392,0.0392,0.0392,0.0224,0.0,0.028,0.0392,0.0392,0.0671,0.1062,0.1507,0.1786,0.2009,0.2174,0.1952,0.2063,0.2454,0.3456,0.379,0.379,0.4349,0.468,0.4948,0.5378,0.5869,0.6465,0.745,0.7883,0.8209,0.8699,0.8804,0.8804,0.8804,0.951,1.0261,1.072,1.1525,1.2344,1.2822,1.2881,1.2881,1.2881,1.3563,1.4097,1.4097,1.4641,1.5242,1.582,1.5908,1.6051,1.6479,1.6522,1.6522,1.6522,1.6522,1.6522,1.6522,1.6522,1.6595,1.6795,1.7105,1.7394,1.7585,1.7747,1.7827,1.7827,1.7271,1.7034,1.6993,1.668,1.6522]},{"header":{"parameterUnit":"m.s-1","parameterCategory":1,"la1":30.6,"la2":29.2853,"lo1":-89.7004,"lo2":-87.6739,"dx":0.0162,"dy":0.0183,"nx":112,"ny":82,"refTime":"2022-12-07T18:00:00:Z","depth":0,"parameterNumber":3,"parameterNumberName":"V-component_of_WINDS"},"data":[0.0,0.0,0.0,0.0,0.0,0.0,0.0,0.0,0.0,0.0,0.0,0.0,0.0,0.0,0.0,0.0,0.0,0.0,0.0,0.0,0.0,0.0,0.0,0.0,0.0,0.0,0.0,0.0,0.0,0.0,0.0,0.0,0.0,0.0,0.0,0.0,0.0,0.0,0.0,0.0,0.0,0.0,0.0,0.0,0.0,0.0,0.0,0.0,0.0,0.0,0.0,0.0,0.0,0.0,0.0,0.0,0.0,0.0,0.0,0.0,0.0,0.0,0.0,0.0,0.0,0.0,0.0,0.0,0.0,0.0,0.0,0.0,0.0,0.0,0.0,0.0,0.0,0.0,0.0,0.0,0.0,0.0,0.0,0.0,0.0,0.0,0.0,0.0,0.0,0.0,-1.0059,-1.0159,-0.9939,-0.9562,-0.9008,-0.9562,-0.9111,-0.7128,0.0,0.0,0.0,0.0,0.0,0.0,0.0,0.0,0.0,0.0,0.0,0.0,0.0,0.0,0.0,0.0,0.0,0.0,0.0,0.0,0.0,0.0,0.0,0.0,0.0,0.0,0.0,0.0,0.0,0.0,0.0,0.0,0.0,0.0,0.0,0.0,0.0,0.0,0.0,0.0,0.0,0.0,0.0,0.0,0.0,0.0,0.0,0.0,0.0,0.0,0.0,0.0,0.0,0.0,0.0,0.0,0.0,0.0,0.0,0.0,0.0,0.0,0.0,0.0,0.0,0.0,0.0,0.0,0.0,0.0,0.0,0.0,0.0,0.0,0.0,0.0,0.0,0.0,0.0,0.0,0.0,0.0,0.0,0.0,0.0,0.0,0.0,0.0,0.0,0.0,0.0,0.0,0.0,0.0,0.0,0.0,0.0,0.0,0.0,0.0,0.0,0.0,0.0,0.0,-0.9429,-1.1291,-1.0471,-0.9762,-0.9666,-1.0261,-0.961,-0.7164,0.0,0.0,0.0,0.0,0.0,0.0,0.0,0.0,0.0,0.0,0.0,0.0,0.0,0.0,0.0,0.0,0.0,0.0,0.0,0.0,0.0,0.0,0.0,0.0,0.0,0.0,0.0,0.0,0.0,0.0,0.0,0.0,0.0,0.0,0.0,0.0,0.0,0.0,0.0,0.0,0.0,0.0,0.0,0.0,0.0,0.0,0.0,0.0,0.0,0.0,0.0,0.0,0.0,0.0,0.0,0.0,0.0,0.0,0.0,0.0,0.0,0.0,0.0,0.0,0.0,0.0,0.0,0.0,0.0,0.0,0.0,0.0,0.0,0.0,0.0,0.0,0.0,0.0,0.0,0.0,0.0,0.0,0.0,0.0,0.0,0.0,0.0,0.0,0.0,0.0,0.0,0.0,0.0,0.0,0.0,0.0,0.0,0.0,0.0,0.0,0.0,0.0,0.0,-0.9258,-1.0288,-1.1655,-1.1266,-1.0762,-1.0364,-1.0965,-1.0257,-0.7718,-0.7963,0.0,0.0,0.0,0.0,0.0,0.0,0.0,0.0,0.0,0.0,0.0,0.0,0.0,0.0,0.0,0.0,0.0,0.0,0.0,0.0,0.0,0.0,0.0,0.0,0.0,0.0,0.0,0.0,0.0,0.0,0.0,0.0,0.0,0.0,0.0,0.0,0.0,0.0,0.0,0.0,0.0,0.0,0.0,0.0,0.0,0.0,0.0,0.0,0.0,0.0,0.0,0.0,0.0,0.0,0.0,0.0,0.0,0.0,0.0,0.0,0.0,0.0,0.0,0.0,0.0,0.0,0.0,0.0,0.0,0.0,0.0,0.0,0.0,0.0,0.0,0.0,0.0,0.0,0.0,0.0,0.0,0.0,0.0,0.0,0.0,0.0,0.0,0.0,0.0,0.0,0.0,0.0,0.0,0.0,0.0,0.0,0.0,0.0,0.0,0.0,0.0,0.0,-1.0996,-1.156,-1.2027,-1.1913,-1.1616,-1.1065,-1.1516,-1.0714,-0.8166,-0.815,0.0,0.0,0.0,0.0,0.0,0.0,0.0,0.0,0.0,0.0,0.0,0.0,0.0,0.0,0.0,0.0,0.0,0.0,0.0,0.0,0.0,0.0,0.0,0.0,0.0,0.0,0.0,0.0,0.0,0.0,0.0,0.0,0.0,0.0,0.0,0.0,0.0,0.0,0.0,0.0,0.0,0.0,0.0,0.0,0.0,0.0,0.0,0.0,0.0,0.0,0.0,0.0,0.0,0.0,0.0,0.0,0.0,0.0,0.0,0.0,0.0,0.0,0.0,0.0,0.0,0.0,0.0,0.0,0.0,0.0,0.0,0.0,0.0,0.0,0.0,0.0,0.0,0.0,0.0,0.0,0.0,0.0,0.0,0.0,0.0,0.0,0.0,0.0,0.0,0.0,0.0,0.0,0.0,0.0,0.0,0.0,0.0,0.0,0.0,0.0,0.0,0.0,-1.125,-1.2773,-1.2813,-1.2187,-1.1765,-1.1715,-1.1765,-1.0714,-0.8166,-0.7847,0.0,0.0,0.0,0.0,0.0,0.0,0.0,0.0,0.0,0.0,0.0,0.0,0.0,0.0,0.0,0.0,0.0,0.0,0.0,0.0,0.0,0.0,0.0,0.0,0.0,0.0,0.0,0.0,0.0,0.0,0.0,0.0,0.0,0.0,0.0,0.0,0.0,0.0,0.0,0.0,0.0,0.0,0.0,0.0,0.0,0.0,0.0,0.0,0.0,0.0,0.0,0.0,0.0,0.0,0.0,0.0,0.0,0.0,0.0,0.0,0.0,0.0,0.0,0.0,0.0,0.0,0.0,0.0,0.0,0.0,0.0,0.0,0.0,0.0,0.0,0.0,0.0,0.0,0.0,0.0,0.0,0.0,0.0,0.0,0.0,0.0,0.0,0.0,0.0,0.0,0.0,0.0,0.0,0.0,0.0,0.0,0.0,0.0,0.0,0.0,0.0,0.0,-1.0557,-1.1963,-1.2793,-1.2666,-1.2501,-1.2501,-1.2501,-1.1382,-0.8777,0.0,0.0,0.0,0.0,0.0,0.0,0.0,0.0,0.0,0.0,0.0,0.0,0.0,0.0,0.0,0.0,0.0,0.0,0.0,0.0,0.0,0.0,0.0,0.0,0.0,0.0,0.0,0.0,0.0,0.0,0.0,0.0,0.0,0.0,0.0,0.0,0.0,0.0,0.0,0.0,0.0,0.0,0.0,0.0,0.0,0.0,0.0,0.0,0.0,0.0,0.0,0.0,0.0,0.0,0.0,0.0,0.0,0.0,0.0,0.0,0.0,0.0,0.0,0.0,0.0,0.0,0.0,0.0,0.0,0.0,0.0,0.0,0.0,0.0,0.0,0.0,0.0,0.0,0.0,0.0,0.0,0.0,0.0,0.0,0.0,0.0,0.0,0.0,0.0,0.0,0.0,0.0,0.0,0.0,0.0,0.0,0.0,0.0,0.0,0.0,0.0,0.0,-0.8779,-1.0488,-1.1885,-1.2783,-1.2881,-1.2881,-1.2881,-1.2881,-1.1768,-0.917,0.0,0.0,0.0,0.0,0.0,0.0,0.0,0.0,0.0,0.0,0.0,0.0,0.0,0.0,0.0,0.0,0.0,0.0,0.0,0.0,0.0,0.0,0.0,0.0,0.0,0.0,0.0,0.0,0.0,0.0,0.0,0.0,0.0,0.0,0.0,0.0,0.0,0.0,0.0,0.0,0.0,0.0,0.0,0.0,0.0,0.0,0.0,0.0,0.0,0.0,0.0,0.0,0.0,0.0,0.0,0.0,0.0,0.0,0.0,0.0,0.0,0.0,0.0,0.0,0.0,0.0,0.0,0.0,0.0,0.0,0.0,0.0,0.0,0.0,0.0,0.0,0.0,0.0,0.0,0.0,0.0,0.0,0.0,0.0,0.0,0.0,0.0,0.0,0.0,0.0,0.0,0.0,0.0,0.0,0.0,0.0,0.0,0.0,0.0,0.0,0.0,0.0,-0.8896,-1.127,-1.2881,-1.2881,-1.2881,-1.2881,-1.2881,-1.2881,-1.1768,0.0,0.0,0.0,0.0,0.0,0.0,0.0,0.0,0.0,0.0,0.0,0.0,0.0,0.0,0.0,0.0,0.0,0.0,0.0,0.0,0.0,0.0,0.0,0.0,0.0,0.0,0.0,0.0,0.0,0.0,0.0,0.0,0.0,0.0,0.0,0.0,0.0,0.0,0.0,0.0,0.0,0.0,0.0,0.0,0.0,0.0,0.0,0.0,0.0,0.0,0.0,0.0,0.0,0.0,0.0,0.0,0.0,0.0,0.0,0.0,0.0,0.0,0.0,0.0,0.0,0.0,0.0,0.0,0.0,0.0,0.0,0.0,0.0,0.0,0.0,0.0,0.0,0.0,0.0,0.0,0.0,0.0,0.0,0.0,0.0,0.0,0.0,0.0,0.0,0.0,0.0,0.0,0.0,0.0,0.0,0.0,0.0,0.0,0.0,0.0,0.0,0.0,0.0,-0.8896,-1.127,-1.2881,-1.2881,-1.2881,-1.2881,-1.2881,-1.2881,-1.1768,-0.917,0.0,0.0,0.0,0.0,0.0,0.0,0.0,0.0,0.0,0.0,0.0,0.0,0.0,0.0,0.0,0.0,0.0,0.0,0.0,0.0,0.0,0.0,0.0,0.0,0.0,0.0,0.0,0.0,0.0,0.0,0.0,0.0,0.0,0.0,0.0,0.0,0.0,0.0,0.0,0.0,0.0,0.0,0.0,0.0,0.0,0.0,0.0,0.0,0.0,0.0,0.0,0.0,0.0,0.0,0.0,0.0,0.0,0.0,0.0,0.0,0.0,0.0,0.0,0.0,0.0,0.0,0.0,0.0,0.0,0.0,0.0,0.0,0.0,0.0,0.0,0.0,0.0,0.0,0.0,0.0,0.0,0.0,0.0,0.0,0.0,0.0,0.0,0.0,0.0,0.0,0.0,0.0,0.0,0.0,0.0,0.0,0.0,0.0,0.0,0.0,0.0,0.0,-0.8896,-1.127,-1.2881,-1.2881,-1.2881,-1.2881,-1.2881,-1.2881,-1.1992,-0.9893,0.0,0.0,0.0,0.0,0.0,0.0,0.0,0.0,0.0,0.0,0.0,0.0,0.0,0.0,0.0,0.0,0.0,0.0,0.0,0.0,0.0,0.0,0.0,0.0,0.0,0.0,0.0,0.0,0.0,0.0,0.0,0.0,0.0,0.0,0.0,0.0,0.0,0.0,0.0,0.0,0.0,0.0,0.0,0.0,0.0,0.0,0.0,0.0,0.0,0.0,0.0,0.0,0.0,0.0,0.0,0.0,0.0,0.0,0.0,0.0,0.0,0.0,0.0,0.0,0.0,0.0,0.0,0.0,0.0,0.0,0.0,0.0,0.0,0.0,0.0,0.0,0.0,0.0,0.0,0.0,0.0,0.0,0.0,0.0,0.0,0.0,0.0,0.0,0.0,0.0,0.0,0.0,0.0,0.0,0.0,0.0,0.0,0.0,0.0,0.0,0.0,0.0,-0.8964,-1.1312,-1.2929,-1.3065,-1.3017,-1.2968,-1.2968,-1.2968,-1.2407,-1.0996,0.0,0.0,0.0,0.0,0.0,0.0,0.0,0.0,0.0,0.0,0.0,0.0,0.0,0.0,0.0,0.0,0.0,0.0,0.0,0.0,0.0,0.0,0.0,0.0,0.0,0.0,0.0,0.0,0.0,0.0,0.0,0.0,0.0,0.0,0.0,0.0,0.0,0.0,0.0,0.0,0.0,0.0,0.0,0.0,0.0,0.0,0.0,0.0,0.0,0.0,0.0,0.0,0.0,0.0,0.0,0.0,0.0,0.0,0.0,0.0,-0.3895,-0.3747,0.0,0.0,0.0,0.0,0.0,0.0,0.0,0.0,0.0,0.0,0.0,0.0,0.0,0.0,0.0,0.0,0.0,0.0,0.0,0.0,0.0,0.0,0.0,0.0,0.0,0.0,0.0,0.0,0.0,0.0,0.0,0.0,0.0,0.0,0.0,0.0,0.0,0.0,0.0,0.0,-0.9539,-1.1566,-1.3248,-1.4201,-1.3873,-1.36,-1.36,-1.36,-1.2828,-1.1028,-1.0613,0.0,0.0,0.0,0.0,0.0,0.0,0.0,0.0,0.0,0.0,0.0,0.0,0.0,0.0,0.0,0.0,0.0,0.0,0.0,0.0,0.0,0.0,0.0,0.0,0.0,0.0,0.0,0.0,0.0,0.0,0.0,0.0,0.0,0.0,0.0,0.0,0.0,0.0,0.0,0.0,0.0,0.0,0.0,0.0,0.0,0.0,0.0,0.0,0.0,0.0,0.0,0.0,0.0,0.0,0.0,0.0,0.0,0.0,0.0,-0.3905,-0.3885,0.0,0.0,0.0,0.0,0.0,0.0,0.0,0.0,0.0,0.0,0.0,0.0,0.0,0.0,0.0,0.0,0.0,0.0,0.0,0.0,0.0,0.0,0.0,0.0,0.0,0.0,0.0,0.0,0.0,0.0,0.0,0.0,0.0,0.0,0.0,0.0,0.0,0.0,0.0,0.0,-0.9745,-1.2151,-1.3884,-1.4236,-1.4236,-1.4097,-1.3815,-1.3815,-1.351,-1.2783,-1.1768,0.0,0.0,0.0,0.0,0.0,0.0,0.0,0.0,0.0,0.0,0.0,0.0,0.0,0.0,0.0,0.0,0.0,0.0,0.0,0.0,0.0,0.0,0.0,0.0,0.0,0.0,0.0,0.0,0.0,0.0,0.0,0.0,0.0,0.0,0.0,0.0,0.0,0.0,0.0,0.0,0.0,0.0,0.0,0.0,0.0,0.0,0.0,0.0,0.0,0.0,0.0,0.0,0.0,-0.3194,-0.3354,-0.3354,-0.3354,-0.3558,-0.3935,-0.3818,-0.3912,-0.4188,-0.4085,0.0,0.0,0.0,0.0,0.0,0.0,0.0,0.0,0.0,0.0,0.0,0.0,0.0,0.0,0.0,0.0,0.0,0.0,0.0,0.0,0.0,0.0,-0.8929,-1.0277,-1.1431,-1.1919,-1.0751,0.0,0.0,0.0,0.0,0.0,0.0,0.0,0.0,0.0,0.0,0.0,-1.0267,-1.2896,-1.4606,-1.4318,-1.4595,-1.4652,-1.4143,-1.4003,-1.419,-1.4652,-1.2896,-1.1965,0.0,0.0,0.0,0.0,0.0,0.0,0.0,0.0,0.0,0.0,0.0,0.0,0.0,0.0,0.0,0.0,0.0,0.0,0.0,0.0,0.0,0.0,0.0,0.0,0.0,0.0,0.0,0.0,0.0,0.0,0.0,0.0,0.141,0.0998,0.0,0.0,0.0,0.0,0.0,0.0,0.0,0.0,0.0,0.0,0.0,0.0,0.0,-0.1546,-0.1527,-0.2941,-0.3658,-0.3661,-0.41,-0.434,-0.434,-0.434,-0.4371,-0.4426,-0.4364,0.0,-0.4245,-0.4866,0.0,0.0,0.0,0.0,0.0,0.0,0.0,0.0,0.0,0.0,0.0,0.0,0.0,0.0,0.0,0.0,0.0,0.0,0.0,0.0,0.0,0.0,-1.2378,-1.3132,-1.3415,-1.3651,-1.396,-1.1895,-0.9931,-0.9785,-0.9334,-0.8429,0.0,0.0,0.0,0.0,0.0,0.0,-1.2139,-1.3741,-1.5062,-1.6064,-1.5732,-1.5454,-1.5365,-1.4869,-1.4617,-1.4698,-1.4418,-1.3863,-1.2983,-1.2827,0.0,0.0,0.0,0.0,0.0,0.0,0.0,0.0,0.0,0.0,0.0,0.0,0.0,0.0,0.0,0.0,0.0,0.0,0.0,0.0,0.0,0.0,0.0,0.0,0.0,0.0,0.0,0.0,0.0,0.179,0.1277,0.1131,0.0457,0.0,0.0,0.0,0.0,0.0,0.0,0.0,0.0,0.0,0.0,0.0,-0.1272,-0.195,-0.1939,-0.3459,-0.4168,-0.4172,-0.4422,-0.4519,-0.4519,-0.4519,-0.4519,-0.4519,-0.4519,-0.4456,-0.4401,-0.4606,-0.43,-0.364,0.0,0.0,0.0,0.0,-0.3294,-0.372,-0.5057,-0.569,-0.6008,-0.6343,0.0,0.0,0.0,0.0,0.0,0.0,0.0,-0.7912,-0.9813,-1.0937,-1.1943,-1.345,-1.3815,-1.3956,-1.456,-1.3636,-1.2502,-1.1792,-1.086,-0.955,-0.7599,-0.7864,0.0,0.0,0.0,-1.1226,-1.2152,-1.3704,-1.4789,-1.496,-1.505,-1.496,-1.4641,-1.4652,-1.4835,-1.5186,-1.5186,-1.516,-1.5037,-1.415,-1.2628,0.0,0.0,0.0,0.0,0.0,0.0,0.0,0.0,0.0,0.0,0.0,0.0,0.0,0.0,0.0,0.0,0.0,0.0,0.0,0.0,0.0,0.0,0.0,0.0,0.0,0.0,0.0,0.0,0.1605,0.1092,0.1099,0.0595,0.0268,0.0,0.0,0.0,0.0,0.0,0.0,0.0,0.0,0.0,0.0,-0.1242,-0.2015,-0.2174,-0.3345,-0.4125,-0.4519,-0.4294,-0.4294,-0.4519,-0.4519,-0.4519,-0.4519,-0.4519,-0.4519,-0.4491,-0.435,-0.4107,-0.3863,-0.3738,-0.3508,-0.3263,-0.3495,-0.3786,-0.4341,-0.5821,-0.6575,-0.6972,-0.7322,-0.7321,-0.6974,-0.6106,0.0,0.0,0.0,0.0,-0.8276,-1.0276,-1.0963,-1.1508,-1.3164,-1.3552,-1.3695,-1.4154,-1.415,-1.396,-1.361,-1.2623,-1.1305,-0.954,-1.0024,0.0,-0.835,-1.0498,-1.2313,-1.237,-1.3718,-1.4514,-1.4097,-1.456,-1.4732,-1.4318,-1.4687,-1.5197,-1.5776,-1.5676,-1.5864,-1.6479,-1.5329,-1.4432,-1.3828,0.0,0.0,0.0,0.0,0.0,0.0,0.0,0.0,0.0,0.0,0.0,0.0,0.0,0.0,0.0,0.0,0.0,0.0,0.0,0.0,0.0,0.0,0.0,0.0,0.0,0.0,0.0,0.0,0.0,0.1107,0.1048,0.0,0.0,0.0,0.0,0.1041,0.0406,0.0,0.0,0.0,0.0,0.0,-0.0779,-0.1503,-0.2174,-0.2286,-0.3065,-0.4519,-0.379,-0.3846,-0.4519,-0.4519,-0.4519,-0.4519,-0.4519,-0.4519,-0.4515,-0.4494,-0.4263,-0.4005,-0.3982,-0.3805,-0.3592,-0.388,-0.3978,-0.4264,-0.5972,-0.6602,-0.686,-0.8239,-0.8136,-0.7479,-0.7419,-0.6828,0.0,0.0,-0.8899,-0.9761,-1.1322,-1.225,-1.2803,-1.291,-1.2978,-1.2978,-1.2968,-1.2644,-1.2935,-1.5033,-1.5377,-1.4928,-1.3618,0.0,-1.3067,-1.1843,-1.2279,-1.3002,-1.3634,-1.4286,-1.4709,-1.4663,-1.5186,-1.5543,-1.5487,-1.5543,-1.582,-1.6423,-1.5908,-1.5864,-1.6479,-1.6434,-1.5392,-1.327,-1.3624,0.0,0.0,0.0,0.0,0.0,0.0,0.0,0.0,0.0,0.0,0.0,0.0,0.0,0.0,0.0,0.0,0.0,0.0,0.0,0.0,0.0,0.0,0.0,0.0,0.0,0.0,0.0,0.0,0.1715,0.1411,0.0,0.1765,0.1396,0.1107,0.1091,0.0408,0.0,0.0,0.0,0.0,0.0,-0.0727,-0.1229,-0.1507,-0.2454,-0.3231,-0.3732,-0.4012,-0.4236,-0.4519,-0.4519,-0.4236,-0.379,-0.3735,-0.3456,-0.301,-0.301,-0.3517,-0.4304,-0.4304,-0.4239,-0.4213,-0.4267,-0.4619,-0.5104,-0.6206,-0.6912,-0.745,-0.848,-0.8591,-0.833,-0.833,-0.811,-0.816,-0.9572,-0.9859,-0.9995,-1.1411,-1.1972,-1.2187,-1.2187,-1.2559,-1.2881,-1.2881,-1.2754,-1.3094,-1.471,-1.4798,-1.451,-1.4038,-1.481,-1.472,-1.2428,-1.3173,-1.3839,-1.3273,-1.343,-1.3525,-1.3525,-1.4097,-1.4457,-1.4457,-1.5129,-1.5676,-1.5908,-1.6095,-1.6281,-1.6479,-1.6522,-1.63,-1.5841,-1.6008,-1.4701,0.0,0.0,0.0,0.0,0.0,0.0,0.0,0.0,0.0,0.0,0.0,0.0,0.0,0.0,0.0,0.0,0.0,0.0,0.0,0.0,0.0,0.0,0.0,0.0,0.0,0.1262,0.1175,0.2066,0.2007,0.208,0.2534,0.215,0.1722,0.1515,0.0764,0.028,0.0,0.0,0.0,0.0,-0.0461,-0.0867,-0.1098,-0.1847,-0.2481,-0.2939,-0.3475,-0.3854,-0.4082,-0.4373,-0.4236,-0.3735,-0.3456,-0.3176,-0.2954,-0.2397,-0.2954,-0.4125,-0.4125,-0.4294,-0.4519,-0.4519,-0.4787,-0.5273,-0.5982,-0.6691,-0.7396,-0.7889,-0.8209,-0.8427,-0.8427,-0.8586,-0.9008,-0.9865,-0.9969,-1.0012,-1.0914,-1.1466,-1.1814,-1.1814,-1.2344,-1.2881,-1.2881,-1.2881,-1.32,-1.4201,-1.4361,-1.4416,-1.4846,-1.5616,-1.541,-1.3193,-1.374,-1.3961,-1.2819,-1.2793,-1.2881,-1.2881,-1.342,-1.3815,-1.3815,-1.4404,-1.49,-1.5285,-1.5326,-1.5627,-1.617,-1.5664,-1.5615,-1.6218,-1.6545,-1.5237,-1.2144,0.0,0.0,0.0,0.0,0.0,0.0,0.0,0.0,0.0,0.0,0.0,0.0,0.0,0.0,0.0,0.0,0.0,0.0,0.0,0.0,0.0,0.0,0.0,0.2253,0.161,0.1417,0.213,0.2948,0.3425,0.3456,0.3382,0.301,0.223,0.151,0.0784,0.0056,0.0,0.0,0.0,0.0,-0.037,-0.1046,-0.037,-0.0739,-0.2148,-0.2205,-0.2581,-0.328,-0.4085,-0.4418,-0.4363,-0.3577,-0.3691,-0.4307,-0.2792,-0.2625,-0.335,-0.3403,-0.3846,-0.446,-0.4519,-0.4519,-0.4625,-0.5273,-0.5982,-0.6588,-0.6588,-0.7074,-0.7723,-0.7723,-0.8209,-0.8804,-0.8804,-0.9263,-0.9762,-0.9814,-1.0762,-1.1765,-1.1765,-1.2344,-1.2881,-1.2881,-1.2881,-1.3055,-1.3684,-1.4283,-1.5062,-1.625,-1.5952,-1.5245,-1.4257,-1.3898,0.0,-1.2351,-1.2617,-1.2871,-1.2861,-1.3399,-1.3805,-1.3805,-1.3395,-1.3599,-1.4654,-1.3766,-1.3926,-1.5572,-1.4057,-1.3529,-1.4197,-1.5107,-1.5198,-1.4453,0.0,0.0,0.0,0.0,0.0,0.0,0.0,0.0,0.0,0.0,0.0,0.0,0.0,0.0,0.0,0.0,0.0,0.0,0.0,0.0,0.0,0.3067,0.2681,0.2261,0.2015,0.2193,0.2932,0.3197,0.3542,0.4133,0.3695,0.3065,0.2286,0.1542,0.0754,0.0058,0.0,0.0,0.0,0.0,-0.0123,-0.0308,-0.0616,-0.0985,-0.1415,-0.195,-0.2305,-0.2486,-0.2703,-0.2515,-0.2037,-0.1797,-0.1857,-0.2153,-0.1637,-0.1909,-0.277,-0.321,-0.3511,-0.368,-0.4294,-0.4787,-0.5269,-0.5433,-0.5982,-0.6588,-0.6588,-0.7074,-0.7723,-0.7723,-0.8209,-0.891,-0.9361,-0.9316,-0.9211,-0.9658,-1.0415,-1.1065,-1.1065,-1.1999,-1.2881,-1.2881,-1.2881,-1.3055,-1.3684,-1.3909,-1.4283,-1.5062,-1.5062,-1.4699,-1.3971,-1.3835,-1.3558,-1.2801,-1.2803,-1.2764,-1.2441,-1.292,-1.331,-1.331,-1.4036,-1.4743,-1.5318,-1.5508,-1.5768,-1.6213,-1.5805,-1.5998,-1.6977,-1.5783,-1.5253,0.0,0.0,0.0,0.0,0.0,0.0,0.0,0.0,0.0,0.0,0.0,0.0,0.0,0.0,0.0,0.0,0.0,0.0,0.0,0.0,0.0,0.0,0.3708,0.347,0.3208,0.2884,0.2954,0.3735,0.379,0.4012,0.446,0.4179,0.3645,0.2847,0.2466,0.1736,0.06,0.0556,0.0377,0.0,0.0,0.0,0.0,-0.0448,-0.064,-0.064,-0.1388,-0.1755,-0.1754,-0.204,-0.1966,-0.1537,-0.1231,-0.1292,-0.1597,-0.0906,-0.1139,-0.1965,0.0,0.0,0.0,0.0,-0.4453,-0.5058,-0.5058,-0.5386,-0.5719,-0.5719,-0.6421,-0.7235,-0.7235,-0.7996,-0.8857,-0.9256,-0.9113,-0.891,-0.9263,-1.0064,-1.0813,-1.0813,-1.19,-1.2881,-1.2881,-1.2881,-1.3017,-1.3324,-1.342,0.0,-1.3884,-1.4154,-1.4125,-1.3598,-1.3476,-1.3215,-1.2675,-1.2773,-1.2783,-1.2529,-1.2809,-1.3022,-1.3022,-1.3518,0.0,0.0,0.0,-1.5102,-1.5102,-1.5535,0.0,0.0,0.0,-1.6085,-1.7096,-1.6031,0.0,0.0,-1.7211,-1.6139,0.0,0.0,0.0,0.0,0.0,0.0,0.0,0.0,0.0,0.0,0.0,0.0,0.0,0.0,0.0,0.0,0.4347,0.4543,0.4543,0.3993,0.3828,0.4435,0.456,0.457,0.457,0.4636,0.4419,0.3653,0.3764,0.3087,0.1546,0.1464,0.0,0.0,0.0,0.0067,0.0,0.0,0.0,0.0,-0.0656,-0.0971,-0.097,-0.1635,-0.1926,-0.1924,-0.1244,-0.1429,-0.1986,-0.0682,-0.0495,-0.1162,-0.1898,-0.2244,-0.2411,-0.3181,-0.3901,-0.4519,-0.4519,0.0,0.0,-0.4519,-0.5386,-0.6475,-0.6475,-0.7503,-0.8699,-0.8699,-0.8752,-0.8804,-0.8804,-0.9762,-1.072,-1.0762,-1.1792,-1.2774,-1.2881,-1.2881,-1.2881,-1.2881,-1.2881,-1.2881,-1.2881,-1.3324,-1.3549,-1.3132,-1.2987,-1.2744,-1.2353,-1.2646,-1.2861,-1.2812,-1.2812,0.0,-1.2899,-1.2615,-1.2857,-1.3918,-1.3675,-1.3492,-1.3492,-1.4556,-1.5158,-1.5158,-1.6222,-1.751,-1.9006,-1.9515,-1.9782,-1.9662,-1.5733,-1.4947,0.0,0.0,0.0,0.0,0.0,0.0,0.0,0.0,0.0,0.0,0.0,0.0,0.0,0.0,0.0,0.5038,0.4831,0.4646,0.4646,0.4634,0.4604,0.466,0.4755,0.483,0.483,0.4857,0.4569,0.3837,0.3755,0.3369,0.248,0.2419,0.1994,0.1065,0.107,0.0739,0.0,0.0,0.0,0.0,-0.0134,0.0,-0.02,-0.0332,-0.0398,-0.0398,-0.0265,-0.0661,-0.1448,-0.1031,-0.0945,-0.1165,-0.1887,-0.2553,-0.318,-0.3996,-0.4349,-0.4519,-0.4519,-0.4519,-0.4519,-0.4519,-0.5058,-0.5706,-0.5706,-0.674,0.0,-0.7937,-0.8321,-0.8804,-0.8804,-0.9413,-1.0115,-1.0661,-1.1416,-1.2187,-1.2774,-1.2881,-1.2881,-1.2881,-1.2881,-1.2881,-1.2881,-1.3017,-1.3035,-1.2946,-1.2919,-1.2852,-1.2773,-1.2832,-1.2744,-1.2393,-1.2353,-1.252,-1.3041,-1.3456,-1.4143,-1.5184,-1.5629,-1.5823,-1.5823,-1.6877,-1.7466,-1.7466,-1.8506,-1.923,-1.9566,-1.9984,-2.0177,-2.0162,-1.9294,-1.8964,0.0,0.0,0.0,0.0,0.0,0.0,0.0,0.0,0.0,0.0,0.0,0.6893,0.7121,0.0,0.5297,0.5394,0.4986,0.4691,0.4691,0.4884,0.4969,0.4823,0.487,0.4918,0.4918,0.4982,0.4836,0.446,0.4516,0.4259,0.3407,0.3319,0.2945,0.2009,0.1541,0.1073,0.0672,0.0202,0.0,0.0,0.0,0.0,0.0,0.0,0.0,0.0,0.0,-0.0269,-0.0671,-0.0596,-0.0523,-0.0643,-0.137,-0.2191,-0.2934,-0.3358,-0.3943,-0.4575,-0.4575,-0.458,-0.4519,-0.4519,-0.4948,-0.5487,-0.5487,-0.6524,-0.7723,-0.7723,-0.8215,-0.8804,-0.8804,-0.9309,-0.9969,-1.0669,-1.1316,-1.1913,-1.2295,-1.2344,-1.2344,-1.2344,-1.2344,-1.2452,-1.2822,-1.2881,-1.2881,-1.2881,-1.2881,-1.2881,-1.2881,-1.2881,-1.2803,-1.2578,-1.2559,-1.2691,-1.299,-1.3855,-1.4753,-1.5576,-1.6194,-1.6522,-1.6522,-1.7544,-1.8106,-1.8106,-1.9169,-1.969,-1.969,-1.9909,-2.0,-2.0,-2.0227,-2.0177,0.0,0.0,0.0,0.0,0.0,0.0,0.0,0.9382,0.9173,0.9805,0.9044,0.8359,0.855,0.7012,0.5706,0.5706,0.5148,0.4701,0.4731,0.4962,0.5098,0.5016,0.5006,0.5006,0.5006,0.5108,0.5236,0.5424,0.5549,0.5352,0.4544,0.4544,0.401,0.3011,0.2209,0.1675,0.1273,0.0605,0.0135,0.0,0.0,0.0,0.0,0.0,0.0,0.0,0.0,0.0,0.0,0.0,0.0,-0.0067,-0.0656,-0.147,-0.231,-0.2407,-0.3204,-0.4197,-0.4229,-0.4146,-0.4104,-0.4245,-0.4615,-0.5105,-0.5269,-0.6303,-0.7509,-0.7509,-0.8103,-0.8804,-0.8804,-0.9211,-0.9762,-1.0466,-1.1015,-1.1466,-1.1566,-1.1616,-1.1665,-1.1765,-1.1715,-1.1873,-1.2774,-1.2774,-1.2715,-1.2881,-1.2881,-1.2881,-1.2881,-1.2881,-1.2881,-1.2881,-1.2881,-1.2978,-1.3055,-1.4061,-1.4971,-1.5543,-1.6051,-1.638,-1.6522,-1.7544,-1.8106,-1.8106,-1.9169,-1.969,-1.969,-1.969,-1.969,-1.9726,-2.0124,-2.0246,1.1332,1.0793,1.0303,1.0674,1.0439,1.0575,0.0,1.1397,1.0588,1.1357,1.0515,0.9607,0.9644,0.7888,0.6475,0.6475,0.5486,0.4738,0.4874,0.503,0.5176,0.5298,0.5311,0.5311,0.5311,0.5325,0.5657,0.6494,0.6515,0.6523,0.6392,0.6392,0.5599,0.388,0.3747,0.2945,0.134,0.1207,0.0739,0.0,0.0,0.0,0.0,0.0,0.0,0.0,0.0,0.0,0.0,0.0,0.0,0.0,-0.0067,-0.0668,-0.1517,-0.2005,-0.2329,-0.2495,-0.2486,-0.2454,-0.2552,-0.3207,-0.3508,-0.3732,-0.4401,-0.5605,-0.6696,-0.6696,-0.7723,-0.8804,-0.8804,-0.8857,-0.9061,-0.9762,-0.9969,-1.0167,-1.0762,-1.0914,-1.1065,-1.1665,-1.1316,-1.1325,-1.2676,-1.2344,-1.2129,-1.2774,-1.2881,-1.2881,-1.2881,-1.2881,-1.2881,-1.2881,-1.2881,-1.3104,-1.3637,-1.4329,-1.4971,-1.5543,-1.5676,-1.5952,-1.6466,-1.7544,-1.8106,-1.8106,-1.9169,-1.969,-1.969,-1.969,-1.969,-1.9726,-2.0124,-2.0089,1.2348,1.207,1.1777,1.1699,1.1738,1.1924,1.2393,1.2214,1.2035,1.2376,1.1625,1.0864,1.0466,0.8999,0.758,0.6915,0.6045,0.5348,0.5082,0.5169,0.5287,0.5422,0.5428,0.5428,0.5428,0.5428,0.5557,0.5947,0.5943,0.6137,0.6654,0.6203,0.5807,0.5599,0.4544,0.3613,0.2878,0.2342,0.1676,0.0739,0.0739,0.0471,0.0,0.0,0.0,0.0,0.0,0.0,0.0,0.0,0.0,0.0,0.0,-0.02,-0.0655,-0.1427,-0.1984,-0.2387,-0.2377,-0.2322,-0.2332,-0.3044,-0.3345,-0.3514,-0.4294,-0.5167,-0.6036,-0.6475,-0.7343,-0.8262,-0.8699,-0.8804,-0.8962,-0.9666,-0.9814,-0.9865,-1.0167,-1.0218,-1.0312,-1.0568,-1.0415,-1.0517,-1.1484,-1.1774,-1.1913,-1.2187,-1.2618,-1.2881,-1.2881,-1.2881,-1.2881,-1.2881,-1.2881,-1.3017,-1.3238,-1.3826,-1.4422,-1.505,-1.541,-1.5864,-1.6479,-1.7229,-1.7787,-1.8106,-1.8855,-1.9406,-1.969,-1.969,-1.969,-1.9726,-2.0124,-2.0227,1.3037,1.2928,1.2773,1.2334,1.2559,1.2803,1.248,1.2656,1.2881,1.2881,1.2197,1.1366,1.0864,0.9591,0.8292,0.7386,0.6803,0.6176,0.5546,0.561,0.5574,0.5422,0.5428,0.5428,0.5428,0.5428,0.5491,0.5752,0.5752,0.6009,0.6654,0.6334,0.6207,0.633,0.5269,0.4478,0.4015,0.3347,0.2611,0.1675,0.1407,0.0939,0.0337,0.0135,0.0,0.0,0.0,0.0,0.0,0.0,0.0,0.0,0.0,0.0,-0.0065,-0.0725,-0.1309,-0.1794,-0.1803,-0.1697,-0.177,-0.2713,-0.301,-0.3234,-0.4184,-0.5113,-0.5923,-0.6421,-0.7289,-0.8103,-0.8646,-0.8804,-0.891,-0.9413,-0.951,-0.951,-0.951,-0.951,-0.9562,-0.9762,-0.9666,-0.9814,-1.0661,-1.1065,-1.1366,-1.1765,-1.2236,-1.2666,-1.2881,-1.2881,-1.2881,-1.2881,-1.2881,-1.2881,-1.2881,-1.3467,-1.405,-1.4663,-1.5276,-1.5864,-1.6479,-1.7146,-1.7706,-1.8106,-1.8765,-1.9332,-1.969,-1.969,-1.969,-1.9711,-2.0261,-2.0483,1.3328,1.299,1.2773,1.2334,1.2559,1.2881,1.2861,1.2871,1.2881,1.2881,1.1792,1.0813,1.0813,0.9361,0.8211,0.8167,0.7739,0.72,0.6483,0.6392,0.6145,0.5474,0.5428,0.5428,0.5428,0.5428,0.5752,0.6588,0.6654,0.6654,0.6719,0.7502,0.7186,0.5491,0.6203,0.5796,0.4015,0.3949,0.3547,0.2678,0.1742,0.1273,0.1207,0.0404,0.0,0.0,0.0,0.0,0.0,0.0,0.0,0.0,0.0,0.0,0.0,0.0,-0.0065,-0.0064,-0.0062,-0.0062,-0.0305,-0.1767,-0.2232,-0.2508,-0.4015,-0.5445,-0.6588,-0.6588,-0.767,-0.8752,-0.8804,-0.8804,-0.8811,-0.8804,-0.8804,-0.8804,-0.8804,-0.8804,-0.9008,-0.9658,-0.9256,-0.9263,-1.0559,-1.0261,-1.0312,-1.1616,-1.1814,-1.208,-1.2822,-1.2881,-1.2881,-1.2881,-1.2881,-1.2881,-1.2881,-1.3467,-1.405,-1.4663,-1.5276,-1.5864,-1.6479,-1.7504,-1.8066,-1.8106,-1.9132,-1.969,-1.969,-1.969,-1.969,-1.9711,-2.0565,-2.0959,1.4,1.391,1.384,1.3549,1.3398,1.3301,1.3301,1.3076,1.2881,1.2881,1.252,1.1981,1.1239,1.0638,0.9875,0.8782,0.8494,0.8142,0.7565,0.7466,0.7168,0.6326,0.6268,0.6009,0.5425,0.5428,0.5752,0.6654,0.6719,0.6981,0.7502,0.7832,0.7437,0.6268,0.6527,0.6133,0.4954,0.4954,0.4486,0.3547,0.2678,0.2209,0.221,0.1944,0.1811,0.1811,0.1811,0.1811,0.1743,0.1141,0.0873,0.0806,0.0202,0.0,0.0,0.0,0.0,0.0,0.0,-0.0299,-0.0889,-0.1869,-0.2508,-0.3121,-0.4181,-0.4846,-0.5391,-0.6317,-0.6966,-0.7563,-0.8533,-0.8804,-0.8804,-0.8804,-0.8804,-0.8804,-0.8804,-0.8804,-0.8857,-0.9106,-0.8956,-0.8962,-0.9413,-0.9666,-1.0115,-1.1015,-1.194,-1.2608,-1.2881,-1.2881,-1.2881,-1.2881,-1.2881,-1.2881,-1.2881,-1.3113,-1.361,-1.4663,-1.488,-1.5466,-1.6479,-1.7188,-1.7747,-1.8106,-1.8817,-1.9332,-1.969,-1.9965,-2.0089,-2.0124,-2.0731,-2.115,1.5093,1.511,1.5017,1.4612,1.4214,1.3841,1.3557,1.3184,1.2881,1.2881,1.2666,1.223,1.1283,1.1116,1.0692,0.9459,0.9457,0.9388,0.8717,0.8608,0.8249,0.7251,0.7177,0.692,0.6404,0.6338,0.64,0.6654,0.6719,0.7111,0.7962,0.8285,0.8091,0.7177,0.7177,0.6724,0.5881,0.5557,0.4954,0.4015,0.3411,0.3011,0.2678,0.2678,0.2678,0.2678,0.2678,0.2678,0.2678,0.2076,0.1808,0.1742,0.0806,0.0455,0.0433,0.0126,0.0,0.0,0.0,-0.0294,-0.0877,-0.1862,-0.2508,-0.3121,-0.4181,-0.468,-0.5058,-0.5928,-0.6421,-0.6804,-0.7777,-0.799,-0.8103,-0.8315,-0.8427,-0.848,-0.8752,-0.8804,-0.8804,-0.8804,-0.8804,-0.8804,-0.8804,-0.9361,-1.0012,-1.0712,-1.1783,-1.2501,-1.2501,-1.2725,-1.2881,-1.2881,-1.2881,-1.2881,-1.2881,-1.3296,-1.3884,-1.4663,-1.5107,-1.5776,-1.6752,-1.7312,-1.7827,-1.838,-1.8893,-1.9427,-1.9909,-2.0193,-2.0382,-2.055,-2.1023,-2.1337,1.6396,1.6427,1.6233,1.5403,1.4889,1.4403,1.3678,1.3203,1.2881,1.2881,1.2325,1.1589,1.0914,1.0748,1.0631,1.0214,1.0638,1.0745,0.9898,0.9765,0.934,0.8182,0.8091,0.8027,0.8027,0.8027,0.7697,0.6915,0.685,0.7177,0.8027,0.8877,0.8941,0.8027,0.8027,0.7632,0.6785,0.5881,0.502,0.4146,0.4146,0.3678,0.2811,0.2878,0.2878,0.2811,0.2811,0.2811,0.2811,0.2811,0.2744,0.2678,0.1742,0.1361,0.117,0.037,0.0059,0.0,0.0,0.0,-0.0292,-0.1693,-0.2174,-0.2454,-0.3956,-0.4838,-0.5374,-0.5429,-0.5923,-0.6529,-0.6588,-0.6588,-0.675,-0.745,-0.767,-0.783,-0.8533,-0.8699,-0.8752,-0.8752,-0.8752,-0.8804,-0.8804,-0.9309,-0.9969,-1.0618,-1.1266,-1.1765,-1.1814,-1.2452,-1.2881,-1.2881,-1.2881,-1.2881,-1.2881,-1.3978,-1.4652,-1.4698,-1.5832,-1.6752,-1.7271,-1.7827,-1.838,-1.8893,-1.9442,-1.9909,-2.0314,-2.0348,-2.0583,-2.1023,-2.1446,-2.1658,1.6067,1.6384,1.6488,1.5599,1.4785,1.4165,1.3975,1.3408,1.2881,1.2881,1.2464,1.1835,1.0965,1.1115,1.1247,1.0766,1.0914,1.1131,1.1227,1.0776,0.9988,0.9081,0.8947,0.8683,0.8091,0.8027,0.8156,0.8613,0.8613,0.8748,0.8947,0.9786,0.9588,0.8027,0.8613,0.8549,0.7697,0.6789,0.626,0.5994,0.5994,0.5536,0.4752,0.5401,0.5335,0.4688,0.4688,0.4688,0.4686,0.3949,0.368,0.3613,0.2678,0.1942,0.1293,0.1047,0.0533,0.0,0.0,-0.034,-0.0905,-0.1232,-0.173,-0.2286,-0.2676,-0.2894,-0.3279,-0.4375,-0.4812,-0.5198,-0.6308,-0.6588,-0.6642,-0.6858,-0.6858,-0.6912,-0.7128,-0.7616,-0.799,-0.799,-0.8427,-0.8804,-0.8804,-0.8962,-0.9106,-0.9263,-0.9865,-1.0872,-1.2403,-1.2774,-1.2881,-1.2881,-1.2881,-1.2881,-1.2881,-1.36,-1.4236,-1.4652,-1.5796,-1.6714,-1.7271,-1.8224,-1.8765,-1.8893,-1.9722,-2.0177,-2.0314,-2.0959,-2.1321,-2.146,-2.1899,-2.2106,1.6217,1.66,1.6739,1.5584,1.4811,1.4204,1.3674,1.3066,1.2539,1.239,1.2109,1.1617,1.0573,1.0833,1.1097,1.1036,1.1201,1.1669,1.2375,1.1806,1.1065,1.0478,1.0098,0.9652,0.9192,0.9128,0.9326,0.9849,0.953,0.9466,0.9849,1.0301,1.0168,0.9192,0.9268,0.8877,0.8027,0.7502,0.7242,0.7242,0.7242,0.6789,0.6009,0.6461,0.6203,0.5428,0.5428,0.5428,0.5359,0.4821,0.4584,0.4401,0.3547,0.2854,0.2289,0.1868,0.1401,0.0895,0.0616,0.0224,-0.0223,-0.0894,-0.1396,-0.1786,-0.212,-0.2174,-0.2452,-0.3611,-0.3941,-0.4216,-0.5382,-0.5664,-0.5769,-0.6036,-0.6091,-0.6199,-0.6534,-0.6912,-0.7289,-0.7616,-0.8049,-0.8427,-0.8752,-0.8804,-0.891,-0.9211,-0.9562,-1.032,-1.1792,-1.2255,-1.2559,-1.2881,-1.2881,-1.2881,-1.2881,-1.3695,-1.4329,-1.4698,-1.5808,-1.6799,-1.7626,-1.8224,-1.8765,-1.9244,-1.9934,-2.0416,-2.0616,-2.1275,-2.1718,-2.1899,-2.218,-2.231,1.6465,1.6669,1.6825,1.5391,1.4746,1.4198,1.3164,1.25,1.2012,1.1606,1.1469,1.1099,1.0047,1.0351,1.0839,1.1107,1.1563,1.2304,1.3285,1.2671,1.2086,1.1802,1.1108,1.0624,1.0624,1.0624,1.0624,1.0624,0.9919,0.9786,1.0561,1.0624,1.0624,1.0624,0.9856,0.9134,0.835,0.8221,0.8156,0.8156,0.8156,0.7702,0.685,0.695,0.649,0.5654,0.557,0.5498,0.5498,0.5367,0.5223,0.4975,0.427,0.3819,0.3516,0.2696,0.2296,0.212,0.1452,0.1174,0.0894,-0.0503,-0.095,-0.1062,-0.173,-0.1898,-0.212,-0.301,-0.3234,-0.3456,-0.4294,-0.4519,-0.4625,-0.5218,-0.5378,-0.5546,-0.6204,-0.6372,-0.6691,-0.7557,-0.7723,-0.7943,-0.8699,-0.8804,-0.9008,-0.9562,-0.9666,-0.9917,-1.0568,-1.1266,-1.1931,-1.2666,-1.2764,-1.2774,-1.2881,-1.3931,-1.4606,-1.4698,-1.582,-1.6951,-1.7947,-1.8145,-1.865,-1.9566,-1.9963,-2.0471,-2.0991,-2.1301,-2.177,-2.231,-2.231,-2.231,1.5856,1.5932,1.6025,1.4641,1.3965,1.354,1.3027,1.2256,1.1553,1.1113,1.0752,1.032,0.9676,1.0581,1.1406,1.1372,1.2132,1.2915,1.3482,1.2599,1.1832,1.1841,1.1108,1.0624,1.0624,1.0624,1.0624,1.0624,1.0428,1.0428,1.0561,1.0624,1.0624,1.0624,1.0434,1.0301,1.0168,0.946,0.9075,0.9075,0.9075,0.8613,0.7822,0.8264,0.7991,0.7114,0.6273,0.5908,0.5847,0.5239,0.4979,0.4894,0.4768,0.424,0.3574,0.3399,0.2868,0.2174,0.2063,0.1619,0.095,0.0112,-0.0168,-0.0224,-0.0336,-0.0392,-0.0671,-0.2009,-0.2397,-0.2732,-0.4125,-0.4519,-0.4515,-0.4625,-0.468,-0.4736,-0.4846,-0.5273,-0.6086,-0.745,-0.7723,-0.7943,-0.8699,-0.8804,-0.8857,-0.8956,-0.8956,-0.9211,-0.9865,-1.0568,-1.1216,-1.1922,-1.1972,-1.2236,-1.2832,-1.3563,-1.419,-1.4652,-1.5796,-1.6744,-1.7422,-1.8302,-1.8855,-1.9043,-1.9383,-2.0017,-2.0991,-2.0842,-2.1299,-2.231,-2.231,-2.231,1.5279,1.4986,1.4686,1.372,1.333,1.3008,1.239,1.1734,1.1035,1.0342,0.9912,0.9537,0.9281,0.9872,1.0629,1.1382,1.2149,1.305,1.4063,1.3541,1.3053,1.3053,1.2328,1.1849,1.1849,1.1849,1.1663,1.1288,1.1226,1.085,0.9977,0.9913,1.011,1.0561,1.0624,1.0624,1.0624,1.0174,0.9907,0.97,0.97,0.9178,0.8225,0.8474,0.8116,0.7269,0.6388,0.5992,0.5936,0.5218,0.487,0.4799,0.4799,0.4471,0.4056,0.4056,0.3789,0.3345,0.2954,0.2341,0.1563,0.0839,0.0336,0.0,0.0,0.0,-0.0224,-0.134,-0.1898,-0.2454,-0.3566,-0.4181,-0.4519,-0.4519,-0.4519,-0.4519,-0.4519,-0.4732,-0.5273,-0.6357,-0.6853,-0.7343,-0.8103,-0.8533,-0.8804,-0.8804,-0.8804,-0.891,-0.9263,-0.9865,-1.0661,-1.1715,-1.2138,-1.251,-1.2881,-1.3467,-1.405,-1.4663,-1.5784,-1.6815,-1.7666,-1.8148,-1.8672,-1.9317,-1.901,-1.9374,-2.0431,-2.0531,-2.0983,-2.1735,-2.2248,-2.25,1.488,1.4329,1.3826,1.3055,1.2881,1.2675,1.1685,1.1084,1.0508,0.9524,0.9102,0.8896,0.8984,0.9217,0.9842,1.1363,1.2063,1.2898,1.433,1.4175,1.3929,1.4078,1.3374,1.2926,1.3,1.3009,1.2757,1.2074,1.182,1.1064,0.9652,0.9594,0.9913,1.0561,1.0624,1.0624,1.0624,1.0624,1.0414,1.0114,1.0114,0.9588,0.8657,0.8597,0.8224,0.7517,0.671,0.6343,0.6284,0.5585,0.5097,0.4866,0.4866,0.4734,0.4519,0.4519,0.4519,0.4405,0.3846,0.3121,0.2343,0.1786,0.0838,0.0,0.0,0.0,-0.0168,-0.0895,-0.1507,-0.212,-0.2899,-0.3511,-0.4015,-0.4015,-0.4015,-0.4015,-0.4015,-0.4015,-0.4233,-0.5097,-0.5756,-0.6416,-0.7289,-0.7937,-0.8374,-0.8533,-0.8586,-0.8646,-0.8758,-0.9361,-1.0187,-1.1204,-1.2092,-1.2715,-1.2881,-1.3467,-1.405,-1.4663,-1.5557,-1.6552,-1.7676,-1.7632,-1.8057,-1.9099,-1.848,-1.8669,-1.9682,-1.9992,-2.0483,-2.1221,-2.2057,-2.2539,1.5017,1.4663,1.434,1.32,1.2881,1.2549,1.126,1.0645,0.999,0.8783,0.8499,0.8555,0.8936,0.9304,1.0021,1.14,1.1957,1.2551,1.3506,1.3273,1.3164,1.3579,1.293,1.2595,1.2976,1.3009,1.2948,1.2887,1.1811,1.0938,1.0478,1.0498,1.0498,1.0624,1.0624,1.0624,1.0624,1.0624,1.0414,1.0114,1.0114,0.99,0.955,0.9286,0.9105,0.8925,0.7948,0.7518,0.7464,0.6758,0.6028,0.5403,0.5403,0.5069,0.4519,0.4519,0.4519,0.4519,0.4408,0.3846,0.3176,0.3121,0.1675,0.0,0.0,0.0,-0.0168,-0.0895,-0.1174,-0.1397,-0.212,-0.2343,-0.2397,-0.2397,-0.2397,-0.2397,-0.2397,-0.2397,-0.2839,-0.4207,-0.4535,-0.5031,-0.6475,-0.675,-0.702,-0.7723,-0.7777,-0.8049,-0.8699,-0.9361,-0.9753,-0.965,-1.097,-1.2178,-1.2822,-1.3467,-1.405,-1.4663,-1.4868,-1.5401,-1.6415,-1.644,-1.6656,-1.7145,-1.7302,-1.7932,-1.8975,-1.8735,-1.9501,-2.1204,-2.1523,-2.2079,1.4926,1.4422,1.3967,1.3104,1.3152,1.3134,1.1989,1.1286,1.0541,0.9414,0.8528,0.8193,0.8877,0.8936,0.9463,1.1312,1.1494,1.1836,1.2969,1.3231,1.3336,1.3506,1.3737,1.3919,1.4084,1.4313,1.4273,1.3786,1.2783,1.2077,1.1677,1.0516,0.9947,1.0027,1.0033,1.0033,1.0033,1.0033,0.988,0.9535,0.9535,0.9432,0.9152,0.9031,0.8978,0.8918,0.8092,0.7723,0.7616,0.6912,0.6145,0.5487,0.5487,0.5324,0.5054,0.4625,0.4732,0.5058,0.4625,0.4012,0.3345,0.3345,0.2454,0.1229,0.0783,0.0336,-0.0056,-0.0336,-0.0783,-0.1174,-0.1452,-0.1842,-0.2174,-0.2174,-0.2174,-0.2174,-0.2174,-0.2174,-0.2397,-0.2945,-0.3767,-0.459,-0.5198,-0.6032,-0.6696,-0.702,-0.7402,-0.7723,-0.7881,-0.8873,-0.9543,-0.9581,-1.0707,-1.1477,-1.163,-1.2413,-1.3149,-1.377,-1.4655,-1.5518,-1.6251,-1.6471,-1.6797,-1.7357,-1.6924,-1.7199,-1.8243,-1.8524,-1.914,-2.0082,-2.0982,-2.159,1.4607,1.4143,1.3637,1.3065,1.3324,1.3407,1.2015,1.1452,1.0793,0.9399,0.8349,0.7958,0.8848,0.8662,0.9067,1.1087,1.1006,1.1182,1.25,1.2939,1.3223,1.3477,1.4043,1.4512,1.4756,1.5166,1.5177,1.4628,1.3927,1.3329,1.2838,1.1344,1.0315,1.0013,1.0186,1.0186,1.002,1.002,0.9868,0.9508,0.9294,0.903,0.8804,0.8804,0.8804,0.8752,0.8262,0.8049,0.799,0.745,0.6794,0.614,0.614,0.6032,0.5764,0.5277,0.5441,0.571,0.5058,0.445,0.4006,0.3788,0.3178,0.2452,0.1898,0.1229,0.0671,0.0671,0.0279,-0.0112,-0.0112,-0.0669,-0.1227,-0.1227,-0.1395,-0.1563,-0.1563,-0.1563,-0.1619,-0.184,-0.289,-0.3822,-0.4045,-0.5152,-0.6041,-0.6258,-0.6689,-0.7065,-0.7263,-0.8114,-0.886,-0.9263,-1.0043,-1.0686,-1.1034,-1.1999,-1.2762,-1.3178,-1.4474,-1.5434,-1.5999,-1.616,-1.6561,-1.7272,-1.6725,-1.6844,-1.7641,-1.8315,-1.8853,-1.9334,-2.0446,-2.1042,1.3968,1.3815,1.3637,1.3065,1.3324,1.3205,1.0845,1.0774,1.0551,0.8208,0.7705,0.7958,0.8848,0.8662,0.8936,1.0635,1.0566,1.0742,1.2005,1.219,1.2511,1.3408,1.3516,1.3857,1.4707,1.5166,1.541,1.541,1.5019,1.4505,1.3807,1.3304,1.2355,1.0736,1.1343,1.1343,1.0679,1.0686,1.0572,1.026,0.9563,0.903,0.8804,0.8804,0.8804,0.8804,0.8804,0.8804,0.8804,0.8758,0.8315,0.767,0.767,0.7235,0.6588,0.6588,0.6588,0.6475,0.576,0.5483,0.5378,0.468,0.3959,0.3287,0.3287,0.2788,0.2174,0.2174,0.2174,0.2174,0.2174,0.1619,0.1062,0.1062,0.0504,0.0,0.0,0.0,-0.0224,-0.095,-0.173,-0.2452,-0.3176,-0.3956,-0.4732,-0.5433,-0.5394,-0.5794,-0.7138,-0.7211,-0.7421,-0.8216,-0.8786,-0.9796,-1.1427,-1.2563,-1.3178,-1.3178,-1.4138,-1.49,-1.5298,-1.5184,-1.5492,-1.6289,-1.6633,-1.6968,-1.7296,-1.7893,-1.8585,-1.9317,-1.993,-2.0418,1.3097,1.3099,1.3086,1.2223,1.2713,1.2934,1.1186,1.1024,1.0776,0.9035,0.8158,0.787,0.8477,0.8223,0.8584,1.0586,1.0303,1.04,1.1957,1.218,1.2278,1.2598,1.3154,1.3848,1.4707,1.4902,1.5107,1.5391,1.5283,1.4974,1.4514,1.4371,1.3478,1.1704,1.1863,1.174,1.1269,1.1269,1.103,1.0633,1.0426,1.0267,1.0167,0.971,0.9465,0.9465,0.9008,0.8804,0.8804,0.8804,0.8374,0.7723,0.7723,0.7563,0.7289,0.6804,0.6912,0.7235,0.6529,0.6253,0.6204,0.5987,0.5764,0.5542,0.5542,0.432,0.3046,0.3589,0.3695,0.3586,0.3101,0.2773,0.2498,0.195,0.1284,0.0727,0.0727,0.0336,-0.0056,-0.028,-0.095,-0.1675,-0.2397,-0.312,-0.3773,-0.452,-0.4947,-0.5381,-0.597,-0.6456,-0.7212,-0.8422,-0.8724,-0.9336,-1.0545,-1.1861,-1.2777,-1.3119,-1.4272,-1.5047,-1.5173,-1.5431,-1.5797,-1.6301,-1.6633,-1.706,-1.7574,-1.8173,-1.8823,-1.9525,-1.9781,-1.998,1.1912,1.222,1.2365,1.1753,1.2266,1.2511,1.0857,1.0777,1.0554,0.89,0.8108,0.7832,0.8332,0.8154,0.8457,0.9951,1.0022,1.0308,1.1533,1.1999,1.2272,1.2432,1.3086,1.3814,1.454,1.4814,1.5134,1.5608,1.5426,1.5205,1.4934,1.4651,1.4022,1.2877,1.2725,1.229,1.1619,1.1619,1.1447,1.1166,1.0914,1.0813,1.0762,1.0364,1.0167,1.0167,0.9465,0.9159,0.0,0.891,0.8533,0.8103,0.8103,0.8103,0.8103,0.7865,0.8078,0.8396,0.7947,0.7782,0.7676,0.7154,0.6999,0.7101,0.7623,0.6264,0.4638,0.512,0.5229,0.5066,0.431,0.3926,0.3542,0.2839,0.2063,0.1507,0.1507,0.1174,0.0838,0.0838,0.0,-0.0833,-0.1314,-0.2311,-0.3276,-0.37,-0.4469,-0.5087,-0.5431,-0.6237,-0.7251,-0.857,-0.903,-0.9748,-1.0908,-1.1866,-1.2766,-1.3647,-1.457,-1.515,-1.5271,-1.5754,-1.6219,-1.667,-1.6876,-1.7231,-1.7726,-1.838,-1.8995,-1.9596,-1.9738,-1.9832,0.0,1.1148,1.1502,1.143,1.1921,1.1899,0.9962,1.0041,0.0,0.8099,0.7695,0.7841,0.834,0.8401,0.8538,0.9053,0.9858,1.0578,1.0961,1.1784,1.2481,1.2871,1.3242,1.372,1.4343,1.4789,1.5298,1.5913,1.5433,1.5081,1.5081,1.445,1.4068,1.4038,1.3711,1.3039,1.1999,1.1999,1.199,1.1913,1.1266,1.0973,1.0973,1.0922,1.0864,1.0813,1.0115,0.9814,0.9814,0.9159,0.891,0.8956,0.891,0.8857,0.8962,0.9562,0.9814,0.9806,0.9805,0.9783,0.9578,0.8227,0.7811,0.8075,0.9372,0.8351,0.6745,0.6799,0.6804,0.6583,0.5869,0.5144,0.4484,0.3782,0.3007,0.2395,0.2341,0.2341,0.2286,0.223,0.1113,0.011,0.0,-0.1585,-0.2928,-0.3081,-0.3965,-0.4835,-0.5392,-0.6345,-0.7412,-0.8594,-0.9561,-1.0778,-1.239,-1.2507,-1.3134,-1.4626,-1.4987,-1.5301,-1.5649,-1.6062,-1.6617,-1.7296,-1.7351,-1.7555,-1.7888,-1.8555,-1.9151,-1.9641,-1.9781,-1.9947,0.9767,0.0,1.0365,0.9751,1.0425,1.0743,0.0,0.9287,0.9428,0.7999,0.7695,0.7929,0.8721,0.856,0.8786,1.0214,1.0601,1.0991,1.1792,1.2388,1.2898,1.3291,1.3164,1.3331,1.4116,1.441,1.4776,1.5247,1.5185,1.5081,1.5081,1.445,1.3984,1.3662,1.3555,1.358,1.378,1.378,1.3608,1.3331,1.2686,1.2412,1.2412,1.1823,1.1566,1.1516,1.0312,1.0115,1.0517,0.9865,0.9865,1.0261,0.9762,0.9562,0.9562,0.9762,0.9814,0.9865,1.0348,1.0543,1.0493,1.0179,1.0077,1.0128,1.0442,0.9452,0.8317,0.8908,0.8666,0.8103,0.7391,0.7063,0.673,0.6032,0.5249,0.458,0.3984,0.3434,0.2885,0.2284,0.1895,0.1333,0.022,-0.0316,-0.1114,-0.2716,-0.3447,-0.418,-0.5208,-0.5944,-0.6965,-0.8553,-0.9244,-1.0659,-1.3384,-1.3527,-1.3927,-1.4952,-1.5387,-1.5797,-1.6117,-1.6231,-1.6617,-1.7296,-1.7945,-1.8476,-1.8873,-1.9383,-1.9763,-1.9982,-2.0165,-2.026,0.9448,1.0177,1.0841,1.0383,1.0761,1.0968,0.9906,0.9613,0.9244,0.8183,0.7976,0.8188,0.8896,0.8805,0.9068,1.0439,1.0987,1.1695,1.3132,1.371,1.4092,1.4372,1.4213,1.4171,1.4354,1.4709,1.5137,1.5648,1.5197,1.5027,1.5293,1.4155,1.3457,1.3232,1.3501,1.3679,1.3728,1.4,1.3876,1.3372,1.3334,1.3152,1.2881,1.2501,1.2295,1.2236,1.1174,1.0914,1.1216,1.0517,1.0466,1.0762,1.0415,1.0261,1.0312,1.0618,1.0712,1.0821,1.1534,1.1534,1.1316,1.1633,1.1525,1.1316,1.1683,1.1007,1.012,1.0202,0.9562,0.8692,0.829,0.8178,0.7913,0.6853,0.6553,0.626,0.5579,0.5085,0.47,0.4323,0.3932,0.3359,0.2224,0.1313,0.0202,-0.1276,-0.2628,-0.3753,-0.4387,-0.5722,-0.7001,-0.8154,-0.9187,-1.0639,-1.2758,-1.3072,-1.3914,-1.5737,-1.5962,-1.6163,-1.6501,-1.667,-1.7085,-1.7795,-1.8286,-1.8771,-1.9341,-1.9638,-1.9909,-2.0095,-2.0279,-2.0338,0.968,1.0833,1.1936,1.1565,1.1693,1.1731,1.1036,1.0224,0.9363,0.8546,0.8446,0.868,0.9266,0.932,0.9611,1.0516,1.13,1.2447,1.4292,1.4822,1.511,1.5423,1.5418,1.5238,1.4843,1.5277,1.5766,1.6252,1.5383,1.5016,1.535,1.3865,1.3065,1.3065,1.3552,1.36,1.3152,1.36,1.36,1.3152,1.3505,1.342,1.3017,1.2929,1.2881,1.2871,1.2129,1.1864,1.1922,1.1216,1.1015,1.1124,1.1015,1.0965,1.1015,1.1616,1.1814,1.1922,1.2657,1.255,1.2169,1.2715,1.255,1.2209,1.2852,1.254,1.1855,1.1499,1.0312,0.9099,0.9058,0.9044,0.8731,0.7534,0.7676,0.787,0.7111,0.6902,0.6902,0.6794,0.6171,0.5457,0.4842,0.3104,0.1489,0.0625,-0.1511,-0.3106,-0.3246,-0.5214,-0.6884,-0.7568,-0.9024,-1.0482,-1.1782,-1.233,-1.3692,-1.618,-1.6126,-1.6254,-1.6789,-1.7224,-1.7764,-1.8447,-1.8518,-1.8875,-1.9578,-1.97,-1.9907,-2.0131,-2.0254,-2.0282,1.1015,1.2093,1.2497,1.0458,1.1145,1.1854,1.0198,0.9967,0.9828,0.8917,0.9095,0.9631,1.0391,1.0574,1.0903,1.179,1.2033,1.2528,1.3788,1.3989,1.4334,1.5237,1.5009,1.4898,1.5174,1.5429,1.5611,1.5706,1.5534,1.5266,1.4856,1.4093,1.3637,1.3637,1.3732,1.4003,1.4433,1.4014,1.4014,1.4433,1.3467,1.3238,1.3637,1.3152,1.2881,1.2871,1.2129,1.2129,1.2666,1.1931,1.203,1.252,1.1882,1.1665,1.1665,1.1765,1.1814,1.1922,1.2657,1.3142,1.3437,1.3007,1.318,1.3521,1.3637,1.3178,1.287,1.3831,1.2366,1.0517,1.0501,1.0501,1.0399,1.0195,1.0238,0.9974,0.8678,0.8364,0.8205,0.7558,0.6886,0.6387,0.6192,0.4902,0.3471,0.2078,0.0239,-0.1294,-0.1991,-0.3648,-0.538,-0.6894,-0.8078,-0.9858,-1.2584,-1.3259,-1.3933,-1.47,-1.471,-1.5345,-1.6722,-1.7608,-1.8281,-1.8734,-1.9021,-1.9401,-1.9911,-2.0055,-2.0172,-2.0273,-2.0346,-2.0164,1.012,1.1261,1.2132,1.1306,1.2448,1.3526,1.2657,1.2131,1.1655,1.103,1.1108,1.1465,1.215,1.1987,1.2052,1.2935,1.3533,1.4189,1.5092,1.5398,1.5806,1.6349,1.6286,1.597,1.5487,1.5832,1.6073,1.6037,1.5742,1.5617,1.5626,1.4786,1.4283,1.4283,1.4283,1.4422,1.4698,1.4422,1.4422,1.4698,1.4165,1.3836,1.3779,1.3505,1.319,1.2881,1.2871,1.3054,1.3372,1.3369,1.3569,1.3836,1.3511,1.3348,1.3311,1.2986,1.2667,1.2491,1.318,1.3552,1.3826,1.3836,1.4061,1.4283,1.4283,1.4075,1.3924,1.456,1.3307,1.184,1.1886,1.2122,1.2113,1.1057,1.1589,1.1908,1.0222,1.0112,1.0148,0.9438,0.9089,0.8613,0.7846,0.6797,0.5573,0.3992,0.2143,0.0707,0.0221,-0.171,-0.3623,-0.5334,-0.6765,-0.8573,-1.0909,-1.1614,-1.2917,-1.5272,-1.5125,-1.5585,-1.701,-1.7805,-1.845,-1.8949,-1.9152,-1.952,-2.0115,-1.9913,-1.9841,-1.9852,-1.9741,-1.9351,0.978,1.0608,1.1575,1.2404,1.3546,1.4525,1.4689,1.3835,1.2967,1.2824,1.2946,1.3155,1.3541,1.3286,1.3215,1.3886,1.4682,1.5389,1.609,1.6527,1.6846,1.7135,1.7187,1.6821,1.5901,1.6238,1.6455,1.6445,1.6049,1.5945,1.6204,1.5406,1.4926,1.4926,1.4926,1.4971,1.5107,1.4971,1.4926,1.4926,1.4744,1.4514,1.4226,1.4097,1.3742,1.3344,1.3826,1.4003,1.405,1.4514,1.4698,1.4698,1.4698,1.4698,1.4652,1.419,1.3742,1.3382,1.3873,1.4097,1.4272,1.4606,1.4869,1.5096,1.5096,1.5096,1.5141,1.5264,1.446,1.3538,1.3328,1.3575,1.3564,1.2073,1.284,1.346,1.1828,1.1859,1.2006,1.1399,1.1157,1.0687,0.9607,0.8624,0.7524,0.6175,0.4252,0.2803,0.2434,0.0307,-0.1921,-0.3871,-0.5669,-0.7691,-1.0089,-1.0702,-1.2516,-1.623,-1.5945,-1.6115,-1.7297,-1.7924,-1.8531,-1.9092,-1.9035,-1.9238,-1.9664,-1.9125,-1.8854,-1.8835,-1.852,-1.7993,1.1751,1.15,1.1144,1.2735,1.3223,1.3483,1.4022,1.3292,1.2584,1.3064,1.3599,1.4001,1.3963,1.4273,1.4574,1.4652,1.4686,1.4971,1.5558,1.5671,1.5917,1.6498,1.6572,1.6516,1.6436,1.6466,1.6491,1.6485,1.6448,1.6207,1.5691,1.5567,1.5543,1.5543,1.5543,1.582,1.638,1.582,1.5543,1.5543,1.4971,1.4971,1.5454,1.4869,1.4606,1.456,1.4617,1.4652,1.4652,1.4698,1.4698,1.4698,1.4698,1.4698,1.4698,1.4652,1.4606,1.4571,1.4606,1.5005,1.541,1.488,1.5443,1.6293,1.6293,1.6293,1.6391,1.6954,1.6672,1.5952,1.4824,1.4606,1.4606,1.4457,1.4514,1.44,1.3658,1.3554,1.3365,1.2764,1.2113,1.1621,1.1598,1.0138,0.8922,0.8673,0.6637,0.4956,0.4306,0.2146,-0.0349,-0.318,-0.5025,-0.7897,-1.2363,-1.2768,-1.3992,-1.6766,-1.6493,-1.6604,-1.746,-1.8064,-1.8606,-1.9091,-1.8682,-1.8335,-1.8056,-1.735,-1.6967,-1.6901,-1.644,-1.5987,0.9692,1.0255,1.1019,1.2359,1.3232,1.3921,1.4475,1.4764,1.5128,1.5693,1.5693,1.5467,1.5066,1.5437,1.57,1.532,1.5555,1.5876,1.6151,1.6151,1.6355,1.6951,1.671,1.6637,1.6951,1.671,1.6522,1.6522,1.6522,1.638,1.6194,1.6151,1.6151,1.6151,1.6151,1.6281,1.6522,1.6281,1.6151,1.6139,1.5555,1.5365,1.5588,1.5365,1.505,1.4698,1.5096,1.5276,1.5276,1.5644,1.5832,1.5832,1.5832,1.5599,1.5276,1.5276,1.5017,1.4789,1.552,1.5915,1.6176,1.6663,1.7136,1.7477,1.7477,1.7477,1.7518,1.7733,1.7666,1.7162,1.5664,1.5555,1.5611,1.488,1.5242,1.5555,1.4527,1.4869,1.5116,1.4147,1.4011,1.3829,1.3127,1.2129,1.1223,1.0579,0.8842,0.7344,0.6552,0.4162,0.1698,-0.0474,-0.3272,-0.6102,-0.8971,-0.9893,-0.9529,-0.7665,-1.2389,-1.6146,-1.8143,-1.8667,-1.9072,-1.9478,-1.7708,-1.651,-1.5926,-1.5164,-1.4792,-1.4766,-1.4067,-1.3231,0.934,1.0157,1.1232,1.2359,1.3393,1.4236,1.479,1.5454,1.6208,1.6948,1.6798,1.638,1.5952,1.6238,1.638,1.5964,1.6238,1.6552,1.671,1.6752,1.6951,1.7504,1.7229,1.7146,1.7504,1.7229,1.6909,1.6752,1.6752,1.668,1.6522,1.6522,1.6522,1.6522,1.6522,1.6522,1.6522,1.6522,1.6522,1.6522,1.6095,1.5864,1.5864,1.5864,1.5644,1.5287,1.5688,1.5864,1.5908,1.6527,1.6752,1.6752,1.6951,1.6557,1.5952,1.6262,1.6003,1.5652,1.6591,1.6928,1.7053,1.7854,1.8224,1.8341,1.8341,1.8341,1.8366,1.8545,1.8352,1.7906,1.7044,1.6915,1.6811,1.599,1.6403,1.6769,1.5947,1.6366,1.6663,1.5672,1.578,1.5656,1.446,1.3718,1.2958,1.2108,1.0618,0.9403,0.8885,0.6604,0.4395,0.2646,-0.1023,-0.3536,-0.3878,-0.4803,-0.4303,-0.177,-0.54,-0.9691,-1.4278,-1.4139,-1.4826,-1.6695,-1.4472,-1.3681,-1.4512,-1.3532,-1.2849,-1.2481,-1.1918,-1.1179,1.1563,1.1575,1.1851,1.2922,1.3647,1.4249,1.4802,1.4928,1.5243,1.6308,1.6522,1.6522,1.6522,1.6522,1.6522,1.6522,1.6522,1.668,1.7229,1.7312,1.7504,1.8027,1.8106,1.8106,1.8106,1.8106,1.7867,1.7353,1.7312,1.7076,1.6522,1.6522,1.6522,1.6522,1.6522,1.6522,1.6522,1.6522,1.6522,1.6522,1.6522,1.6522,1.6522,1.6522,1.6522,1.6522,1.6522,1.6522,1.6552,1.7076,1.7312,1.7353,1.7907,1.7463,1.6637,1.7706,1.7747,1.7394,1.7907,1.8106,1.8145,1.8145,1.8496,1.893,1.893,1.893,1.9029,1.9477,1.891,1.8338,1.9184,1.8801,1.8131,1.8106,1.8106,1.8106,1.8106,1.8106,1.792,1.7342,1.722,1.6863,1.5712,1.4666,1.3828,1.3331,1.1908,1.1004,1.119,0.959,0.7784,0.6117,0.1594,-0.0247,0.2399,0.2176,0.1052,-0.0894,0.4391,0.3714,-0.4931,-0.3511,-0.4965,-1.0113,-0.857,-0.98,-1.3951,-1.2435,-1.1114,-1.0045,-1.0015,-1.0008,0.9479,1.0408,1.1763,1.2479,1.4237,1.5831,1.5994,1.6346,1.6853,1.7549,1.7975,1.8068,1.7693,1.7312,1.7076,1.7076,1.6752,1.6552,1.671,1.7076,1.7504,1.8027,1.8106,1.8263,1.8612,1.8341,1.7867,1.7353,1.7312,1.7076,1.6522,1.6522,1.6522,1.6522,1.6522,1.668,1.7076,1.7076,1.7229,1.7626,1.7626,1.7229,1.6522,1.6522,1.671,1.7076,1.7076,1.7271,1.7626,1.7787,1.7867,1.7867,1.8027,1.7907,1.7666,1.7987,1.7987,1.7947,1.8496,1.8902,1.9207,1.9534,1.9974,2.0366,2.0366,2.0366,2.04,2.0534,2.0385,2.0237,2.0767,2.0506,1.9873,1.8844,1.8801,1.8861,1.8235,1.866,1.8896,1.8025,1.8143,1.8004,1.6824,1.6082,1.5491,1.5095,1.4206,1.3245,1.2303,1.0701,0.9278,0.8253,0.635,0.4971,0.4538,0.6603,0.9046,1.1719,1.2813,0.8052,-0.3749,-0.0431,-0.0064,-0.3765,-0.2785,-0.2876,-0.4102,-0.4895,-0.5101,-0.4749,-0.4375,-0.3972,1.0949,1.2337,1.3933,1.4278,1.5415,1.6619,1.7081,1.7286,1.7449,1.7781,1.8247,1.8493,1.8161,1.7827,1.7544,1.7353,1.7034,1.6879,1.7118,1.7435,1.7907,1.865,1.8969,1.9142,1.9199,1.9176,1.8686,1.768,1.7626,1.7312,1.6552,1.6522,1.6522,1.6522,1.6522,1.6752,1.7312,1.7312,1.7585,1.8106,1.8106,1.7747,1.7146,1.7146,1.7312,1.7626,1.7626,1.7907,1.8419,1.8419,1.8419,1.8444,1.8849,1.8722,1.8454,1.9045,1.9008,1.8797,1.9477,1.9814,1.9939,2.0449,2.0764,2.1023,2.1149,2.1195,2.1258,2.1543,2.1497,2.148,2.2029,2.1905,2.133,2.0144,1.9955,1.9847,1.9119,1.9462,1.9656,1.8864,1.914,1.9053,1.7819,1.7332,1.6874,1.6241,1.6197,1.5692,1.4229,1.3537,1.2913,1.2221,1.1276,1.0477,0.9999,1.1591,1.3814,1.658,1.6291,1.2159,0.3561,0.5604,0.5657,0.2864,0.3392,0.3405,0.2811,0.1317,0.0595,0.0595,0.0948,0.1262,1.4213,1.5747,1.7143,1.7197,1.6917,1.693,1.7964,1.7792,1.7449,1.7502,1.7908,1.8263,1.8263,1.8224,1.8027,1.7504,1.7394,1.7544,1.8027,1.8145,1.8563,1.9604,2.0296,2.0468,1.9839,2.0348,2.0015,1.8305,1.8145,1.7666,1.6637,1.6522,1.6522,1.6552,1.6552,1.6837,1.7422,1.7463,1.7706,1.8263,1.8263,1.8249,1.8288,1.8171,1.8145,1.8185,1.8224,1.8535,1.8968,1.8968,1.8968,1.908,1.9954,1.9733,1.9112,2.0485,2.0467,1.9869,2.0715,2.0748,2.0534,2.0926,2.1102,2.1243,2.1513,2.1645,2.1802,2.247,2.234,2.2217,2.3017,2.2968,2.2496,2.1859,2.1409,2.1007,2.0534,2.04,2.0314,1.9909,2.0089,1.995,1.8699,1.8483,1.8183,1.7235,1.8068,1.8296,1.6846,1.7286,1.7512,1.6966,1.5754,1.5501,1.6775,1.6211,1.5814,1.58,1.6052,1.5477,1.386,1.2808,1.1157,0.8873,0.8948,0.832,0.6897,0.586,0.5386,0.5386,0.5404,0.543,1.1764,1.3739,1.6076,1.6531,1.7229,1.7824,1.8084,1.8361,1.8676,1.9117,1.9277,1.9369,1.9369,1.9006,1.8688,1.8574,1.8224,1.7987,1.8066,1.8458,1.9003,1.9769,2.0374,2.0662,2.0513,2.0632,2.0144,1.8822,1.8341,1.7827,1.7146,1.671,1.668,1.7118,1.7105,1.7585,1.8535,1.8574,1.8817,1.9369,1.9369,1.9522,1.9798,1.8622,1.8341,1.8727,1.9169,1.9406,1.953,1.953,1.953,1.9588,2.0124,2.0162,2.0078,2.0748,2.0862,2.0715,2.0926,2.1319,2.1678,2.1535,2.204,2.2694,2.2504,2.2635,2.287,2.3034,2.301,2.3017,2.3482,2.3328,2.3082,2.32,2.277,2.2135,2.1406,2.1272,2.1197,2.0797,2.0797,2.0464,1.9302,1.9617,2.0068,2.021,2.0321,2.0336,2.0158,1.8797,1.7826,1.775,1.6471,1.5721,1.6034,1.5901,1.5802,1.5814,1.5536,1.4895,1.3828,1.3014,1.1756,0.9922,0.83,0.7308,0.6987,0.6289,0.5944,0.5944,0.6361,0.6571,1.2816,1.4777,1.6781,1.7455,1.7866,1.8185,1.8419,1.8688,1.9069,1.9593,1.9679,1.969,1.969,1.9479,1.9207,1.893,1.865,1.8496,1.8496,1.8727,1.9136,1.9727,2.0347,2.0587,2.0258,2.0513,2.0182,1.8988,1.865,1.8263,1.7706,1.7435,1.7394,1.7666,1.7666,1.8066,1.8893,1.8893,1.9169,1.969,1.9909,2.0227,2.0616,1.9838,1.9534,1.96,2.0089,2.0208,2.0,2.0243,2.0311,2.0379,2.0781,2.0927,2.0975,2.1446,2.1477,2.1337,2.1681,2.1927,2.2124,2.2317,2.2737,2.3212,2.3298,2.3436,2.3623,2.3767,2.3826,2.3844,2.3919,2.3816,2.3714,2.3896,2.3414,2.2712,2.195,2.1811,2.1668,2.1118,2.129,2.1255,2.0406,2.07,2.1078,2.1055,2.1211,2.1097,2.0466,1.9212,1.82,1.7727,1.6549,1.5799,1.5799,1.5799,1.5799,1.5799,1.5359,1.48,1.4173,1.3116,1.193,1.0608,0.9027,0.8309,0.8585,0.8,0.7747,0.7747,0.7747,0.7624,1.4051,1.6082,1.7763,1.8783,1.8688,1.8496,1.893,1.9043,1.9169,1.9603,1.969,1.969,1.969,1.969,1.9566,1.9132,1.9043,1.9043,1.9043,1.9043,1.925,1.9818,2.0363,2.0483,1.9914,2.0378,2.022,1.9139,1.8968,1.8688,1.8263,1.8145,1.8145,1.8263,1.8263,1.8521,1.914,1.914,1.9413,1.9909,2.0314,2.0715,2.1118,2.1197,2.0926,2.0449,2.0829,2.0797,2.0449,2.0829,2.0991,2.1023,2.143,2.1582,2.1642,2.2175,2.2113,2.189,2.2548,2.2609,2.2487,2.3041,2.3333,2.3512,2.3912,2.41,2.421,2.4474,2.4543,2.4512,2.4303,2.4266,2.4247,2.4209,2.3774,2.3189,2.2513,2.2327,2.2107,2.1502,2.1849,2.215,2.1856,2.189,2.1823,2.1434,2.1682,2.1407,1.9949,1.9203,1.8403,1.7377,1.6395,1.577,1.5697,1.5741,1.5799,1.5799,1.5285,1.4845,1.4501,1.3085,1.1936,1.1159,1.006,0.9755,1.0273,0.9755,0.9558,0.9628,0.9191,0.8683,1.1074,1.3959,1.7294,1.9125,1.953,1.953,1.9566,1.9603,1.9603,1.969,1.969,1.969,1.969,1.969,1.969,1.9603,1.9603,1.9603,1.9603,1.9603,1.9826,2.0513,2.0662,2.0677,2.0587,2.0662,2.0385,1.9662,1.9169,1.8855,1.8817,1.8341,1.8302,1.8779,1.8779,1.92,2.0093,2.0093,2.0348,2.0829,2.1228,2.146,2.1521,2.1945,2.1675,2.0894,2.0959,2.0959,2.0926,2.0959,2.0991,2.1023,2.143,2.1582,2.1702,2.2395,2.2608,2.2617,2.2996,2.3282,2.3486,2.3484,2.3853,2.4318,2.4276,2.4463,2.4712,2.476,2.476,2.4716,2.4512,2.4461,2.4428,2.4247,2.4113,2.3958,2.3566,2.3259,2.3028,2.293,2.2793,2.296,2.3762,2.3405,2.3056,2.3222,2.2752,2.2043,2.1016,1.9468,1.8115,1.7225,1.6321,1.5639,1.5225,1.558,1.5799,1.5799,1.5043,1.4564,1.4501,1.28,1.1799,1.17,1.0244,0.9746,1.0225,0.9746,0.9697,1.0108,1.0099,0.9804,1.2272,1.476,1.7189,1.9196,1.969,1.969,1.969,1.969,1.969,1.969,1.969,1.969,1.969,1.969,1.969,1.969,1.969,1.969,1.969,1.969,1.9794,2.0094,2.0139,2.0139,2.0139,2.0139,2.0019,1.9705,1.9479,1.9369,1.9369,1.9132,1.9095,1.9332,1.9579,1.9884,2.0314,2.055,2.091,2.1337,2.1538,2.1718,2.1986,2.2364,2.2079,2.1337,2.1615,2.1688,2.1635,2.1869,2.2051,2.2255,2.2424,2.2521,2.2548,2.2855,2.2972,2.3052,2.3498,2.3749,2.3908,2.4136,2.4416,2.4666,2.4691,2.4793,2.4917,2.4917,2.4869,2.4775,2.4685,2.4495,2.4339,2.4357,2.4284,2.417,2.4016,2.3714,2.3508,2.3623,2.3739,2.3979,2.4499,2.416,2.3599,2.2918,2.2309,2.1551,2.0461,1.9285,1.8419,1.8051,1.7319,1.6769,1.6551,1.6769,1.6697,1.6338,1.573,1.5117,1.4515,1.3221,1.2413,1.221,1.0715,1.003,1.0254,1.003,1.003,1.0254,1.0273,1.0,1.279,1.4591,1.601,1.8358,1.9061,1.9271,1.9615,1.969,1.969,1.969,1.969,1.969,1.969,1.969,1.969,1.969,1.969,1.969,1.969,1.969,1.969,1.969,1.969,1.969,1.969,1.969,1.969,1.969,1.969,1.969,1.969,1.9818,1.9818,1.969,2.0193,2.0483,2.0483,2.1055,2.1477,2.1794,2.1794,2.2015,2.2398,2.2625,2.2441,2.2017,2.2392,2.2483,2.2407,2.2703,2.2972,2.3212,2.3264,2.327,2.3293,2.3432,2.348,2.3545,2.4044,2.4209,2.4279,2.4704,2.4855,2.4883,2.503,2.5077,2.5077,2.5022,2.4943,2.4828,2.4746,2.4545,2.4357,2.441,2.4393,2.4339,2.4284,2.4096,2.3967,2.4213,2.4465,2.4671,2.4749,2.4302,2.3528,2.2275,2.1583,2.0847,1.9839,1.9106,1.8668,1.855,1.8037,1.765,1.7552,1.765,1.7488,1.6995,1.6445,1.5736,1.4782,1.371,1.2899,1.2318,1.1105,1.0544,1.0697,1.0544,1.0467,1.0467,1.0361,0.9922,1.0439,1.1536,1.2837,1.6054,1.7339,1.8149,1.9405,1.969,1.969,1.969,1.969,1.969,1.969,1.969,1.969,1.969,1.969,1.969,1.969,1.969,1.969,1.969,1.969,1.969,1.969,1.969,1.969,1.969,1.969,1.969,1.969,2.0054,2.0089,1.9711,2.0499,2.0959,2.0959,2.1811,2.2237,2.2254,2.2254,2.2409,2.2669,2.2695,2.2848,2.3117,2.3141,2.3141,2.3141,2.3165,2.3189,2.3236,2.34,2.3473,2.3557,2.4044,2.4238,2.429,2.4644,2.4756,2.4785,2.4937,2.4998,2.5022,2.5224,2.5274,2.5234,2.5046,2.4979,2.4924,2.4607,2.4639,2.467,2.4303,2.4495,2.4716,2.4528,2.4478,2.4554,2.4878,2.4852,2.4746,2.4631,2.3695,2.2709,2.1935,2.1001,2.0212,1.9747,1.9106,1.855,1.8171,1.7855,1.7552,1.7156,1.7471,1.7682,1.7637,1.6778,1.6048,1.5472,1.4056,1.281,1.1859,1.1244,1.1207,1.1737,1.1207,1.0943,1.0943,1.0505,0.9716,1.0155,1.0977,1.1738,1.4217,1.5965,1.7189,1.7652,1.8777,1.969,1.969,1.969,1.969,1.969,1.969,1.969,1.969,1.969,1.969,1.969,1.969,1.969,1.969,1.969,1.969,1.969,1.969,1.969,1.969,1.969,1.9803,2.0054,2.0212,2.0382,2.0532,2.1086,2.1538,2.1827,2.2152,2.2388,2.2563,2.2563,2.273,2.3021,2.3236,2.3414,2.3544,2.3866,2.3844,2.3526,2.3666,2.383,2.4043,2.4262,2.4329,2.4362,2.4545,2.4625,2.4655,2.4858,2.4943,2.4968,2.5141,2.5184,2.5214,2.5274,2.5303,2.5274,2.5214,2.5099,2.4998,2.5005,2.491,2.4752,2.4624,2.4714,2.482,2.487,2.4841,2.4822,2.4872,2.4765,2.4574,2.4278,2.3309,2.2356,2.1697,2.0863,2.0158,1.9747,1.948,1.9295,1.9138,1.9051,1.8952,1.8797,1.8902,1.8807,1.8388,1.8023,1.7288,1.6076,1.5506,1.476,1.3812,1.3274,1.2438,1.1282,1.0802,1.0725,1.0981,1.0505,1.0079,0.902,0.9648,1.0413,1.2852,1.4083,1.5188,1.6965,1.8041,1.8882,1.9555,1.969,1.969,1.969,1.969,1.969,1.969,1.969,1.969,1.969,1.969,1.969,1.969,1.9818,1.9909,1.9909,2.0035,2.0154,2.0154,2.0154,2.0243,2.0516,2.0682,2.0943,2.1415,2.1538,2.1823,2.2282,2.231,2.2409,2.2695,2.2712,2.2965,2.3369,2.3588,2.3774,2.3878,2.432,2.4302,2.3983,2.4192,2.4403,2.4623,2.4812,2.4905,2.4917,2.5008,2.5008,2.5022,2.5105,2.5124,2.5111,2.5264,2.5303,2.5303,2.5303,2.5303,2.5293,2.5214,2.5099,2.5022,2.5096,2.4981,2.4835,2.4994,2.4983,2.4937,2.5079,2.5017,2.4924,2.4873,2.461,2.4233,2.3717,2.2785,2.1872,2.1193,2.0518,2.0,1.9711,1.969,1.969,1.969,1.969,1.969,1.969,1.969,1.9495,1.9061,1.8685,1.7949,1.67,1.6271,1.5542,1.4332,1.4184,1.3226,1.1441,1.1139,1.0979,1.0979,1.0646,1.041,0.0,0.0,0.0,1.1841,1.1685,1.2112,1.7266,1.7458,1.713,1.9181,1.9585,1.96,1.9675,1.969,1.969,1.969,1.969,1.969,1.969,1.969,1.969,1.969,2.007,2.0314,2.0314,2.0715,2.0991,2.0991,2.0991,2.1007,2.1023,2.1399,2.1823,2.2282,2.1869,2.1823,2.2282,2.231,2.2453,2.2721,2.2798,2.3146,2.3714,2.3735,2.3899,2.4228,2.4426,2.4528,2.4526,2.4731,2.4818,2.4842,2.5028,2.512,2.5148,2.5401,2.5465,2.5406,2.5394,2.5363,2.5313,2.5293,2.5293,2.5293,2.5303,2.5303,2.5264,2.5057,2.5022,2.4986,2.4836,2.4822,2.4943,2.5387,2.5299,2.5099,2.5097,2.4942,2.4827,2.4954,2.4446,2.375,2.3017,2.2119,2.124,2.0452,1.9965,1.9711,1.9726,1.9726,1.969,1.969,1.969,1.969,1.969,1.969,1.969,1.969,1.8688,1.7868,1.7362,1.6323,1.4984,1.3316,1.3853,1.3547,1.2362,1.2389,1.1911,1.0949,1.0949,1.0704,0.7649,0.0,0.0,0.0,0.0,0.0,1.2128,1.2825,1.403,1.7121,1.727,1.7462,1.9366,1.969,1.969,1.969,1.969,1.969,1.969,1.969,1.969,1.969,2.007,2.0314,2.0314,2.0715,2.0991,2.0991,2.0991,2.1118,2.143,2.1869,2.218,2.2282,2.2163,2.218,2.231,2.25,2.2738,2.3069,2.3476,2.3888,2.4284,2.4439,2.4556,2.4639,2.4809,2.4898,2.4931,2.4996,2.5007,2.5039,2.5282,2.5389,2.5395,2.5479,2.5498,2.5463,2.5463,2.5465,2.5441,2.5391,2.536,2.5363,2.5313,2.5303,2.5303,2.5224,2.5255,2.5297,2.5306,2.5316,2.5349,2.5469,2.5305,2.5097,2.5096,2.4825,2.4527,2.4324,2.3929,2.3436,2.2849,2.1848,2.1149,2.1228,2.0364,1.9818,2.0089,1.9874,1.969,1.969,1.969,1.969,1.969,1.969,1.969,1.969,1.9043,1.845,1.7896,1.7223,1.6475,1.5611,1.5356,1.4696,1.3596,1.2858,1.2313,1.198,1.2059,1.2073,0.7631,0.7727,0.781,0.8149,0.0,0.0,1.2151,1.2702,1.3652,1.7562,1.8006,1.8093,1.9441,1.969,1.969,1.969,1.969,1.969,1.969,1.969,1.9747,1.9929,2.033,2.0649,2.083,2.1275,2.1554,2.1554,2.1554,2.1645,2.1899,2.2271,2.2463,2.2463,2.2607,2.2686,2.2686,2.284,2.3069,2.3414,2.381,2.4192,2.4512,2.4716,2.4809,2.4801,2.4977,2.5081,2.5153,2.5258,2.5284,2.5282,2.5474,2.5547,2.5547,2.5567,2.5564,2.5547,2.5547,2.5511,2.5479,2.5421,2.5406,2.5383,2.5322,2.5303,2.5313,2.533,2.5391,2.5451,2.5499,2.5495,2.5475,2.5393,2.5223,2.5054,2.4915,2.458,2.4238,2.4038,2.3654,2.317,2.2556,2.177,2.1275,2.1337,2.055,2.0035,2.028,1.9945,1.969,1.969,1.969,1.969,1.969,1.969,1.969,1.969,1.9207,1.865,1.8145,1.7585,1.6938,1.6139,1.6056,1.5599,1.4713,1.3865,1.3357,1.3118,1.3403,1.3408,0.7434,0.7434,0.7866,0.9421,0.8092,0.0,1.4167,1.4132,1.3996,1.8205,1.9013,1.8931,1.885,1.8901,1.8931,1.8856,1.9191,1.9491,1.9696,1.9747,1.9909,2.0246,2.0748,2.1213,2.1552,2.2032,2.231,2.231,2.231,2.2293,2.2349,2.2563,2.2721,2.2746,2.3045,2.3189,2.3189,2.3253,2.3414,2.3738,2.3968,2.4245,2.4559,2.4785,2.4867,2.4885,2.5053,2.517,2.526,2.5496,2.5561,2.5526,2.5573,2.5607,2.5629,2.5683,2.5661,2.5607,2.5607,2.5567,2.5503,2.5428,2.5421,2.5408,2.5329,2.5312,2.5339,2.5406,2.5457,2.5496,2.5507,2.5487,2.5414,2.5221,2.5108,2.4968,2.4643,2.4293,2.4006,2.393,2.3516,2.293,2.2235,2.1816,2.1491,2.1197,2.0649,2.0314,2.0382,1.9965,1.969,1.969,1.969,1.969,1.969,1.969,1.969,1.969,1.9207,1.865,1.8145,1.7585,1.6799,1.572,1.6151,1.6194,1.572,1.5088,1.4631,1.4277,1.4704,1.4672,0.8891,0.8833,0.9069,0.816,0.8409,0.0,0.862,0.8171,0.8515,1.1013,1.0968,1.1116,1.3191,1.3945,1.4061,1.3582,1.5952,1.8268,1.9521,1.9965,2.0212,2.028,2.1007,2.1521,2.1582,2.2032,2.231,2.231,2.231,2.2371,2.2625,2.2669,2.2822,2.3093,2.3165,2.3189,2.3189,2.3459,2.372,2.3948,2.4418,2.4733,2.4905,2.5178,2.5288,2.5286,2.5376,2.545,2.5522,2.5576,2.5598,2.5595,2.5659,2.5683,2.5683,2.5703,2.5683,2.5683,2.5683,2.5662,2.5658,2.5573,2.5561,2.5551,2.5473,2.5465,2.5463,2.5547,2.5527,2.5507,2.5577,2.5426,2.524,2.5144,2.4897,2.4662,2.4551,2.4338,2.3999,2.3446,2.3052,2.2686,2.2315,2.1882,2.1688,2.202,2.1039,2.0449,2.0829,2.0174,1.969,1.969,1.969,1.969,1.969,1.969,1.969,1.969,1.9207,1.865,1.8145,1.7585,1.698,1.6337,1.5952,1.5952,1.6337,1.5283,1.4967,1.5301,1.5465,1.5467,0.0,0.0,0.0,0.8702,0.0,0.0,0.0,0.9052,0.8949,1.1642,1.1232,1.0854,1.237,1.2862,1.2947,1.2648,1.537,1.7254,1.6573,1.8858,2.0715,2.0927,2.1321,2.1688,2.1928,2.2163,2.231,2.231,2.231,2.2426,2.2695,2.2873,2.3093,2.3437,2.361,2.3738,2.3846,2.4022,2.4192,2.44,2.4769,2.4989,2.5048,2.5333,2.5477,2.5508,2.5539,2.5564,2.5603,2.5634,2.5633,2.5605,2.5662,2.5703,2.5703,2.5703,2.5703,2.5703,2.5703,2.5703,2.5683,2.5611,2.5601,2.5595,2.5531,2.5492,2.5508,2.5538,2.5526,2.5495,2.5507,2.5331,2.5109,2.4981,2.462,2.4276,2.4118,2.3762,2.3346,2.3021,2.2704,2.2463,2.2321,2.2106,2.2032,2.2254,2.1354,2.0715,2.0959,2.0243,1.969,1.969,1.969,1.969,1.969,1.969,1.969,1.969,1.9442,1.9043,1.8535,1.7987,1.7312,1.6522,1.6194,1.6194,1.6522,1.5936,1.5807,1.6051,1.6093,1.622,0.0,0.0,0.0,0.0,0.0,0.928,0.0,0.0,0.0,1.2893,1.2412,1.1639,1.1897,1.1913,1.1847,1.1722,1.4293,1.5391,1.2744,1.663,1.9848,2.0078,2.1065,2.1716,2.1657,2.1532,2.1684,2.226,2.1769,2.1839,2.2737,2.3045,2.3392,2.3795,2.4095,2.4339,2.4495,2.4545,2.4651,2.4858,2.5018,2.5129,2.5183,2.5413,2.5551,2.5601,2.5607,2.5607,2.5603,2.5662,2.566,2.5605,2.5662,2.5703,2.5703,2.5703,2.5703,2.5703,2.5703,2.5703,2.5683,2.5636,2.5613,2.5593,2.5548,2.552,2.5504,2.5504,2.5464,2.5414,2.5367,2.5168,2.4939,2.47,2.428,2.3888,2.3635,2.3165,2.2772,2.2721,2.2527,2.236,2.231,2.231,2.231,2.231,2.1554,2.0991,2.0991,2.0243,1.969,1.969,1.969,1.969,1.969,1.969,1.969,1.969,1.969,1.9442,1.893,1.8302,1.7504,1.6522,1.6522,1.6522,1.6522,1.6595,1.6595,1.6522,1.6595,1.6879,0.0,0.0,0.0,0.0,1.1355,1.1977,0.0,0.0,0.8762,0.7839,0.0,0.739,0.7424,0.0,0.0,0.6391,0.9304,1.1103,0.9531,1.274,1.5101,1.474,1.916,2.1444,1.9486,1.8691,1.9435,2.2107,1.9824,1.9722,2.2976,2.3165,2.35,2.4113,2.4357,2.4478,2.4495,2.467,2.4866,2.5061,2.5091,2.5216,2.5454,2.5554,2.5598,2.5603,2.5661,2.5659,2.5603,2.5662,2.566,2.5605,2.5662,2.5703,2.5703,2.5703,2.5703,2.5703,2.5703,2.5703,2.5703,2.5683,2.5642,2.5592,2.5595,2.5554,2.5492,2.5492,2.5331,2.5148,2.5129,2.4841,2.4489,2.4173,2.3926,2.3653,2.3346,2.3189,2.3069,2.2772,2.2686,2.2573,2.2349,2.231,2.231,2.231,2.1554,2.0991,2.0991,2.0243,1.969,1.969,1.969,1.969,1.969,1.969,1.969,1.969,1.969,1.9442,1.893,1.7947,1.7118,1.6522,1.6522,1.6522,1.6522,1.6993,1.6951,1.6522,1.6993,1.7229,0.0,0.0,0.0,1.0558,1.1045,1.133,0.8457,0.7713,0.7578,0.7375,0.0,0.0,0.0,0.0,0.0,0.0,0.8631,0.9678,0.7327,1.0998,1.3836,1.3606,1.5681,1.7422,1.82,1.798,1.9063,2.209,1.9696,1.9591,2.3029,2.3392,2.3759,2.4357,2.4444,2.4613,2.4841,2.4934,2.5091,2.5337,2.5368,2.5454,2.5558,2.5633,2.566,2.566,2.5683,2.5661,2.5603,2.5662,2.566,2.5605,2.5662,2.5703,2.5703,2.5703,2.5703,2.5703,2.5703,2.5662,2.5634,2.5601,2.5561,2.5547,2.5547,2.5508,2.5415,2.5309,2.5158,2.5023,2.4948,2.4718,2.4459,2.4318,2.3846,2.3369,2.3212,2.2933,2.2634,2.249,2.2463,2.2426,2.2338,2.231,2.231,2.231,2.1781,2.1275,2.1023,2.0431,1.9965,1.9711,1.969,1.969,1.969,1.969,1.969,1.969,1.969,1.9442,1.893,1.8185,1.7504,1.6951,1.668,1.6522,1.6522,1.7034,1.7188,1.6993,1.7504,1.7947,1.277,1.299,1.3312,1.0419,1.0263,1.0242,0.8031,0.758,0.7665,0.7793,0.7875,0.0,0.0,0.0,0.0,0.0,0.0,0.8374,0.0,0.8861,0.0,0.0,0.0,1.3786,1.6356,1.5869,1.7012,2.0901,1.865,1.8911,2.311,2.3635,2.3984,2.4495,2.4588,2.4793,2.5101,2.5158,2.5309,2.5535,2.559,2.5605,2.5633,2.5683,2.5703,2.5703,2.5703,2.5661,2.5605,2.5644,2.5643,2.5605,2.5644,2.5683,2.5703,2.5683,2.5662,2.5662,2.5658,2.5607,2.5561,2.5526,2.5498,2.5463,2.5463,2.5388,2.5271,2.512,2.4977,2.4831,2.4741,2.4578,2.4392,2.4302,2.3723,2.3165,2.3093,2.266,2.231,2.231,2.231,2.231,2.231,2.231,2.2254,2.2135,2.1735,2.1275,2.0862,2.0416,2.0019,1.9711,1.969,1.969,1.969,1.969,1.969,1.969,1.969,1.9406,1.8688,1.8302,1.7787,1.7076,1.6837,1.671,1.671,1.7435,1.7747,1.7747,1.8145,1.8535,1.5373,1.4952,1.4462,1.0043,0.9548,0.9549,0.7329,0.8466,0.9583,0.8195,0.0,0.0,0.0,0.0,0.0,0.0,0.0,0.0,0.0,0.0,0.0,0.0,0.0,0.0,0.0,1.0957,1.183,1.7974,1.5694,1.6863,2.3328,2.3888,2.4137,2.4495,2.4818,2.5011,2.5101,2.5302,2.5451,2.5601,2.5601,2.5634,2.5703,2.5703,2.5703,2.5703,2.5703,2.5661,2.5605,2.5602,2.5604,2.5607,2.56,2.5637,2.5683,2.5633,2.5603,2.5598,2.5535,2.5517,2.5493,2.5493,2.5459,2.5406,2.5406,2.5216,2.5003,2.5022,2.4762,2.4528,2.4512,2.4357,2.4133,2.3816,2.3459,2.3117,2.2797,2.25,2.231,2.231,2.231,2.231,2.231,2.231,2.2152,2.1688,2.1275,2.0862,2.0382,1.9965,1.9711,1.969,1.969,1.969,1.969,1.969,1.969,1.969,1.969,1.9244,1.8185,1.8106,1.7585,1.6552,1.7034,1.7271,1.7271,1.8341,1.8855,1.8855,1.8855,1.8893,1.7291,1.79,1.7662,1.2766,1.209,1.1486,0.7177,0.7977,0.9163,0.7519,0.9403,0.0,0.0,0.0,0.0,0.0,0.0,0.0,0.0,0.0,0.0,0.0,0.0,0.0,0.0,0.0,1.4515,1.8091,1.777,1.925,2.3458,2.4118,2.4439,2.4685,2.4941,2.5158,2.5357,2.5469,2.559,2.5661,2.5661,2.5683,2.5703,2.5703,2.5703,2.5703,2.5703,2.5683,2.5662,2.5663,2.5641,2.5602,2.5609,2.5595,2.5564,2.5598,2.5601,2.5573,2.5477,2.5434,2.5428,2.5376,2.5346,2.5312,2.5177,2.5072,2.4943,2.4737,2.4591,2.4461,2.4339,2.4266,2.417,2.4074,2.3756,2.3437,2.3093,2.2789,2.25,2.2321,2.231,2.231,2.231,2.2032,2.1794,2.1612,2.1244,2.0829,2.0348,2.0193,2.0,1.9726,1.969,1.969,1.969,1.969,1.969,1.969,1.969,1.953,1.9169,1.8817,1.8458,1.8106,1.7907,1.7827,1.7827,1.8535,1.8893,1.8893,1.9244,1.9442,1.8853,1.9468,1.9243,1.4877,1.4132,1.326,0.8692,0.9412,1.0601,0.8948,1.015,1.1521,0.0,0.0,0.0,0.0,0.0,0.0,0.0,0.0,0.0,0.0,0.0,0.0,0.0,0.0,0.0,0.0,0.0,0.0,0.0,2.447,2.4747,2.4886,2.51,2.5309,2.552,2.5544,2.5603,2.5661,2.5661,2.5661,2.5661,2.5661,2.5683,2.5703,2.5662,2.5661,2.5661,2.5636,2.5603,2.5561,2.5543,2.5526,2.5493,2.5511,2.5503,2.5488,2.5391,2.5363,2.5363,2.5313,2.5253,2.5163,2.5034,2.4924,2.4776,2.4559,2.4444,2.4357,2.4228,2.419,2.419,2.419,2.3837,2.3459,2.3253,2.2865,2.25,2.2321,2.231,2.231,2.231,2.1811,2.1399,2.1399,2.1007,2.0599,2.0158,2.0089,2.0,1.9726,1.969,1.969,1.969,1.969,1.969,1.969,1.969,1.9603,1.9406,1.908,1.8817,1.8612,1.8458,1.838,1.838,1.893,1.9169,1.9207,1.953,1.969]}]]